GFSCGP_700_spd_000.txt.gz
Wind_Speed
21 23 24 21 20 14 15 19 15 13 10 10 8 10 13 14 13 13 13 13 14 15 16 15 13 11 9 6 3 5 8 10 11 12 14 16 17 18 18 20 22 24 26 27
19 25 22 18 19 16 15 17 14 12 12 13 10 11 12 16 16 16 16 15 14 12 11 12 11 10 9 8 11 11 9 6 6 10 13 17 19 21 23 26 28 31 33 35
20 20 20 19 18 18 17 17 16 14 14 14 11 13 15 16 19 21 19 19 18 14 13 13 14 10 10 7 7 9 10 10 10 12 12 15 18 20 23 25 27 29 29 32
19 17 20 19 17 16 16 14 16 18 17 19 19 16 19 20 21 22 24 25 24 20 15 15 16 12 8 3 4 6 11 13 16 18 19 17 18 19 22 25 26 26 27 27
17 23 20 19 16 13 5 7 11 16 18 10 13 14 3 14 23 25 24 25 26 24 22 18 17 15 10 5 2 5 9 14 19 25 25 23 19 20 20 21 22 23 25 25
17 19 17 16 14 11 9 10 10 12 12 15 16 17 18 13 18 21 24 25 27 28 25 23 22 18 15 9 7 6 8 13 20 27 30 23 18 17 18 20 21 22 24 26
16 20 17 16 16 15 12 15 13 11 10 13 4 11 20 8 12 15 22 25 28 28 30 28 26 20 18 13 11 9 9 15 21 29 33 26 18 15 16 15 16 17 18 20
24 18 20 18 17 14 17 17 9 7 9 8 3 9 12 10 14 17 16 22 28 31 31 30 27 24 22 19 15 13 12 16 23 31 33 25 18 17 17 17 18 21 21 21
21 16 22 18 18 13 17 15 9 3 7 11 11 8 13 5 4 7 16 21 29 34 32 28 27 26 24 23 19 15 14 17 25 34 29 25 19 17 18 19 21 22 22 22
16 16 17 21 19 21 13 16 13 15 6 9 7 8 5 2 7 7 10 18 27 33 30 27 26 26 26 26 21 18 14 18 28 32 29 25 19 18 19 20 20 20 20 19
22 20 15 18 20 22 20 19 15 8 6 9 6 4 5 4 2 3 7 8 19 28 30 27 26 27 28 27 22 19 15 19 28 32 30 24 18 19 21 20 19 19 18 16
24 20 23 20 19 22 20 21 20 18 13 11 12 13 2 6 5 6 5 9 13 15 22 26 27 29 29 27 24 19 17 21 25 32 32 22 20 20 22 21 19 18 17 17
21 22 24 19 15 17 19 21 20 20 15 10 12 7 2 7 10 10 9 10 13 19 22 24 27 29 30 29 25 19 19 23 25 31 33 23 23 23 22 20 19 18 17 18
17 21 29 29 27 22 23 22 24 23 22 16 16 16 17 15 14 14 15 17 18 20 22 24 29 31 32 29 25 21 22 24 25 29 31 24 23 20 18 18 17 18 19 19
18 18 22 27 23 20 22 23 25 27 25 22 18 12 20 17 17 19 20 24 26 26 26 27 30 33 31 28 24 23 25 25 25 29 30 22 21 19 17 18 19 19 21 22
20 16 16 21 20 21 23 25 24 23 21 19 16 17 16 17 19 21 22 25 26 27 28 29 33 31 29 26 23 26 25 24 26 28 26 22 20 19 21 20 20 20 21 21
12 15 15 20 15 15 20 20 22 20 16 15 15 15 16 20 20 19 20 23 30 24 25 28 28 23 24 23 26 25 23 24 27 27 23 19 19 17 18 19 21 20 20 18
14 15 14 14 12 14 15 14 19 20 16 15 14 15 15 17 18 14 16 17 19 26 28 23 19 19 20 25 25 22 23 26 26 25 19 19 18 17 21 22 21 22 20 20
24 18 17 17 21 20 7 15 16 16 16 13 14 13 14 15 12 9 6 5 7 13 18 18 17 17 20 21 22 23 25 23 22 21 20 21 22 24 25 24 22 22 22 20
25 24 22 16 24 21 23 15 13 11 16 15 12 12 10 12 8 8 8 4 4 8 12 18 19 16 15 16 20 22 23 21 22 22 24 25 24 26 24 24 23 23 21 22
18 20 24 27 22 22 12 13 11 13 11 7 10 10 11 10 11 10 9 6 4 8 11 13 13 12 12 17 21 25 24 25 24 26 28 29 32 26 27 26 25 24 23 22
18 18 21 20 18 17 15 13 16 16 14 12 9 11 15 14 13 14 16 13 10 8 12 13 14 13 15 18 25 25 26 27 28 29 29 32 36 31 22 30 27 25 24 26
14 17 15 14 8 15 13 14 15 15 15 22 27 22 21 19 17 14 18 17 16 14 14 17 17 16 17 25 28 28 29 31 34 32 31 33 33 32 27 30 30 25 27 26
16 18 16 14 16 19 17 21 26 31 30 24 22 24 24 21 22 19 20 20 19 18 18 19 19 18 25 31 33 34 35 36 31 31 33 35 34 32 33 31 29 26 28 26
15 15 15 17 24 25 24 25 19 13 15 17 19 22 24 23 25 23 23 20 20 20 19 17 19 27 31 36 37 34 29 28 29 30 31 36 33 35 33 33 29 31 29 20
15 15 14 18 21 18 20 18 14 16 17 17 17 14 15 19 23 24 21 20 18 18 17 22 28 35 38 36 34 31 29 27 27 27 29 33 33 33 28 27 29 32 25 18

GFSCGP_700_spd_003.txt.gz
Wind_Speed
24 22 23 22 21 18 13 15 18 9 11 10 7 10 11 13 11 13 14 15 14 13 13 13 13 10 8 7 2 2 3 5 6 10 12 14 16 17 18 19 19 22 24 25
27 28 21 18 19 19 14 16 14 12 11 10 10 10 11 15 14 14 16 17 16 17 16 13 9 8 6 6 7 7 6 4 4 6 10 14 17 21 23 24 26 27 30 31
25 26 23 22 19 18 19 18 18 12 13 13 13 14 14 17 17 17 17 17 17 19 19 16 12 9 9 8 7 7 8 7 7 10 12 12 13 17 18 18 21 27 28 29
21 21 24 22 22 20 21 18 16 14 12 20 20 20 20 18 21 22 21 21 21 20 19 18 17 11 12 9 7 4 3 5 9 14 18 16 15 16 20 20 23 21 23 23
23 22 23 23 22 19 12 17 15 16 18 19 17 20 23 18 25 26 25 24 24 22 21 20 19 18 15 7 5 2 3 7 12 18 23 25 21 16 18 18 19 19 21 21
21 18 23 22 18 18 11 10 10 14 16 20 21 14 19 22 29 22 23 26 26 26 24 22 21 22 19 10 7 6 6 9 14 21 28 29 20 15 15 18 19 19 20 22
21 24 23 20 21 17 15 15 14 12 15 15 11 17 14 8 7 13 21 26 30 29 27 26 25 27 25 18 12 10 11 11 16 23 31 28 22 16 14 14 17 18 19 21
22 26 27 23 24 19 20 18 19 7 10 14 10 11 21 19 13 8 14 22 26 29 29 29 28 31 27 24 19 15 15 14 16 23 29 29 24 19 16 17 17 19 21 21
26 24 25 24 23 20 19 22 20 17 7 14 7 12 14 11 10 11 14 16 23 29 29 30 30 32 29 27 23 22 20 17 16 23 28 32 29 20 17 18 19 21 21 21
18 21 28 25 24 21 11 16 15 13 8 10 11 8 10 11 7 9 11 14 19 27 31 30 31 34 29 29 25 25 24 20 15 21 28 36 35 22 18 19 21 21 20 18
18 19 24 24 27 24 23 16 20 18 13 7 6 6 12 7 6 5 7 10 16 23 31 28 31 31 30 30 29 27 26 23 17 21 26 31 36 26 23 23 23 21 20 19
28 16 25 27 24 26 27 24 22 20 15 14 15 7 6 3 3 4 7 9 9 17 26 27 30 30 30 29 31 30 28 25 20 24 27 30 37 27 25 22 21 20 19 19
27 28 21 26 23 23 25 26 26 28 20 23 12 7 6 3 6 7 10 11 14 15 22 26 29 31 33 29 31 31 30 26 22 26 29 31 35 31 25 22 21 19 19 19
23 27 29 28 31 24 26 28 25 26 24 20 25 12 8 8 7 9 11 13 15 18 23 24 27 33 33 31 33 33 30 26 24 26 29 31 33 31 26 24 22 22 21 21
26 24 25 27 29 30 25 28 28 29 27 27 21 8 16 10 9 11 14 14 17 21 24 29 30 32 34 36 37 33 30 25 24 28 28 30 33 30 24 22 22 23 23 23
25 24 24 28 25 29 27 25 30 28 28 27 26 24 14 15 11 15 17 18 19 21 25 27 31 32 36 39 36 31 28 27 26 28 29 29 28 24 21 19 19 21 22 23
22 24 24 27 26 27 25 25 27 27 26 24 27 19 10 12 17 18 18 17 19 20 24 27 29 32 37 38 31 27 26 25 27 28 28 28 22 21 19 19 22 24 23 24
18 18 21 23 26 22 25 24 22 27 24 20 21 18 15 15 17 17 17 16 17 17 20 25 25 25 33 31 25 26 27 25 27 27 29 24 22 23 25 26 27 23 25 24
14 15 20 25 25 19 20 13 20 21 21 19 17 17 16 15 17 19 14 13 14 14 19 20 23 21 26 20 24 24 23 25 25 28 25 25 23 26 29 29 30 28 27 24
17 16 20 22 24 20 25 13 16 11 21 22 16 15 14 13 13 1 11 13 16 14 11 14 19 23 19 19 22 19 20 22 28 24 25 26 26 28 30 32 30 24 30 27
24 23 25 29 29 29 19 2 11 24 12 6 6 9 9 12 13 16 11 13 13 10 8 10 13 15 15 13 17 20 19 26 24 24 28 32 33 32 30 32 37 23 27 30
21 28 30 29 30 29 16 13 22 15 3 3 4 7 10 12 15 17 15 15 14 12 10 12 15 16 18 20 22 18 25 24 25 29 32 35 38 35 30 34 38 31 35 34
25 12 5 5 3 3 5 19 15 18 18 18 20 22 21 22 22 20 19 17 16 18 14 15 18 18 21 24 23 24 26 26 31 33 38 36 35 34 34 33 34 35 35 35
16 18 18 13 6 5 9 3 7 15 18 22 22 26 32 27 20 20 20 19 17 17 18 18 19 20 24 26 24 27 28 33 36 36 34 32 32 33 38 37 34 30 31 20
10 7 13 20 14 14 7 19 19 22 24 21 22 21 22 20 20 20 20 20 19 19 22 27 29 28 26 22 26 31 35 37 34 31 29 28 29 32 34 37 33 29 28 28
16 16 16 13 23 17 19 21 18 18 18 16 18 16 16 12 15 20 20 22 23 24 25 21 25 19 22 25 29 33 37 36 30 29 27 25 25 27 29 34 40 31 30 29

GFSCGP_700_spd_006.txt.gz
Wind_Speed
21 24 24 22 22 20 16 14 17 11 19 22 12 20 20 17 13 14 16 15 14 13 15 12 7 3 2 5 8 7 7 8 7 8 10 12 15 16 18 19 21 20 24 25
23 30 22 20 21 22 20 12 15 17 14 13 12 16 18 18 16 15 17 17 17 17 19 12 14 15 11 12 3 4 5 3 2 4 7 10 12 16 19 21 23 24 27 27
29 26 23 20 21 21 20 16 13 18 14 9 11 17 21 14 17 17 18 18 19 22 20 13 9 8 10 8 5 5 6 6 7 11 13 15 14 13 15 18 12 22 22 24
26 23 24 23 22 20 23 17 18 20 14 17 19 22 27 25 20 20 22 22 22 23 21 19 15 12 12 8 7 4 2 4 7 11 18 22 20 15 17 19 21 18 21 20
29 26 29 27 25 22 20 18 19 16 17 19 18 17 25 24 24 24 26 26 24 23 23 22 19 17 17 10 8 6 3 2 6 12 20 25 21 17 16 16 13 14 16 16
25 22 24 26 22 21 20 12 19 15 18 24 24 18 13 21 30 34 23 26 26 25 23 23 22 23 21 20 10 6 3 4 7 11 18 24 25 21 18 16 16 17 19 21
26 27 22 22 23 23 20 17 13 12 15 16 22 24 21 19 21 22 21 29 30 26 26 25 26 27 27 27 15 6 5 7 10 12 18 26 29 27 22 17 16 16 19 22
29 29 26 25 27 23 22 21 17 13 11 17 17 12 25 12 16 11 17 26 25 30 31 30 28 31 34 35 26 15 13 12 13 14 18 25 29 32 27 21 17 18 21 23
30 28 27 27 24 25 20 26 24 24 19 10 10 14 15 15 12 11 9 14 25 22 30 32 31 34 37 40 35 25 20 18 18 18 19 23 29 30 33 24 22 23 25 24
25 22 27 27 23 23 23 19 19 24 10 11 12 14 19 21 14 9 8 13 14 20 29 34 30 34 39 41 38 32 25 22 21 22 20 23 30 31 33 30 26 25 24 23
35 25 27 29 30 30 28 20 17 19 19 10 10 6 15 14 11 9 7 8 10 14 19 25 29 33 39 40 41 35 27 25 24 24 21 21 28 32 34 37 30 27 26 24
32 20 23 38 26 27 27 24 16 19 14 15 16 8 13 11 10 12 9 6 8 12 15 29 28 32 39 41 42 41 27 28 27 26 23 22 25 30 35 39 34 29 26 24
30 26 18 20 28 29 27 25 27 23 21 22 17 8 11 11 12 10 9 6 7 11 10 24 28 30 40 42 40 34 27 29 29 28 25 25 26 31 34 39 34 29 26 26
30 33 26 25 26 27 31 29 28 31 26 25 22 8 10 10 12 11 6 4 5 10 16 24 28 32 40 39 34 34 31 31 29 27 26 27 28 30 34 39 32 28 26 25
33 24 28 29 29 25 25 30 29 30 31 27 20 19 24 12 18 12 16 12 10 11 17 22 27 26 39 41 39 37 34 32 28 25 26 28 29 31 35 35 28 26 23 24
25 21 21 26 26 26 29 28 29 30 29 30 27 26 21 19 7 10 6 9 12 13 16 22 25 30 36 42 43 38 34 35 29 28 23 30 29 33 36 29 28 27 28 25
27 28 27 27 25 27 32 31 31 28 28 26 25 17 12 13 16 12 8 13 13 21 19 21 26 28 38 41 44 41 40 31 28 26 24 27 29 33 30 27 26 27 29 28
22 32 31 30 29 23 29 27 27 27 26 26 25 23 14 15 9 6 8 14 21 18 17 16 21 25 33 38 41 43 37 30 27 22 23 27 31 32 29 28 29 27 30 38
13 18 25 30 31 27 25 19 5 6 14 16 15 23 27 10 8 9 12 8 12 16 14 15 20 25 31 37 39 35 34 23 22 20 22 29 30 28 29 31 31 32 31 32
15 14 26 18 17 19 26 19 21 9 19 10 6 14 19 14 8 8 7 11 15 17 17 17 15 24 29 34 36 26 21 19 17 17 25 28 28 28 30 33 33 28 30 35
27 20 20 19 22 29 23 18 15 22 39 21 17 6 7 4 4 5 12 19 24 24 22 18 16 17 21 29 31 20 16 17 15 21 27 28 29 32 34 34 33 26 36 34
28 20 22 27 25 26 26 11 14 8 18 12 12 7 6 15 9 5 7 19 20 16 19 18 14 17 16 19 24 19 19 17 18 24 26 28 33 35 30 29 40 33 34 35
22 33 23 12 4 12 3 19 21 18 13 14 18 17 17 14 15 15 23 17 26 19 18 15 17 19 20 20 22 29 26 22 20 24 29 30 32 35 37 34 37 34 36 32
16 5 4 14 23 13 10 8 12 8 11 10 5 5 9 16 23 28 31 21 26 36 28 23 20 20 21 23 27 31 27 19 23 26 33 36 36 30 32 33 36 33 30 34
16 15 20 6 9 13 20 18 10 12 14 16 19 22 23 27 29 32 27 18 29 26 24 15 21 21 31 38 32 32 21 13 16 30 29 29 24 25 29 31 28 22 29 36
10 1 4 7 10 2 7 6 6 10 8 13 18 16 17 14 11 14 20 25 37 16 25 30 34 34 39 39 32 31 21 24 22 33 34 23 19 15 21 37 41 38 33 29

GFSCGP_700_spd_009.txt.gz
Wind_Speed
18 21 23 23 18 19 26 27 22 14 16 16 16 21 20 19 17 17 22 21 19 15 9 7 6 5 10 9 9 9 10 4 2 4 7 9 11 14 16 17 18 19 20 21
22 27 28 20 18 21 26 23 28 22 29 15 21 23 20 28 22 16 22 22 19 15 13 13 6 2 5 8 5 3 3 3 5 7 7 10 11 11 15 19 20 20 20 20
30 26 25 24 20 23 26 22 23 26 27 18 21 27 32 14 28 27 19 23 18 20 16 11 9 4 3 5 6 6 6 7 7 7 11 16 16 14 15 17 17 16 14 18
27 24 28 28 32 26 25 18 15 9 30 26 31 18 35 24 27 32 24 26 19 26 24 18 14 12 8 8 8 8 6 6 4 5 13 20 23 21 16 16 16 14 16 16
33 30 31 30 25 21 23 19 13 22 18 26 33 16 19 24 30 31 27 27 24 27 28 19 18 16 13 12 10 8 7 5 2 8 14 20 24 25 21 16 11 13 16 16
27 25 30 28 23 24 18 17 17 19 23 12 15 23 16 36 35 31 30 31 30 28 29 26 18 18 18 14 12 10 6 3 2 7 10 16 22 27 26 21 17 15 17 19
31 34 29 26 28 26 19 20 12 4 7 10 28 29 23 30 28 23 33 34 32 32 30 29 25 24 24 24 15 11 9 6 4 4 7 13 19 25 28 27 22 20 21 23
30 32 33 26 30 29 26 27 10 7 4 17 27 23 20 23 24 16 22 28 24 38 35 32 28 26 27 29 28 19 13 10 10 10 10 13 18 24 28 30 29 25 23 25
29 33 26 29 28 28 31 32 22 25 23 16 12 26 24 16 18 22 26 22 23 40 37 33 30 30 32 34 30 29 24 23 19 16 14 14 16 22 28 31 32 32 26 24
31 28 33 28 24 32 30 31 23 25 2 6 12 11 5 26 27 25 22 21 21 25 40 36 30 30 33 38 36 33 31 29 28 27 19 17 15 18 24 28 33 34 29 25
40 31 27 29 32 32 23 30 23 26 24 7 2 4 3 25 20 16 14 13 10 27 30 45 28 30 42 37 43 36 35 32 32 28 26 22 19 18 21 26 29 33 29 24
39 29 33 37 33 37 34 26 27 20 11 8 11 7 13 18 19 19 18 17 18 19 17 23 29 25 31 34 44 34 34 31 29 27 31 26 22 20 22 26 30 34 31 26
42 40 34 27 37 36 36 34 32 25 17 17 8 4 16 18 18 18 16 13 11 11 7 16 22 30 30 30 35 34 33 27 29 28 31 29 22 21 23 27 31 32 29 27
40 38 26 24 23 37 36 34 27 30 25 24 24 17 22 21 19 13 18 16 6 11 13 12 14 26 28 28 31 28 28 27 24 25 29 30 22 19 22 27 30 28 27 24
37 43 36 26 22 18 26 32 32 29 29 25 18 28 31 23 21 21 18 10 15 11 14 16 21 28 30 32 34 29 33 31 28 28 31 28 20 19 22 25 29 27 25 23
37 34 31 26 26 23 21 19 35 30 30 34 31 27 26 29 32 28 28 26 30 24 10 18 23 30 33 35 36 34 32 40 33 36 30 24 21 18 20 25 27 23 23 24
49 42 32 21 22 16 19 18 19 22 36 33 32 25 23 28 24 16 21 24 20 17 16 17 25 29 28 33 37 37 38 33 37 36 31 25 20 19 21 26 25 23 23 25
31 29 25 16 21 9 21 21 19 21 14 16 22 18 15 24 22 22 21 19 16 16 10 9 13 30 26 28 33 37 40 33 32 33 31 24 20 19 22 23 23 24 25 25
14 22 10 13 26 17 25 28 28 25 11 6 8 14 23 21 28 24 17 10 14 9 11 13 16 16 24 30 32 35 37 34 33 34 27 18 17 17 21 24 23 26 28 25
20 21 15 6 4 1 20 25 27 15 14 7 7 19 19 21 22 17 10 10 12 12 14 21 21 23 21 26 32 32 33 31 32 28 17 15 15 19 22 24 28 33 31 25
9 13 14 14 5 11 13 11 12 21 22 12 12 9 18 16 14 11 10 13 18 20 26 29 27 23 18 26 32 28 27 26 22 17 15 16 17 19 23 28 34 36 31 28
21 15 11 14 8 8 12 8 9 12 16 21 12 17 25 15 12 11 6 14 21 27 31 30 24 23 19 19 23 26 23 21 19 15 16 15 18 22 29 34 36 29 33 34
3 3 6 13 17 17 15 17 17 13 13 14 15 17 19 21 23 20 27 16 21 27 22 24 16 15 19 18 27 28 29 27 25 20 17 17 18 27 35 36 31 28 35 40
15 15 11 11 18 19 15 14 18 21 16 2 5 9 13 16 15 18 21 21 28 30 24 30 23 21 22 24 28 34 33 33 27 16 24 18 18 30 29 33 33 33 34 36
6 7 2 8 11 9 5 7 6 18 21 2 9 15 15 13 16 20 23 28 33 31 30 33 31 25 21 21 34 41 35 33 34 17 31 28 25 24 27 29 32 32 26 23
4 2 3 17 16 17 13 11 8 6 12 13 14 10 9 12 14 20 25 25 25 26 24 31 39 37 37 22 29 28 17 21 13 9 19 15 18 19 24 29 28 28 29 28

GFSCGP_700_spd_012.txt.gz
Wind_Speed
35 32 32 27 19 17 11 28 33 28 28 25 18 14 10 11 11 11 9 7 10 10 5 5 3 7 9 9 10 11 9 7 7 6 3 3 7 10 13 16 17 18 19 20
34 40 38 27 22 21 17 14 30 29 26 26 19 16 12 15 12 12 5 7 11 15 17 10 7 3 4 7 6 4 5 8 7 5 4 7 9 11 13 15 17 17 19 20
38 48 37 29 26 23 19 15 31 29 26 23 23 23 26 24 19 23 18 15 8 14 13 14 10 7 7 8 8 8 9 9 7 5 7 12 15 14 11 10 12 9 12 14
27 43 41 34 30 23 23 16 27 31 33 23 31 20 33 31 32 32 27 25 19 17 13 14 12 13 11 10 10 9 8 8 6 4 7 12 16 21 20 14 12 12 12 12
35 41 42 33 31 20 22 15 21 20 31 38 37 12 38 37 38 39 36 33 29 23 19 12 15 14 12 12 11 10 9 8 5 3 4 9 16 21 24 23 18 16 14 13
32 34 34 38 27 22 17 24 20 15 32 18 29 38 20 48 39 36 36 35 36 29 25 22 12 13 15 15 13 11 11 10 7 3 3 8 13 17 21 25 24 21 17 15
32 33 33 31 31 25 31 25 13 6 6 8 21 28 32 24 34 34 28 29 36 31 29 28 24 20 20 18 14 13 13 13 9 6 3 4 7 12 16 20 23 24 21 18
30 35 38 35 38 31 26 28 15 7 3 10 21 13 31 28 29 26 31 29 38 34 29 31 28 24 22 23 19 16 15 15 15 10 8 6 7 10 14 18 23 26 26 22
17 37 31 36 34 31 33 34 24 21 10 3 17 24 29 35 23 31 32 31 38 35 33 33 31 29 27 28 24 21 21 20 21 20 17 14 15 13 12 15 19 23 28 26
34 27 33 34 29 34 35 29 26 20 6 4 11 14 18 20 21 33 32 28 31 37 36 31 35 35 33 27 29 27 24 26 25 27 23 22 23 20 16 17 19 23 27 27
42 34 31 28 38 32 36 36 34 29 23 8 3 8 9 13 18 32 32 25 26 31 31 29 36 36 32 30 29 30 31 30 33 30 23 20 25 25 22 19 19 21 26 26
45 24 43 40 20 23 36 39 32 26 13 14 16 11 13 13 20 26 24 23 23 28 31 26 28 31 34 33 30 28 34 36 36 31 24 25 24 27 25 21 19 20 23 25
42 43 33 28 30 29 43 39 34 37 26 26 10 7 11 20 24 26 26 23 19 15 25 25 25 30 30 36 36 29 27 29 35 37 26 26 24 28 27 23 19 21 23 23
45 45 41 33 29 22 40 41 36 34 32 30 24 14 22 26 24 24 25 23 23 21 13 12 12 22 22 24 29 28 28 27 29 35 29 26 23 24 26 23 19 20 21 21
52 45 42 34 32 31 30 44 43 41 35 30 32 20 28 30 29 28 29 27 24 25 24 21 19 23 24 30 28 27 30 29 29 31 31 27 23 22 26 21 17 19 21 20
56 46 43 42 40 27 21 26 45 38 26 20 23 23 25 28 30 29 30 28 25 26 23 17 18 23 28 30 32 32 29 28 30 31 32 31 27 23 26 18 15 19 18 16
40 50 36 40 42 28 14 23 7 27 22 24 24 23 26 33 35 33 30 29 28 23 23 20 23 24 26 32 33 35 35 32 32 33 33 34 31 24 24 17 15 16 13 16
21 47 42 32 30 7 11 19 25 9 15 15 17 29 31 34 33 35 32 26 20 21 22 21 19 16 19 28 35 29 32 35 34 34 32 32 29 22 18 15 16 13 16 18
10 33 26 20 32 18 17 13 16 21 11 13 14 15 22 26 31 36 27 21 19 21 16 15 11 15 18 20 22 26 26 28 32 33 32 30 24 22 15 14 16 16 19 21
3 13 27 20 14 6 6 11 14 10 7 3 4 15 24 28 30 30 28 26 18 13 12 13 16 20 20 17 18 21 20 24 28 29 27 22 20 19 13 12 18 18 22 23
10 8 5 13 5 6 7 12 13 7 9 6 7 18 16 10 14 20 20 18 18 18 18 18 23 23 23 24 19 18 18 22 22 24 22 16 16 15 12 18 18 20 22 23
2 6 9 3 4 5 6 7 12 16 8 12 11 19 23 21 22 22 21 18 18 16 21 23 20 25 30 31 27 18 23 23 26 23 19 19 17 19 22 16 19 25 23 31
4 3 3 5 10 15 16 23 25 23 22 22 24 26 23 22 22 21 20 20 22 30 19 22 28 31 29 25 23 23 21 20 29 27 28 30 26 31 31 18 20 29 30 32
5 11 14 15 9 13 18 22 23 22 24 20 17 19 21 25 26 24 25 26 22 24 28 32 30 26 27 23 22 24 20 25 27 24 32 24 35 26 40 16 24 26 31 31
11 16 24 30 25 13 12 16 20 17 17 16 14 19 19 12 10 13 13 19 25 32 32 28 22 22 22 22 21 24 29 36 30 31 30 29 5 16 28 34 39 29 30 30
18 15 18 25 28 28 24 18 20 21 17 9 10 9 16 26 33 25 26 26 28 30 28 21 18 21 24 23 24 32 31 28 28 34 29 19 4 17 24 24 27 27 27 24

GFSCGP_700_spd_015.txt.gz
Wind_Speed
36 37 39 31 20 11 38 36 36 26 26 26 21 16 8 11 12 14 16 15 13 12 9 7 8 6 7 11 10 10 8 10 7 5 6 4 5 9 12 15 17 17 14 17
37 42 38 28 23 17 21 14 40 28 27 29 23 18 13 11 8 10 11 10 10 10 9 8 7 9 8 10 9 10 9 9 8 6 3 4 7 7 8 10 12 14 15 17
42 44 37 33 29 25 18 17 13 29 28 28 19 20 22 20 15 16 15 10 9 7 7 10 10 8 8 9 10 9 10 12 12 9 7 8 10 12 10 9 10 11 10 12
35 45 37 35 34 29 23 19 12 26 31 28 29 16 28 27 26 24 22 21 20 15 11 9 10 11 10 11 12 11 10 10 11 8 8 8 10 15 18 17 15 13 10 8
32 46 46 40 40 33 26 20 17 11 30 34 34 14 26 31 31 29 28 24 25 21 18 11 11 10 10 13 10 11 12 12 10 8 6 6 7 10 14 19 21 19 16 13
36 25 47 48 42 32 25 21 18 23 28 18 36 34 27 32 27 25 30 27 25 27 24 20 12 10 12 13 14 11 11 11 10 8 5 3 5 5 9 14 19 21 21 15
33 37 36 37 49 36 32 23 5 3 3 6 35 31 32 25 27 23 25 17 13 26 26 24 25 20 15 17 15 15 11 10 10 9 6 3 3 5 8 10 15 18 20 23
27 28 42 38 38 36 35 31 16 7 5 9 15 18 45 34 30 25 25 26 20 16 27 24 24 25 22 17 16 15 13 11 11 14 11 10 9 8 8 9 12 15 18 21
31 27 35 42 36 34 34 32 27 29 12 5 13 12 22 23 16 20 32 32 34 20 20 17 22 25 27 23 21 20 19 18 18 18 19 17 17 16 13 11 13 15 17 18
26 14 36 37 32 34 36 29 16 16 6 5 7 11 14 20 24 32 24 32 29 25 22 21 24 30 26 25 25 24 24 25 24 22 25 24 22 23 20 18 16 17 20 19
44 32 26 28 38 37 31 34 32 23 21 7 4 17 27 23 26 22 21 21 30 24 25 21 19 23 22 24 28 30 28 29 30 29 31 31 25 19 24 25 20 19 20 20
46 39 41 38 29 27 32 34 33 30 12 11 18 26 20 21 19 11 16 22 28 21 20 19 24 25 21 23 30 30 33 30 32 35 36 39 31 20 21 27 23 23 21 21
48 43 35 37 39 35 33 31 28 34 36 33 14 18 20 14 15 17 20 25 25 22 24 24 23 22 24 23 25 29 32 35 32 34 39 42 38 22 20 24 24 24 21 17
47 46 45 33 34 30 28 33 29 30 36 28 34 32 25 20 19 19 24 27 23 25 23 24 24 23 21 19 22 25 29 29 26 38 36 43 36 27 21 20 24 24 19 18
46 43 45 49 49 34 26 27 25 31 44 33 38 35 32 24 23 22 25 31 29 24 23 23 21 21 17 14 23 28 28 27 26 34 38 38 35 32 21 16 20 24 17 15
40 49 46 47 44 46 43 35 37 39 44 44 39 32 30 27 26 28 28 27 29 28 24 23 20 16 15 16 21 25 26 29 32 34 39 45 52 30 25 23 27 23 15 16
11 49 43 40 45 34 32 40 28 28 38 42 33 29 15 24 29 28 30 30 28 29 27 25 22 19 14 16 20 23 28 32 33 34 40 49 46 38 21 19 28 22 15 10
12 29 47 41 32 9 32 41 28 24 23 23 18 19 20 19 26 28 33 30 32 30 27 23 23 16 12 12 14 16 18 25 30 35 37 41 58 28 22 16 24 17 18 14
16 14 31 32 29 12 19 25 25 21 19 10 7 12 17 22 27 35 35 33 32 28 22 22 23 16 15 13 13 14 17 19 24 30 28 27 25 22 23 18 22 16 15 17
4 9 33 26 19 6 16 19 27 23 17 23 22 14 13 14 25 36 39 33 27 22 20 20 20 19 17 15 18 19 21 18 22 22 24 23 21 23 23 16 20 20 18 24
3 5 14 16 8 8 21 17 18 11 12 15 27 28 21 18 22 33 28 26 21 22 24 21 22 21 19 22 30 30 21 20 20 25 25 25 25 25 27 24 23 28 27 24
3 4 7 3 7 3 11 21 21 17 23 14 17 21 19 21 24 29 28 27 26 26 24 20 18 20 21 23 29 19 20 21 21 23 23 22 28 31 33 26 36 32 25 30
2 2 6 3 21 25 20 24 23 20 21 18 16 21 22 26 29 31 32 32 27 21 22 22 26 31 35 31 24 19 23 23 21 17 18 26 25 29 30 29 28 35 41 18
10 5 17 15 26 31 33 32 30 26 23 25 24 27 30 32 32 30 22 18 19 18 19 23 27 29 31 26 20 24 26 25 20 19 23 25 23 31 22 23 21 24 33 24
18 15 17 17 26 21 14 17 20 20 19 22 22 15 19 22 24 24 15 11 16 16 19 22 27 28 20 16 22 23 24 22 21 24 27 24 28 27 38 39 28 24 28 30
19 24 25 21 17 11 12 16 10 12 14 17 19 16 15 21 20 16 24 31 31 40 35 34 26 17 12 15 17 20 25 28 23 18 22 16 11 17 21 20 22 21 21 24

GFSCGP_700_spd_018.txt.gz
Wind_Speed
36 38 41 34 22 20 29 30 37 37 24 30 26 17 13 8 10 16 20 21 20 20 17 18 16 16 14 12 11 9 8 10 8 8 6 3 4 7 9 10 12 12 12 13
36 42 39 31 25 20 29 34 38 34 18 30 24 20 15 15 7 5 7 10 10 12 18 18 18 16 13 8 9 9 9 10 10 7 5 4 4 4 5 6 6 7 9 10
38 41 36 33 29 23 25 39 36 34 35 22 25 24 22 21 16 14 15 12 12 10 10 13 15 13 11 8 7 9 9 9 10 10 9 8 8 8 8 7 6 6 6 4
30 36 35 35 32 27 33 29 25 23 26 30 28 9 30 27 25 22 21 20 20 18 14 13 11 11 11 11 11 11 11 13 13 11 10 9 9 10 12 14 15 14 11 9
24 37 27 37 37 31 27 34 25 18 27 25 25 18 27 29 30 27 25 25 22 19 17 15 13 10 9 12 12 14 13 13 13 12 12 10 8 7 7 10 14 15 17 15
27 20 30 32 36 33 28 23 17 14 25 13 31 32 35 35 30 24 24 25 22 23 22 18 13 15 14 13 14 14 11 11 12 11 11 10 7 4 2 3 7 10 13 17
26 32 19 24 34 27 30 22 5 3 5 6 28 24 36 29 29 27 23 21 20 22 25 25 24 18 17 17 14 13 12 10 8 8 11 9 7 6 3 2 4 6 10 13
26 21 39 25 27 40 30 31 13 7 6 7 16 19 45 23 25 26 23 23 22 24 21 27 27 25 21 13 15 15 14 14 15 13 11 13 14 12 11 8 7 8 10 12
24 22 33 40 29 29 27 29 28 23 7 3 8 22 31 29 24 23 26 30 21 24 22 22 25 27 26 24 20 18 15 16 15 14 17 14 17 20 17 16 14 14 13 13
30 14 29 37 41 33 30 26 18 12 5 4 7 11 25 22 16 18 20 20 26 25 26 23 20 21 23 24 25 26 24 22 21 21 22 22 25 23 25 20 21 19 18 16
39 29 11 32 42 44 34 30 26 13 13 7 4 11 21 19 23 22 21 22 15 14 25 17 19 18 17 17 22 26 28 27 27 26 30 30 29 31 28 19 22 23 22 19
25 40 38 33 22 43 42 39 33 29 12 9 15 23 9 13 15 17 12 13 16 13 21 17 17 20 19 19 20 23 27 30 30 33 35 35 38 37 37 22 21 25 24 21
13 21 31 34 42 37 31 41 40 33 28 29 17 22 23 25 28 22 15 14 17 17 22 20 20 22 22 23 23 21 23 28 34 36 38 40 42 44 39 39 25 22 24 23
16 27 32 36 37 33 35 34 29 28 28 28 35 32 26 29 21 17 17 18 20 23 25 21 18 18 20 22 22 23 22 24 25 27 35 43 45 49 42 44 31 20 22 24
14 27 40 46 43 38 30 35 32 34 33 28 31 32 34 31 29 25 20 22 23 24 24 23 20 24 25 23 23 20 15 19 24 28 30 38 48 50 51 43 30 27 29 25
11 21 34 45 42 45 38 29 31 31 30 25 25 33 34 37 35 32 23 23 23 22 19 20 21 22 22 23 20 15 17 18 21 24 28 37 45 46 53 51 49 37 36 26
12 15 32 39 42 43 39 46 43 37 32 27 27 34 38 40 34 29 26 26 27 22 22 24 23 20 19 22 20 19 21 19 21 24 27 30 31 31 36 37 29 29 33 24
21 15 25 28 31 6 36 45 38 37 37 36 33 27 32 32 32 26 22 25 25 23 22 27 25 21 20 19 19 14 10 10 15 20 22 22 23 24 28 26 19 22 30 30
23 25 21 29 19 11 26 25 29 32 32 32 30 25 27 28 22 21 22 24 29 30 31 27 24 21 21 19 14 9 10 12 16 18 20 21 25 20 21 18 18 22 32 30
13 20 24 22 13 9 21 27 28 28 30 27 24 20 16 18 22 21 24 30 34 35 29 25 23 23 21 18 15 11 16 22 22 20 20 26 27 27 23 21 20 22 32 37
14 6 15 10 10 9 22 25 25 22 17 27 22 19 18 15 15 15 16 34 31 29 27 24 22 21 18 15 12 9 11 15 18 28 25 27 28 27 23 24 23 27 33 33
16 10 2 5 4 4 17 25 24 23 20 23 22 14 15 20 20 17 16 22 31 30 30 27 23 19 14 9 12 17 31 19 23 27 25 20 17 15 19 25 25 28 31 26
26 17 2 3 8 13 16 20 28 26 22 24 15 14 15 20 24 24 27 36 35 32 28 26 25 23 21 28 37 27 29 29 23 27 26 19 13 19 22 24 24 28 29 20
28 22 18 18 24 32 36 35 31 27 25 26 25 23 22 25 26 28 29 28 28 27 27 26 28 30 21 19 21 22 20 21 23 26 25 19 21 20 19 24 24 26 29 33
26 21 17 18 24 25 27 24 24 24 28 27 24 25 24 20 17 20 19 12 12 16 15 19 24 30 34 32 27 22 19 20 19 22 23 22 23 19 20 25 31 32 35 37
27 25 28 27 25 17 17 12 12 15 19 22 18 10 11 10 8 5 11 16 25 33 34 43 35 35 38 31 31 31 19 18 19 22 21 19 20 23 20 21 29 35 38 40

GFSCGP_700_spd_021.txt.gz
Wind_Speed
35 37 39 35 31 23 21 25 25 27 23 26 26 26 24 12 16 20 25 24 22 21 16 18 18 19 18 17 14 11 11 10 11 10 9 9 8 8 9 11 11 12 13 15
32 37 38 31 28 24 25 24 24 22 23 17 24 27 24 20 13 11 16 21 24 23 25 27 26 24 22 18 15 14 12 12 12 11 8 7 6 4 4 3 4 6 7 8
31 28 34 34 33 29 27 27 25 23 26 25 13 22 30 26 20 17 14 13 18 20 24 28 29 27 23 21 17 14 13 12 13 14 12 9 6 5 5 6 5 4 4 3
26 32 31 35 38 33 27 27 28 25 20 23 22 20 20 26 27 23 18 18 16 16 17 18 18 19 21 19 17 15 14 14 16 16 14 12 10 10 11 12 12 12 12 11
21 30 33 35 38 36 26 26 25 28 26 20 17 13 25 24 25 27 24 22 20 17 16 15 15 15 14 18 17 16 16 17 17 16 15 13 11 9 9 9 8 9 11 13
24 19 23 31 36 35 25 23 22 20 20 14 24 23 24 26 25 25 30 28 24 22 20 19 16 18 18 18 17 17 18 18 17 16 15 13 11 9 8 5 3 4 5 8
24 29 18 25 30 35 30 23 12 10 9 10 21 19 32 20 22 19 20 25 23 25 26 23 24 25 23 20 19 18 17 17 17 15 12 10 10 10 9 7 3 2 2 5
28 24 34 21 33 34 41 33 21 17 10 13 21 16 31 26 23 23 21 21 19 22 23 29 29 24 22 22 21 19 18 17 17 15 11 12 8 8 12 11 9 7 9 10
25 30 23 27 28 34 33 37 34 18 10 12 15 18 29 22 16 19 20 20 21 23 21 21 27 29 29 22 19 20 20 21 19 19 22 18 12 12 16 13 14 16 15 17
23 12 29 27 29 31 35 36 25 24 17 15 12 9 14 15 18 15 17 16 19 19 24 26 24 28 30 28 21 21 24 19 19 21 21 23 23 21 23 22 19 18 23 20
28 24 13 30 36 36 28 24 23 23 25 15 15 22 22 23 21 18 21 24 20 24 20 25 27 25 25 26 28 27 27 26 25 24 23 25 25 29 33 25 27 23 22 22
35 25 28 23 23 27 40 32 34 26 19 19 23 27 10 13 19 17 19 21 18 22 14 18 25 24 24 25 24 24 24 26 24 25 29 29 32 38 36 39 33 29 26 24
25 20 20 24 29 29 26 33 38 34 32 32 22 23 20 19 18 18 20 23 16 14 15 20 23 26 27 25 23 22 20 19 20 27 29 33 35 41 46 43 38 35 32 35
14 14 21 28 33 30 30 23 31 34 33 30 33 32 27 29 26 21 19 19 19 16 18 21 23 18 22 25 24 23 21 21 20 20 23 32 36 41 45 50 49 49 42 36
14 21 22 30 31 33 34 34 31 30 39 36 36 38 35 30 28 25 22 20 21 22 24 23 23 18 19 21 23 22 21 22 18 18 22 25 27 38 47 52 54 49 43 25
20 18 21 31 35 35 39 38 36 34 36 37 36 37 34 31 29 27 26 30 27 26 26 25 23 24 19 22 22 21 22 19 18 19 22 23 24 24 30 38 47 43 42 37
20 17 10 14 24 30 35 39 36 36 36 40 38 39 31 30 32 36 35 33 32 28 25 27 28 24 24 22 23 25 23 23 24 25 23 22 24 25 26 30 31 33 31 28
20 16 6 6 6 10 28 38 39 38 40 35 35 31 30 29 32 35 35 34 32 30 29 29 26 25 27 27 27 28 30 29 26 17 11 13 19 23 28 30 28 27 27 23
27 25 8 4 11 13 20 23 31 39 44 45 41 37 31 30 33 33 30 28 28 31 31 29 28 27 29 29 31 32 31 24 16 13 13 14 17 24 29 24 24 24 23 24
22 13 14 6 7 6 20 21 27 26 33 36 35 32 31 29 31 26 26 29 30 31 32 33 35 29 32 32 33 31 26 23 17 10 9 13 19 20 22 22 21 20 22 25
22 20 17 5 7 14 21 24 26 19 21 29 32 30 26 27 28 28 30 32 31 32 32 35 35 32 31 31 32 30 28 21 13 17 24 31 29 23 21 19 16 18 20 23
22 18 12 9 9 16 12 20 21 25 25 26 31 33 29 25 22 23 25 25 28 27 28 28 30 32 31 32 32 29 23 20 22 27 35 31 28 22 19 13 15 19 21 22
21 22 18 6 11 20 10 17 18 19 22 26 25 23 27 20 19 19 21 22 26 29 30 31 32 31 27 23 19 16 16 23 26 34 27 27 25 20 20 18 19 20 20 23
25 24 27 15 7 18 29 31 33 31 30 29 27 25 20 21 24 26 28 30 29 28 28 27 24 19 12 11 16 25 29 18 15 22 26 25 21 16 18 20 17 17 17 21
24 27 28 20 21 15 22 28 28 27 26 28 27 29 30 29 30 31 26 23 19 17 14 13 13 13 14 19 24 25 17 22 36 27 22 17 17 19 17 16 17 17 18 23
28 28 32 30 30 27 23 20 14 16 19 21 18 14 16 18 25 30 27 21 15 14 14 15 20 22 30 25 22 19 19 24 21 19 18 18 16 14 12 12 13 15 19 24

GFSCGP_700_spd_024.txt.gz
Wind_Speed
29 32 38 35 32 27 21 19 19 19 14 18 17 16 16 12 15 20 22 24 24 22 19 19 19 20 20 19 18 16 15 14 14 14 12 10 11 12 13 13 14 16 16 16
28 38 33 30 30 29 23 23 22 17 15 17 15 18 18 19 18 18 22 25 27 24 24 25 24 24 24 22 19 18 16 17 14 16 15 13 12 9 8 9 10 12 13 13
29 32 29 31 31 31 29 26 25 21 16 17 13 18 19 21 20 19 21 23 26 27 28 29 29 29 28 26 24 21 18 15 16 16 15 13 10 8 7 6 6 5 4 5
27 29 33 30 33 33 32 28 24 23 19 19 17 18 16 16 21 22 20 23 25 24 27 29 31 33 33 30 25 23 20 18 17 18 16 14 12 11 9 8 8 9 9 9
31 33 30 35 36 33 35 25 25 25 26 23 17 15 19 15 19 22 21 22 22 23 22 21 21 20 22 23 24 23 22 21 20 19 18 17 15 13 11 9 9 9 7 5
30 23 30 32 31 33 29 22 21 25 27 29 30 21 21 21 20 18 19 23 21 21 21 18 16 18 20 22 24 25 23 22 21 20 19 17 14 12 10 7 5 4 3 3
30 32 27 26 32 33 32 29 21 19 20 16 31 28 28 13 19 16 14 19 23 23 25 24 22 23 23 23 24 25 24 23 22 22 20 17 13 12 11 11 9 8 7 5
34 34 36 27 39 40 41 41 27 25 16 17 29 24 34 27 25 21 20 17 19 16 20 23 27 26 25 23 25 25 24 23 22 21 18 17 13 13 16 17 14 13 11 10
32 39 32 37 30 40 41 47 40 33 30 25 30 28 30 25 25 21 17 18 16 19 18 19 23 31 29 26 25 25 24 24 22 22 21 20 18 19 20 18 17 17 16 16
24 25 32 30 30 37 43 42 41 43 25 23 30 30 24 20 22 20 17 16 17 17 20 21 24 25 33 32 22 26 25 25 24 26 25 24 24 23 23 22 22 22 22 21
33 24 25 32 42 41 40 37 47 41 41 17 18 29 27 22 17 15 15 15 16 18 20 19 25 26 26 36 31 26 26 29 29 25 22 25 28 30 30 28 27 24 27 32
37 26 27 32 37 38 40 40 42 39 36 40 40 31 28 29 26 26 24 20 20 21 22 25 24 27 30 32 35 34 29 32 29 25 24 26 28 31 33 36 36 33 35 37
32 38 25 27 25 34 45 41 43 45 41 44 31 35 31 17 19 15 21 20 17 19 23 22 22 29 34 30 32 32 32 33 29 30 29 31 32 33 32 38 43 50 39 38
21 30 38 31 38 33 33 42 44 44 43 40 45 34 37 35 30 26 22 20 22 21 20 15 21 26 30 30 29 29 28 28 26 25 26 29 30 31 34 38 40 43 45 45
23 28 28 36 31 32 35 36 38 46 50 47 43 46 38 38 29 29 27 22 22 25 22 19 21 26 28 29 29 29 29 27 27 26 26 24 21 20 30 39 44 41 38 39
23 24 26 30 33 33 33 36 39 41 43 46 49 48 39 38 40 35 32 31 30 31 21 20 20 25 25 23 27 30 30 29 27 26 23 23 24 24 28 27 28 34 33 35
26 28 26 28 30 31 37 39 39 42 45 44 48 47 43 46 39 40 38 35 34 29 29 27 26 24 26 25 28 29 28 28 28 29 29 28 26 27 27 25 27 28 28 28
23 25 30 27 26 22 34 34 37 40 42 44 44 38 39 40 40 38 37 35 38 38 33 33 30 30 31 30 29 28 28 30 32 33 31 29 27 18 15 16 20 25 27 26
26 22 27 27 28 21 21 21 23 35 40 38 41 38 35 31 30 36 38 40 38 37 39 37 37 34 33 34 31 31 33 35 35 34 31 25 17 11 14 16 24 26 27 27
29 28 28 21 26 18 6 17 22 26 27 35 35 36 35 34 34 34 32 36 36 38 34 37 37 35 38 35 33 36 37 36 36 31 21 17 12 15 18 29 31 24 26 25
29 30 34 33 23 21 17 15 12 11 16 25 32 39 39 37 35 36 37 37 38 39 35 33 38 37 38 36 36 38 36 35 33 25 22 18 14 16 26 36 25 25 23 20
36 32 28 25 22 21 15 13 9 18 25 23 31 37 37 38 38 40 40 39 39 39 37 38 39 35 36 36 35 36 35 34 28 24 21 18 21 27 26 29 25 24 22 20
32 32 30 22 20 21 15 15 16 19 28 17 19 27 31 33 34 36 36 35 33 31 30 31 27 24 28 31 31 30 33 29 27 23 21 20 22 21 28 28 25 23 22 23
20 23 17 24 23 22 19 20 23 24 13 14 14 15 18 23 26 25 25 27 27 26 26 28 29 31 32 31 30 29 24 23 22 23 25 26 27 29 30 24 23 23 24 22
19 20 14 11 15 13 16 17 25 26 22 19 20 23 23 30 33 31 31 30 29 28 30 31 30 30 28 25 22 19 16 14 13 20 23 25 26 24 24 25 25 24 21 20
21 22 15 15 23 20 25 32 28 25 20 20 23 26 27 26 28 27 30 29 28 29 27 27 26 21 20 20 21 23 26 25 28 34 32 25 24 25 25 25 24 21 20 19

GFSCGP_700_spd_027.txt.gz
Wind_Speed
29 33 42 37 35 28 25 23 15 21 20 21 19 15 14 13 16 17 20 23 24 24 22 22 21 22 22 22 20 18 17 16 16 16 15 15 14 14 14 14 6 18 17 16
26 39 36 33 32 32 29 27 22 17 19 24 20 20 18 17 17 19 21 23 25 25 25 25 25 25 24 23 21 19 18 18 17 16 16 15 13 10 11 12 14 14 14 14
35 34 35 35 35 34 33 31 23 22 21 19 21 23 22 21 19 19 21 23 24 27 27 28 28 28 27 27 24 22 20 19 18 17 17 17 15 13 13 12 8 8 9 8
33 27 35 37 39 36 36 29 24 24 25 22 25 23 28 25 24 23 22 23 25 26 29 28 29 30 30 29 28 24 22 22 20 19 18 16 15 12 8 5 7 3 3 4
36 33 36 42 41 38 37 32 29 27 25 31 28 30 22 25 28 25 23 23 24 25 27 29 30 30 29 30 29 27 25 23 22 21 20 18 17 12 11 10 10 10 8 6
33 29 35 35 38 38 34 32 32 32 32 25 28 29 30 24 26 22 23 21 23 24 26 26 27 29 30 29 28 27 25 23 23 22 21 20 17 15 15 14 13 11 9 7
31 37 32 32 36 39 38 36 30 23 24 20 34 33 29 22 20 24 23 22 22 24 26 28 28 29 28 25 25 25 25 25 26 23 21 20 19 18 16 14 13 11 9 9
35 32 41 37 41 41 45 45 37 26 18 23 37 36 38 28 15 17 18 19 20 24 26 28 27 28 27 22 23 25 27 26 26 22 20 22 19 19 15 13 13 14 14 14
33 37 27 40 38 40 44 51 44 39 36 31 34 35 29 17 30 26 22 20 22 21 24 28 30 26 25 25 21 22 25 27 26 23 23 24 19 17 14 15 18 20 19 18
34 26 31 32 34 38 50 44 45 47 28 26 35 34 31 30 27 25 26 23 22 22 24 26 30 30 27 26 24 23 25 27 27 26 25 24 23 20 19 21 18 22 22 22
38 31 24 32 44 47 41 52 48 46 47 21 19 30 33 24 23 28 28 24 21 23 23 24 29 32 30 26 27 29 27 29 31 29 27 26 25 24 24 22 22 27 26 26
39 35 32 31 38 35 42 45 49 41 40 43 43 34 28 26 22 19 24 22 19 19 22 25 24 29 33 32 30 30 31 31 33 29 29 28 29 29 27 29 30 31 34 33
36 43 33 31 31 41 43 48 50 53 44 45 33 38 32 16 23 25 27 22 21 18 20 20 19 25 33 38 33 32 35 33 30 33 31 30 31 29 26 25 31 34 36 36
27 38 47 33 39 31 41 43 46 49 52 38 50 42 36 36 23 22 20 20 19 19 17 19 19 24 35 34 32 32 34 36 32 35 34 32 31 28 27 29 29 34 36 36
26 34 40 42 35 29 33 41 42 50 49 47 44 49 44 37 34 31 28 28 24 22 18 20 17 18 24 29 32 30 32 34 39 34 36 33 30 28 28 27 28 32 35 37
33 34 33 35 36 35 34 35 37 42 47 47 48 48 43 43 36 29 31 30 27 24 21 23 25 21 21 29 32 30 30 33 35 34 33 31 28 27 24 27 29 30 29 30
36 36 33 34 32 30 38 38 39 40 39 44 50 48 40 39 37 40 39 36 32 31 27 24 29 24 19 28 34 30 31 31 33 33 31 32 30 28 28 26 25 24 21 21
32 34 33 31 31 27 37 35 37 37 36 38 40 40 42 45 48 43 36 34 40 38 34 31 30 34 27 21 36 35 34 33 32 32 34 36 34 32 27 24 15 14 15 21
35 33 36 31 34 27 32 30 34 38 41 38 39 38 39 40 39 44 51 51 48 42 38 31 31 30 33 29 31 37 35 35 35 38 38 37 34 31 27 20 13 12 17 19
32 32 36 38 34 28 34 15 23 17 21 21 22 29 36 35 41 45 38 41 39 38 39 36 33 29 40 36 30 39 37 38 38 37 34 35 33 28 22 20 20 18 20 19
42 39 41 36 31 35 13 19 12 18 17 21 28 31 27 30 39 34 31 31 36 38 46 44 44 39 42 41 34 38 39 37 38 36 35 32 29 28 28 21 19 20 23 23
44 45 42 40 38 18 16 10 19 24 17 19 22 25 34 33 28 31 33 32 34 37 37 35 38 42 42 41 35 38 38 36 37 34 32 31 32 30 26 22 16 18 22 27
48 49 41 35 49 26 18 26 19 24 28 28 26 23 27 34 21 21 33 40 44 45 42 43 43 41 40 36 35 37 37 34 34 34 33 31 29 27 17 20 22 23 28 28
39 39 42 20 16 19 24 20 16 17 21 20 6 10 18 13 13 21 25 24 21 33 38 35 38 36 34 33 33 32 34 35 34 32 30 23 19 21 21 21 25 28 27 27
14 21 41 25 22 16 11 20 21 25 20 8 13 12 14 16 14 14 18 20 17 14 18 23 28 29 31 34 35 34 33 30 27 22 17 15 20 23 25 31 40 35 28 28
26 17 17 23 15 11 16 20 20 16 19 16 14 21 19 20 20 20 25 28 27 29 26 26 28 30 32 33 32 29 25 20 17 17 17 18 23 27 27 30 27 27 28 28

GFSCGP_700_spd_033.txt.gz
Wind_Speed
23 27 38 33 32 29 26 28 28 19 25 18 24 27 26 23 29 31 28 24 24 26 24 28 25 23 22 20 17 16 15 12 10 11 10 10 11 11 10 11 11 11 10 11
26 39 32 29 28 30 31 33 34 16 29 27 27 23 29 16 37 38 36 27 27 25 27 28 30 26 24 20 18 17 15 16 12 10 10 11 13 12 13 13 12 11 11 11
36 22 29 29 30 34 36 36 35 20 15 15 21 31 37 23 31 37 39 31 27 22 27 31 30 31 28 26 22 19 17 17 15 13 12 13 14 15 14 16 10 5 6 4
35 30 30 29 37 35 40 36 32 22 25 27 25 16 42 29 36 38 39 37 30 27 26 26 31 31 30 30 27 24 21 20 18 17 14 13 14 12 9 9 8 8 6 3
43 31 34 39 33 35 45 35 35 33 25 34 27 9 22 36 42 40 40 37 32 27 26 24 25 25 25 22 23 24 24 23 21 20 17 14 13 13 11 12 8 6 7 5
35 33 34 34 32 34 35 35 38 36 33 16 29 19 27 28 33 41 37 34 34 31 29 28 23 19 24 21 18 15 21 25 25 23 19 16 14 15 16 14 11 10 8 7
38 39 33 31 33 35 32 38 27 17 18 6 31 35 32 27 34 38 41 36 31 30 31 32 30 25 19 18 13 12 13 18 24 24 20 17 17 18 17 15 12 11 10 8
34 34 40 35 42 37 43 40 30 10 11 12 24 21 40 37 26 29 40 34 31 33 32 34 34 30 24 16 14 11 9 12 20 22 20 19 20 21 19 17 13 13 12 12
30 44 26 39 34 39 33 48 43 31 33 18 27 33 39 31 35 33 43 42 29 39 40 36 36 37 27 25 15 12 9 10 16 20 20 22 22 21 19 18 17 16 14 14
43 27 38 36 34 38 44 29 38 42 15 18 25 31 32 32 42 42 44 29 23 43 45 47 41 34 29 25 19 15 14 13 14 19 21 23 22 21 20 19 19 17 17 15
46 45 34 31 41 43 38 45 43 29 40 9 8 29 34 21 35 47 42 38 29 24 42 43 34 32 37 27 22 20 18 18 19 21 22 24 24 23 22 20 19 18 19 18
47 41 44 50 31 41 45 41 46 34 13 28 32 36 21 26 26 40 38 38 23 24 24 45 42 37 35 21 19 21 20 22 21 21 23 26 26 26 25 20 18 19 18 16
44 53 33 37 48 43 51 49 42 46 34 38 14 30 50 41 30 21 29 24 24 27 33 37 42 44 34 24 17 20 21 19 23 26 24 28 30 28 26 23 20 20 22 22
33 52 59 36 43 33 28 49 46 44 46 35 53 37 28 41 23 21 29 37 29 20 33 32 29 44 39 28 21 21 18 16 14 25 28 28 30 31 26 25 26 23 20 23
28 33 50 58 45 32 46 30 50 52 49 44 37 47 45 40 29 24 31 27 33 24 30 28 26 33 38 32 25 24 21 21 19 17 27 28 26 29 31 29 26 27 27 25
25 24 40 41 43 54 41 39 45 49 51 50 46 41 30 39 34 29 26 22 24 23 29 23 26 26 30 35 34 33 26 21 25 24 25 29 29 28 31 33 30 28 30 29
29 15 24 30 33 21 30 60 46 35 41 46 48 44 46 40 39 26 33 34 28 35 22 26 24 23 20 25 20 20 20 21 24 27 25 27 29 31 29 30 33 31 29 29
28 23 21 21 24 12 27 25 45 41 32 27 46 43 39 36 46 29 23 29 28 28 39 39 28 25 30 27 19 15 16 20 23 25 28 28 27 32 33 31 32 35 33 33
23 27 19 21 27 20 29 23 21 30 37 33 25 24 36 30 30 36 35 21 22 34 14 35 28 29 30 33 31 20 19 19 21 24 31 31 29 32 35 36 35 34 34 33
26 30 30 20 17 20 26 30 23 15 24 32 35 30 26 32 32 30 37 32 26 25 33 32 35 37 22 31 38 31 26 24 25 25 27 34 33 32 34 37 36 36 33 34
21 28 28 21 22 21 12 34 28 24 24 23 24 20 23 24 27 27 23 28 28 27 32 37 38 42 38 29 29 35 39 34 26 28 28 35 38 37 37 37 37 37 34 32
7 5 18 33 17 7 33 24 25 17 19 18 30 27 25 25 24 25 27 27 26 25 27 34 36 43 35 40 41 34 37 39 35 36 33 33 42 42 41 40 41 34 33 28
14 13 9 12 12 7 12 23 22 21 21 21 15 16 21 25 23 24 26 30 33 35 30 27 31 33 36 35 37 38 46 39 38 40 35 35 40 48 48 46 34 33 30 26
31 17 20 16 14 12 10 14 13 19 16 16 16 18 21 20 18 18 20 21 23 25 25 29 31 31 31 33 34 35 31 33 36 41 39 38 39 46 47 38 32 29 28 21
20 20 18 15 14 6 13 15 19 24 15 17 18 19 24 22 22 20 18 17 23 26 24 28 30 32 33 32 30 32 30 31 38 44 43 37 37 38 35 31 30 21 15 13
4 3 7 9 13 17 13 13 17 24 26 25 23 22 20 20 23 21 20 22 27 24 24 27 31 36 37 33 33 31 30 32 32 33 32 31 29 26 26 23 18 15 13 21

GFSCGP_700_spd_036.txt.gz
Wind_Speed
30 29 34 35 35 33 29 26 23 16 16 26 29 31 33 32 29 26 26 23 19 18 18 20 20 20 21 20 19 17 15 13 13 11 11 12 12 11 11 9 12 11 9 9
26 39 33 29 29 30 32 31 32 20 15 29 37 38 36 33 29 21 26 28 24 14 23 21 22 22 23 21 19 19 17 16 14 14 14 14 13 14 14 16 14 12 11 10
36 24 34 32 32 29 32 37 35 22 13 13 17 27 36 34 34 28 32 30 28 22 15 25 26 25 23 23 20 18 18 17 15 14 16 16 16 15 15 15 12 10 8 3
35 36 17 36 36 35 36 41 34 26 23 26 21 13 29 36 39 38 39 38 36 33 21 17 18 29 28 26 23 22 22 20 19 18 18 16 14 13 11 14 10 6 4 4
30 29 38 33 35 36 46 34 29 29 28 26 28 24 33 23 32 41 46 45 31 34 26 19 15 12 15 22 24 26 27 26 24 22 21 18 16 13 14 14 8 7 9 8
34 23 20 32 29 29 36 29 26 29 32 23 37 34 33 37 39 37 47 47 30 36 32 27 17 18 14 14 17 17 17 25 27 26 23 20 16 15 16 14 9 11 13 12
37 38 31 28 31 31 32 33 17 13 13 11 30 35 33 29 28 32 44 37 35 26 33 31 22 23 22 20 19 18 19 18 26 27 25 21 17 17 16 14 11 14 15 14
35 25 41 34 43 37 40 41 24 8 4 5 27 23 43 40 29 33 41 40 34 28 29 33 22 20 23 22 19 16 17 19 18 25 25 22 20 19 18 16 13 15 17 17
20 32 24 41 38 36 40 43 40 38 30 13 14 22 36 32 41 36 39 45 41 35 31 30 26 21 21 22 22 19 16 16 17 17 21 21 22 22 21 18 17 20 21 17
37 18 20 29 35 41 36 34 33 31 12 15 11 24 26 32 31 31 35 43 47 38 36 32 35 25 28 27 25 23 20 18 15 15 18 19 21 23 23 21 20 23 22 19
49 48 40 29 37 42 47 43 38 34 38 13 8 31 41 36 27 21 41 45 41 47 41 35 37 34 29 31 25 26 25 22 21 21 20 20 22 24 23 22 21 25 22 19
45 39 45 52 43 29 47 44 43 36 23 25 39 40 9 29 26 31 30 42 42 46 41 35 29 26 32 28 29 28 27 27 24 22 22 22 24 25 24 22 24 24 22 19
11 37 34 36 41 51 44 34 49 49 37 44 16 13 39 41 32 10 10 39 44 42 34 33 36 35 36 33 29 30 29 24 24 26 26 26 27 28 26 25 25 23 23 20
25 33 34 36 38 40 39 48 36 50 44 37 57 35 28 29 35 29 27 24 42 43 34 29 34 37 40 33 29 27 30 21 18 22 28 28 28 28 29 27 27 25 24 20
21 27 28 39 44 47 46 42 47 44 55 48 41 40 46 39 34 17 21 23 32 34 39 33 30 39 45 41 34 28 31 26 18 21 19 29 29 28 31 33 30 28 28 25
17 14 20 30 34 47 49 48 44 34 48 55 48 42 37 40 41 41 25 23 31 38 33 36 30 35 34 39 42 35 28 25 22 24 24 18 27 32 32 34 35 33 32 30
18 8 15 12 32 36 39 61 47 44 41 43 44 49 37 34 27 33 35 27 32 36 31 40 23 33 32 31 35 42 35 30 26 24 26 26 22 27 34 33 36 36 34 34
22 16 14 14 11 19 50 45 54 45 37 30 17 39 41 35 29 32 29 28 24 33 35 25 25 27 22 22 30 36 37 32 30 27 28 29 28 26 30 36 35 36 38 39
26 16 11 8 13 15 27 32 37 45 49 40 38 31 18 42 34 30 29 39 34 29 33 33 26 23 22 22 24 30 34 30 29 31 26 29 29 31 32 32 37 37 38 39
23 21 24 18 5 6 24 19 30 19 13 21 31 34 29 16 38 35 36 29 32 25 37 32 40 37 41 43 32 32 26 25 25 22 19 19 23 33 35 33 33 39 39 37
10 19 20 27 14 10 5 19 22 28 16 18 23 25 28 26 21 35 32 31 32 37 35 28 34 28 38 30 30 29 28 29 28 26 24 23 24 22 32 35 36 36 40 40
16 10 18 17 14 7 6 10 30 20 24 18 16 13 18 23 24 23 29 27 23 25 29 30 34 38 37 39 48 42 37 40 37 31 34 33 33 27 28 35 40 39 35 36
20 22 22 18 10 14 9 13 19 24 25 22 18 21 23 23 25 26 26 26 24 23 23 21 25 31 33 41 42 46 47 47 47 41 39 39 40 40 37 38 39 39 38 39
26 33 35 30 25 11 10 17 24 25 23 22 18 17 20 22 25 27 27 29 29 28 25 25 26 25 27 32 34 34 38 43 44 46 47 47 46 42 44 38 35 38 43 41
20 31 36 40 30 16 7 12 22 21 12 12 17 27 21 15 15 18 20 21 20 23 27 31 29 28 30 31 34 36 38 38 41 43 47 50 48 43 44 44 39 36 38 35
29 32 37 40 22 12 7 9 15 23 16 15 13 15 18 17 18 17 17 18 18 18 22 25 28 30 33 37 34 34 37 37 38 36 37 39 39 42 42 45 35 31 32 27

GFSCGP_700_spd_039.txt.gz
Wind_Speed
34 36 47 46 43 38 31 24 29 21 9 20 33 33 35 34 30 27 27 23 14 6 12 15 25 26 25 23 21 21 21 19 18 15 13 12 9 9 8 8 9 11 11 8
32 42 40 37 37 37 37 31 28 27 21 16 31 37 36 35 30 28 25 27 17 11 14 18 24 29 26 22 20 20 18 18 17 15 11 11 10 12 12 14 14 14 13 10
43 26 37 35 38 38 40 38 34 29 14 12 20 32 34 37 36 33 32 28 24 17 16 19 27 30 27 25 22 19 17 17 17 16 14 14 14 14 14 14 14 12 13 6
38 36 23 37 38 36 42 42 33 27 19 17 13 11 35 38 38 39 35 32 31 31 22 20 16 30 30 27 23 22 21 20 19 19 18 16 15 14 13 12 12 13 10 9
34 37 40 32 45 38 41 37 33 23 23 24 26 19 30 38 42 40 34 35 33 32 29 25 18 11 8 23 26 26 23 22 22 22 21 20 18 16 16 15 12 13 13 13
31 22 27 39 29 39 38 20 22 24 26 20 36 25 29 41 40 33 37 40 39 37 32 28 28 20 17 13 19 27 28 27 27 26 25 23 20 19 18 15 10 10 15 16
34 36 24 19 38 27 30 32 12 7 9 12 35 26 37 26 39 40 37 34 32 36 33 29 26 28 20 18 17 20 23 24 22 24 28 26 23 21 19 16 13 13 18 18
31 17 40 31 35 37 42 38 15 8 4 9 21 24 49 47 37 27 29 40 34 33 30 28 27 25 21 17 16 16 19 20 20 18 23 27 26 25 21 17 17 18 21 21
24 30 22 36 37 36 34 46 41 29 12 5 17 43 48 42 30 31 37 31 29 33 36 26 26 29 26 22 20 16 14 15 18 18 18 23 27 26 23 19 20 20 24 24
29 14 30 29 35 40 40 33 28 29 11 14 9 26 20 32 39 30 29 34 38 35 35 34 28 27 30 26 21 18 15 14 15 18 20 19 21 24 23 21 21 21 26 27
51 29 21 19 36 46 43 41 33 34 33 10 2 18 32 26 25 27 31 27 26 35 33 32 31 30 28 27 25 23 21 19 19 22 22 21 20 23 24 23 21 23 28 28
27 26 45 41 25 31 46 48 46 26 22 29 32 21 2 28 41 27 24 24 28 28 40 36 34 31 30 35 31 29 26 26 24 22 24 25 24 22 26 25 23 25 32 30
14 13 19 23 37 47 39 42 52 52 42 43 16 9 27 36 16 39 33 25 31 28 31 38 38 32 34 32 35 27 29 30 29 27 25 28 28 26 26 26 24 26 33 32
14 16 16 23 20 26 37 48 45 53 42 39 50 30 22 19 24 30 31 22 19 18 24 27 36 31 31 32 27 26 30 31 29 30 29 31 32 28 26 27 27 29 34 33
23 21 23 26 28 34 29 33 51 51 59 38 43 43 40 38 23 15 26 27 29 25 21 27 37 30 29 33 33 33 32 32 30 30 32 35 35 31 29 31 32 32 34 34
22 17 19 28 25 27 35 42 42 62 58 49 41 39 31 39 40 44 41 31 26 30 25 30 37 30 30 29 32 36 32 31 30 30 32 30 32 34 32 33 36 36 36 36
25 19 18 11 14 18 31 65 47 42 54 47 48 43 38 45 37 29 29 36 39 24 21 30 45 35 29 34 31 40 38 39 35 33 34 33 29 27 34 36 37 40 40 39
26 21 18 13 10 8 35 40 52 47 41 40 42 32 32 43 37 33 27 27 37 35 28 30 41 42 32 30 29 37 36 35 40 34 35 32 30 31 30 34 40 40 43 44
28 24 19 7 8 25 30 27 20 45 47 37 43 37 24 28 41 42 34 26 25 31 25 20 39 31 29 35 26 34 41 41 42 43 36 31 32 33 35 37 35 43 44 44
32 31 32 9 6 6 13 11 29 29 46 51 43 35 31 22 27 43 37 30 22 31 31 24 32 38 32 36 37 32 32 33 38 43 40 35 37 35 38 38 41 38 40 45
36 35 34 30 10 15 19 11 15 29 41 35 37 42 43 39 28 18 36 34 32 26 26 32 30 30 26 31 33 36 30 35 37 37 37 32 33 32 33 38 40 41 41 40
21 26 22 27 16 14 14 12 5 18 22 28 23 28 40 41 37 26 25 33 29 24 24 28 30 39 39 33 36 35 39 35 33 36 36 34 30 29 28 32 37 39 42 44
16 34 34 29 27 27 17 5 8 13 20 26 21 28 24 29 32 31 20 27 28 28 28 25 31 34 31 30 30 30 29 34 36 38 37 37 38 41 48 44 38 43 42 49
22 26 36 25 30 38 21 6 11 16 19 20 18 27 17 19 22 24 23 21 22 23 23 24 29 33 32 32 34 34 36 40 42 42 42 48 47 43 45 45 46 50 46 46
24 25 40 42 25 32 40 13 16 20 21 21 21 20 21 21 23 24 25 25 26 26 28 29 30 31 33 34 36 39 39 38 35 35 38 43 46 49 51 52 52 51 50 49
29 25 38 42 43 29 46 18 15 22 18 22 24 26 26 24 21 20 19 20 20 21 21 21 23 25 29 32 35 38 39 40 39 39 42 46 48 51 54 58 63 59 52 49

GFSCGP_700_spd_042.txt.gz
Wind_Speed
39 40 48 44 43 40 30 31 25 26 16 16 17 26 28 24 28 30 28 26 18 5 14 19 24 26 26 25 24 23 22 21 21 19 16 13 10 11 10 9 10 10 10 10
42 54 45 40 39 40 38 23 29 31 22 15 8 15 29 30 28 27 27 26 23 13 15 21 26 29 29 25 24 23 22 21 19 18 15 14 13 12 12 14 14 12 13 12
51 41 43 41 39 40 42 40 35 29 15 22 21 18 30 36 32 30 31 30 25 23 15 16 26 30 31 29 26 22 19 19 19 18 18 16 16 13 11 8 8 9 11 12
45 35 27 43 42 41 42 40 33 30 23 18 16 10 22 26 37 38 31 34 29 29 26 16 16 28 32 30 27 24 23 22 21 20 19 17 15 13 10 9 10 11 13 12
42 38 29 42 49 40 40 28 32 28 20 17 17 12 25 17 32 38 35 28 30 26 25 21 19 18 30 30 29 27 26 25 24 22 19 17 17 14 14 13 12 13 12 14
42 30 34 37 39 42 38 19 30 27 23 18 34 28 25 33 31 27 33 29 22 21 24 23 19 17 22 26 32 32 31 29 27 25 23 20 17 16 17 15 13 12 14 18
36 42 24 30 40 32 40 29 4 6 6 12 27 30 42 18 34 26 27 26 18 21 23 23 25 28 26 27 24 29 34 33 31 28 25 23 21 19 20 17 15 13 17 21
32 19 44 34 36 45 37 42 15 7 5 13 12 21 31 39 30 23 30 31 27 29 29 24 25 25 30 30 28 26 24 32 35 34 31 26 23 23 23 21 17 16 19 22
30 30 15 41 35 31 38 39 45 9 3 4 15 38 38 35 35 32 26 30 27 26 30 31 24 27 31 32 28 27 25 20 21 25 23 21 18 23 24 21 19 19 22 25
19 15 40 24 41 35 33 40 28 32 6 6 7 15 16 30 47 42 39 34 28 28 25 26 29 29 32 32 31 26 25 25 21 20 21 19 18 17 21 24 22 23 25 28
37 18 8 32 40 45 42 32 35 30 25 6 1 10 24 22 22 38 47 36 25 22 23 27 27 29 30 33 32 28 25 23 24 24 23 21 21 21 19 24 25 26 28 33
25 20 26 25 30 32 49 47 42 25 15 37 23 17 1 14 33 22 23 30 31 27 21 18 22 29 34 33 33 33 29 26 23 22 22 21 20 21 23 22 25 29 30 33
6 11 7 26 30 25 32 47 44 48 33 40 15 10 35 10 13 30 33 28 29 29 26 25 24 28 31 36 35 32 31 28 25 23 23 24 23 24 25 22 24 29 31 34
4 4 5 6 14 24 30 37 40 49 42 40 51 32 33 23 24 25 21 38 33 23 24 26 22 23 31 35 33 30 27 29 28 27 27 26 25 24 25 25 25 29 32 34
9 8 11 12 20 21 23 32 41 51 50 38 37 47 45 35 34 31 15 29 33 34 24 22 21 23 27 30 27 25 25 28 29 30 31 31 29 27 28 29 29 31 34 35
21 12 16 23 17 25 30 33 36 36 37 49 52 45 38 39 37 26 30 25 24 36 31 27 21 26 29 31 24 24 26 25 28 29 31 31 32 30 31 33 33 32 36 37
17 14 16 13 13 18 30 44 39 41 40 34 46 50 45 47 40 31 27 32 32 33 25 23 21 23 31 28 23 23 28 29 30 31 32 34 36 34 32 35 37 36 38 39
17 10 10 9 11 9 18 25 31 38 51 45 34 28 36 46 48 49 42 38 29 22 30 33 26 21 35 28 26 20 25 30 35 31 33 35 36 34 33 33 36 39 40 42
21 22 14 9 18 27 22 17 16 20 35 43 53 31 23 28 37 37 37 37 31 33 25 30 31 29 29 40 31 28 29 34 39 43 39 36 37 36 36 37 35 32 36 42
24 30 29 18 9 8 5 23 31 27 29 24 38 46 34 30 41 37 31 35 31 28 24 20 26 22 32 37 35 35 31 28 27 39 41 35 38 40 41 38 37 40 42 39
16 29 39 34 15 15 18 18 22 22 28 28 29 35 45 43 42 26 21 30 34 28 23 20 23 28 24 33 34 31 36 34 26 30 29 33 42 47 42 40 34 34 37 41
8 14 24 28 15 22 18 24 17 25 25 34 32 36 39 40 29 31 25 18 19 30 28 23 20 26 26 36 39 35 31 32 34 34 28 29 34 40 45 37 33 35 33 39
16 26 24 20 26 14 32 24 23 25 24 30 34 37 40 34 32 33 31 26 20 28 29 24 20 22 29 30 30 29 29 29 28 32 31 31 35 33 34 37 36 33 38 45
24 18 26 31 29 38 32 38 38 28 25 28 33 33 35 35 33 36 40 37 28 26 30 27 25 25 23 26 27 27 28 29 32 31 32 39 41 37 39 36 39 42 42 49
28 27 21 26 36 20 43 44 39 28 20 17 25 25 22 24 26 33 37 34 33 28 29 29 29 29 29 31 33 32 33 34 34 34 34 35 38 39 44 46 45 50 54 54
31 28 31 38 33 36 34 39 37 27 22 21 18 19 22 25 27 31 36 36 34 31 29 30 31 31 30 31 32 32 33 33 34 35 36 39 41 43 43 45 49 52 54 53

GFSCGP_700_spd_045.txt.gz
Wind_Speed
38 38 50 42 38 27 14 21 18 24 22 18 21 22 23 20 23 23 24 22 20 7 14 20 26 28 29 29 28 27 25 22 22 20 18 15 13 12 11 10 10 9 9 9
36 49 40 39 39 37 34 25 25 21 13 21 21 18 11 17 18 21 17 22 21 17 17 18 25 27 29 28 27 27 24 23 22 19 16 14 13 13 12 14 14 13 12 11
46 26 41 39 39 39 39 36 27 16 11 19 26 25 23 17 19 23 23 24 23 23 15 20 23 26 28 30 29 26 24 22 21 19 19 17 17 14 13 13 13 12 14 13
42 36 18 43 43 40 36 37 32 29 17 18 14 21 24 26 21 24 26 27 23 29 25 19 23 26 30 30 28 27 26 25 22 21 20 18 16 13 10 10 12 15 16 14
42 40 43 31 46 40 33 30 32 30 25 21 23 16 28 22 28 24 25 23 28 25 29 25 21 22 27 31 31 29 27 26 24 23 21 19 18 15 15 15 14 14 15 14
35 32 32 42 28 42 28 15 18 21 18 23 35 23 29 28 34 27 22 24 23 27 29 29 25 20 21 30 34 33 31 29 28 26 24 22 20 17 16 14 12 11 12 14
31 29 30 31 30 28 31 26 12 12 13 15 22 23 40 15 36 38 26 21 22 24 26 28 29 29 25 27 32 35 34 33 31 30 29 26 22 20 17 15 14 12 12 16
32 24 38 36 36 30 40 38 17 15 16 15 22 22 31 35 38 10 18 25 24 26 20 21 23 25 26 24 28 29 34 36 35 33 31 28 25 23 21 19 17 13 14 19
32 29 14 35 35 33 30 46 38 20 8 7 22 27 32 24 23 34 39 30 26 26 24 17 16 23 27 31 31 30 28 25 33 36 34 33 30 27 25 23 19 16 17 23
21 11 30 27 30 32 27 33 23 30 14 15 10 17 29 23 41 40 33 34 27 25 20 18 16 20 25 28 31 32 31 29 26 24 32 36 33 28 24 23 23 21 19 26
32 21 11 29 38 37 33 34 30 25 22 10 9 17 18 27 26 22 31 38 26 27 20 17 18 17 18 25 29 31 32 30 30 29 24 21 22 24 23 22 22 24 23 28
29 24 22 20 25 33 36 35 40 26 17 32 15 14 5 4 21 24 22 22 32 34 20 20 16 21 27 24 28 32 32 33 29 27 27 27 26 25 25 24 22 23 26 29
20 20 21 19 15 29 40 38 35 36 25 31 17 12 18 13 5 21 21 20 23 24 27 26 24 20 19 25 30 31 35 34 32 30 28 28 28 30 28 25 23 23 26 31
11 11 25 24 26 22 22 29 36 39 38 32 43 29 20 13 22 11 18 23 21 24 22 20 19 17 21 26 30 34 35 36 34 32 30 29 29 31 27 23 22 23 25 32
2 3 12 17 21 19 20 26 26 35 44 41 41 41 33 40 28 25 17 19 17 28 29 27 20 17 17 22 30 33 36 34 36 35 33 31 30 30 29 28 26 24 26 31
14 6 10 15 19 15 20 24 30 28 31 36 43 41 26 27 25 31 40 34 25 17 31 32 29 20 16 19 31 28 31 34 38 37 34 32 33 32 31 30 30 28 27 28
12 9 7 12 11 18 25 36 32 32 30 30 39 37 40 46 38 33 30 25 25 25 18 20 25 22 19 18 29 32 32 29 28 30 31 37 38 36 33 32 32 32 34 31
11 11 9 9 5 11 19 21 22 26 34 39 42 39 44 46 45 43 38 28 27 30 20 20 23 29 23 19 28 32 29 29 30 31 32 35 35 34 35 35 33 33 35 36
12 15 8 11 20 24 27 15 18 19 27 30 33 34 33 33 31 33 32 35 31 28 25 22 19 28 28 24 26 32 33 27 28 33 31 31 34 35 37 36 33 33 36 38
25 25 16 10 13 13 10 26 23 24 27 23 23 27 37 38 41 31 24 24 19 20 22 26 24 26 34 30 29 34 33 33 30 31 27 30 34 33 34 35 36 36 37 39
10 18 28 26 18 17 22 13 18 15 14 16 19 21 22 36 48 36 21 22 20 23 27 28 25 25 24 34 30 38 41 37 31 30 30 29 28 36 35 35 34 38 39 40
9 9 13 24 18 25 21 29 23 17 19 19 24 24 21 27 27 40 26 25 21 18 21 31 27 28 24 33 30 34 40 40 38 34 32 31 28 32 35 33 36 32 36 37
14 24 13 17 20 12 22 33 29 31 30 26 20 25 32 30 24 26 26 32 28 22 18 30 30 28 26 27 33 30 38 39 34 30 32 32 33 26 24 25 27 35 38 25
15 21 25 23 30 30 31 20 36 38 31 29 31 31 34 34 30 28 31 35 34 30 21 21 34 32 29 27 31 32 35 36 35 31 30 28 30 31 28 30 32 35 35 32
23 21 19 31 36 33 29 29 35 38 39 33 34 29 32 36 34 38 41 42 40 36 31 25 32 33 31 27 26 29 31 31 31 31 34 33 34 34 34 35 38 39 37 38
28 28 31 39 28 28 35 34 29 32 32 38 30 18 20 25 34 35 42 43 45 47 41 36 34 38 36 34 31 29 27 29 30 30 32 33 32 32 33 34 37 39 42 43

GFSCGP_700_spd_048.txt.gz
Wind_Speed
34 33 44 37 33 30 21 19 23 21 14 17 19 18 14 15 19 20 20 18 18 16 13 19 25 30 31 32 31 29 27 25 24 22 19 17 14 13 11 10 10 8 9 10
29 44 32 30 30 31 30 23 25 21 18 17 18 18 15 18 20 22 22 18 20 20 18 19 24 29 33 32 30 29 27 26 23 21 18 17 14 13 12 13 13 11 11 10
33 18 31 31 33 33 33 33 26 23 17 20 17 21 20 17 17 21 23 19 21 24 22 18 21 26 29 32 32 31 28 26 24 22 21 19 19 17 14 12 11 12 13 13
34 27 28 33 35 35 37 32 25 22 19 19 17 23 24 24 21 21 22 24 21 22 26 20 21 25 28 28 30 31 30 28 25 25 24 21 17 14 11 11 12 14 15 15
35 34 31 35 35 31 34 25 25 28 26 24 28 18 26 18 25 25 23 24 25 21 26 27 19 19 23 25 31 32 30 29 27 25 23 20 19 15 15 15 14 13 14 16
35 19 31 31 26 29 21 25 23 22 27 27 36 32 30 28 26 25 25 23 25 25 25 29 26 19 23 26 31 33 32 29 28 26 25 22 19 17 17 16 14 13 13 14
33 39 26 26 30 26 33 29 17 18 23 21 29 35 37 16 26 26 25 26 26 26 21 24 32 29 22 28 31 34 33 32 30 28 27 24 21 21 19 17 17 16 14 14
34 31 41 35 35 31 39 38 24 20 15 21 26 25 40 33 28 9 28 25 22 29 24 25 26 29 28 22 27 33 36 34 33 30 28 26 25 25 23 22 19 17 15 15
33 38 30 29 36 33 37 44 37 21 16 13 26 32 25 20 27 31 27 22 29 26 32 28 24 25 30 31 25 23 33 34 34 33 31 30 28 29 27 25 21 19 17 17
29 26 29 34 29 33 26 33 35 36 22 20 17 24 25 18 33 26 28 31 23 28 31 27 23 20 22 26 30 27 26 26 27 27 29 34 33 31 30 28 27 24 20 20
26 23 29 27 43 42 39 31 42 30 30 13 14 19 23 24 24 27 26 29 29 29 31 29 23 17 18 21 27 32 35 30 29 28 27 23 30 35 33 33 32 29 24 23
28 21 23 37 33 34 37 36 41 32 32 39 26 17 8 6 14 22 22 23 26 28 26 27 24 18 16 15 22 29 33 37 36 32 31 29 21 22 28 33 31 29 28 26
20 27 26 20 25 33 40 41 38 39 26 31 26 9 12 10 8 14 18 18 21 27 28 29 26 21 19 20 24 25 29 34 34 31 34 33 31 26 22 22 25 27 27 28
23 19 36 30 27 32 37 43 41 43 42 32 34 22 21 11 8 7 16 15 10 13 25 34 33 30 25 23 23 29 30 31 34 34 34 33 30 27 24 22 22 26 26 27
6 22 17 23 13 9 20 41 42 45 43 44 31 30 27 16 14 9 10 7 9 12 13 15 21 24 24 21 21 22 32 34 35 37 37 35 31 30 30 29 27 26 27 26
2 10 12 20 16 13 16 21 27 37 43 41 38 35 22 20 23 28 22 18 17 16 13 16 24 25 23 18 19 24 30 38 37 38 38 34 34 32 32 32 33 33 30 28
6 8 9 22 19 18 24 32 30 30 32 32 38 31 28 29 25 21 29 31 29 25 24 16 16 24 23 21 20 23 27 37 40 39 37 38 37 37 34 35 36 34 32 32
9 10 11 11 15 17 26 25 25 35 31 29 28 25 24 25 26 27 26 26 25 25 26 24 17 18 23 26 23 23 24 33 40 40 39 39 40 41 39 38 39 38 37 36
16 12 14 20 22 10 13 12 10 15 22 26 27 27 26 26 26 29 27 31 32 24 24 32 23 22 22 26 28 27 26 28 34 37 36 38 41 40 42 42 39 38 40 40
17 18 17 12 21 18 13 22 16 10 15 11 13 13 19 23 29 24 20 21 24 22 22 27 29 29 28 27 29 30 28 29 32 34 34 35 38 36 34 36 39 41 42 42
20 19 23 23 20 16 20 3 5 18 4 3 7 11 17 19 25 31 30 32 25 26 25 23 23 32 30 31 33 33 32 33 32 36 33 31 34 34 29 29 33 36 38 41
14 15 21 25 26 28 16 13 13 10 12 15 13 11 11 16 18 18 19 33 35 26 29 27 25 30 32 30 31 35 38 31 34 38 37 32 30 31 31 30 32 37 37 39
21 21 18 23 24 20 17 24 22 20 26 21 22 19 15 15 19 21 21 22 35 33 33 28 24 30 34 31 32 30 34 36 37 41 40 39 35 34 33 32 32 30 28 28
23 21 26 27 34 31 22 22 27 23 33 33 26 25 21 21 23 28 27 21 25 34 33 31 25 27 34 32 32 28 31 35 32 36 44 47 40 35 32 31 29 27 28 30
21 21 25 31 33 31 31 30 29 29 38 48 47 37 29 26 27 28 25 29 28 34 37 35 30 23 31 33 32 31 29 34 34 32 38 40 36 32 29 29 31 31 29 29
28 34 36 38 28 28 30 27 29 39 40 43 44 42 41 38 33 38 39 34 38 36 39 39 35 31 25 35 37 34 28 31 34 29 29 33 35 33 32 32 33 31 31 32

GFSCGP_700_spd_051.txt.gz
Wind_Speed
30 32 43 40 39 30 26 26 25 24 19 25 23 18 14 15 18 19 20 24 23 23 21 24 25 28 29 30 29 29 29 26 24 22 19 16 13 11 10 9 9 7 8 8
28 44 34 31 33 35 31 27 28 20 19 24 24 22 19 20 21 21 23 24 24 23 25 25 24 28 31 31 29 30 29 27 25 22 19 17 14 13 13 12 11 10 9 6
40 22 31 32 34 37 37 33 26 27 23 21 19 23 21 23 20 20 24 23 24 26 27 26 24 27 28 32 32 30 29 28 26 24 21 19 17 16 15 13 11 10 10 9
35 29 27 36 37 36 40 36 29 26 27 28 26 24 26 25 24 22 26 27 24 27 28 28 23 24 29 29 30 29 28 29 28 26 23 20 17 16 13 12 12 12 12 12
42 32 30 36 38 36 38 30 32 28 27 27 26 31 25 30 30 26 26 28 26 27 28 30 22 19 21 27 29 30 30 30 29 26 23 20 19 17 16 15 14 11 11 12
37 28 33 26 32 30 29 29 28 31 31 28 35 31 26 24 24 28 26 27 28 28 28 29 29 21 22 25 28 30 33 32 30 26 24 22 20 19 19 16 14 13 13 13
36 42 30 28 29 32 30 31 24 23 25 17 38 37 35 25 26 25 27 28 28 29 29 31 31 30 23 29 31 32 33 32 30 28 26 23 21 21 20 18 17 16 16 14
37 35 45 33 40 35 35 38 27 22 19 20 35 38 41 33 20 26 27 28 28 29 31 31 32 31 23 20 26 28 31 32 32 30 26 24 22 22 22 21 19 17 17 15
41 46 26 46 35 39 38 46 40 32 30 24 35 32 35 27 32 32 23 27 30 28 31 32 32 32 24 25 20 26 30 33 33 31 28 27 25 24 23 21 21 21 19 18
39 29 42 24 36 38 42 33 39 37 24 19 28 20 29 29 24 31 35 24 30 28 31 31 31 33 26 22 19 19 19 25 30 33 32 30 28 27 26 26 26 25 22 21
44 35 26 38 48 44 44 39 45 35 33 17 12 16 20 22 22 28 29 34 28 31 28 30 32 32 24 25 27 27 26 22 25 31 33 33 33 33 33 32 28 28 26 25
50 28 38 44 39 37 39 43 40 35 33 34 23 13 9 11 18 23 28 26 32 27 28 29 30 30 31 31 29 27 28 29 26 24 25 25 26 23 27 33 33 30 30 29
19 34 30 33 39 38 43 43 41 39 33 32 24 16 8 6 5 16 19 24 27 29 28 28 29 30 31 32 26 25 27 29 31 32 29 26 27 28 26 25 29 32 32 31
23 28 38 29 39 39 42 45 43 41 39 32 33 25 8 10 7 12 15 17 20 25 25 28 28 29 28 29 26 22 25 25 31 34 33 30 29 29 27 24 20 23 26 27
10 22 31 35 22 21 38 42 44 46 37 41 25 28 19 13 11 11 13 12 12 13 23 29 31 28 28 30 28 22 21 26 29 33 32 31 28 28 28 26 23 22 20 21
10 17 24 30 29 17 18 28 44 41 41 34 34 24 19 19 17 11 10 12 9 9 9 8 13 24 25 28 25 20 23 25 31 35 35 31 30 30 28 26 25 25 23 21
5 13 17 23 26 18 26 28 25 34 39 36 35 32 23 17 15 16 14 13 13 13 12 11 14 18 26 28 26 22 22 23 26 35 37 34 33 33 32 30 30 29 27 26
11 8 10 17 24 23 24 25 25 21 24 27 27 23 24 25 23 21 19 17 18 16 16 14 11 16 16 24 23 27 25 24 23 30 37 36 35 36 35 35 34 32 30 31
17 13 10 16 19 18 28 18 20 22 26 27 25 24 22 19 18 19 17 17 18 17 18 18 20 19 17 17 19 29 30 26 24 24 31 37 38 37 38 36 36 37 38 38
18 17 18 12 18 15 13 9 10 6 13 15 24 26 26 22 23 14 14 17 20 21 19 19 19 23 24 25 25 24 35 30 26 24 28 34 39 41 38 37 38 40 42 42
20 20 23 24 15 20 4 4 9 17 7 12 11 11 14 17 20 27 26 25 27 27 22 27 30 37 41 34 32 35 37 37 27 28 29 33 37 38 39 40 43 44 44 45
15 25 24 24 25 24 10 5 10 11 7 14 11 7 7 10 15 24 30 36 40 39 34 28 30 32 35 37 36 37 36 34 36 32 31 32 36 37 38 39 39 41 38 37
14 12 16 19 25 20 18 17 16 7 7 9 8 9 11 12 13 16 21 24 23 29 37 36 30 33 33 32 38 38 32 34 37 33 31 30 37 38 37 35 35 31 33 34
17 17 24 22 24 24 22 20 21 20 19 18 15 17 21 19 17 17 17 19 20 19 23 35 36 35 34 30 34 36 31 31 31 37 36 34 33 38 38 34 34 34 35 33
21 22 24 31 32 30 30 29 27 25 30 27 29 29 30 27 24 21 22 19 19 21 21 26 39 37 34 32 31 35 33 31 29 28 36 33 31 35 39 43 42 36 34 33
23 28 32 37 29 29 30 27 27 33 32 36 49 39 33 37 36 35 34 27 24 23 24 23 30 35 36 32 28 33 35 31 31 30 29 35 34 32 36 39 37 31 30 30

GFSCGP_700_spd_054.txt.gz
Wind_Speed
29 32 43 39 35 32 23 27 28 27 25 26 26 24 18 9 37 29 29 31 28 26 27 29 29 31 29 28 25 24 25 25 23 22 20 17 14 12 10 8 8 5 5 5
29 47 35 31 30 34 32 30 30 24 20 26 24 23 19 14 9 31 35 30 28 26 27 29 28 31 31 27 25 26 26 26 23 21 19 17 15 13 11 10 10 8 5 4
43 25 31 32 34 35 38 35 31 29 23 15 25 23 28 22 16 26 33 20 27 27 29 29 28 33 29 27 27 27 28 27 25 23 22 20 17 15 13 12 11 8 7 6
40 33 26 35 37 36 40 36 31 27 25 23 29 16 31 21 24 27 26 29 26 27 26 30 26 26 31 27 25 27 28 28 26 25 24 21 16 14 12 11 10 10 10 9
47 38 38 32 38 34 39 32 33 29 25 27 25 28 24 27 27 27 25 29 28 29 28 30 28 16 23 27 26 27 29 29 28 27 24 21 18 16 15 13 12 10 8 9
41 35 33 36 28 34 30 28 31 32 30 25 34 28 32 29 30 30 28 28 31 31 31 29 26 25 21 26 26 28 29 30 28 28 25 22 19 18 17 15 12 11 11 8
35 44 35 32 28 32 32 34 25 22 24 18 34 34 28 25 35 26 33 29 30 33 31 31 30 33 22 28 28 29 30 31 31 29 27 24 20 20 19 16 14 14 13 12
41 35 46 36 40 35 40 41 25 24 17 20 34 33 39 35 22 22 25 33 28 33 33 32 31 34 25 18 23 27 28 29 31 29 28 26 23 22 20 17 16 14 13 14
41 43 32 44 35 37 40 45 39 30 31 25 32 37 34 36 33 26 21 30 32 32 33 36 33 34 27 24 16 21 25 26 30 30 28 27 24 23 20 17 17 16 16 15
46 33 41 35 38 37 42 37 35 37 22 22 27 34 38 37 36 39 33 27 29 33 34 34 32 33 31 19 20 16 19 25 29 29 28 28 26 24 22 22 21 20 17 15
46 46 36 40 48 45 41 41 40 35 31 15 15 21 28 42 40 37 31 35 27 33 34 33 35 33 28 18 23 22 18 18 27 31 30 30 29 27 26 26 24 22 21 20
24 48 42 44 47 40 42 45 42 28 29 34 26 18 8 19 32 32 28 37 31 31 34 31 34 32 27 28 23 25 23 22 18 21 29 30 31 31 31 31 29 27 26 24
9 24 35 42 37 46 49 46 45 40 30 33 21 22 5 11 18 23 24 31 30 30 30 30 33 33 31 31 25 22 26 26 26 25 24 26 27 28 30 28 25 26 28 28
18 19 33 29 37 31 43 45 43 44 36 30 32 22 12 9 8 10 16 24 27 34 29 31 30 35 31 32 31 26 24 22 26 29 29 26 23 23 25 23 22 20 22 25
12 19 25 35 33 31 41 42 42 47 41 37 31 33 16 15 14 18 17 20 26 28 30 31 33 34 32 31 26 27 26 18 20 23 27 27 28 26 24 24 22 21 19 19
4 13 14 23 29 26 25 45 43 43 42 35 32 28 20 16 18 19 16 15 17 23 25 23 28 25 33 36 26 25 25 24 22 23 24 24 27 29 28 26 24 25 23 20
9 6 10 23 21 24 30 24 25 38 39 38 34 31 30 28 21 18 16 15 12 13 15 16 21 27 26 25 24 29 29 23 23 24 24 25 26 27 28 27 27 28 26 24
10 10 10 15 14 16 21 20 19 13 40 37 33 26 20 14 18 17 17 21 14 17 16 16 13 12 34 39 39 38 36 25 23 24 24 24 24 28 27 29 29 28 28 27
9 8 9 9 11 11 13 16 24 17 16 12 16 35 17 19 18 16 14 10 11 14 16 17 16 14 15 15 21 28 29 29 25 24 23 22 24 28 30 31 31 29 29 29
13 12 11 8 9 10 16 13 16 16 24 9 18 14 13 12 13 13 16 21 20 22 21 23 27 26 27 29 16 23 22 28 33 27 24 22 22 26 28 31 32 32 32 32
22 17 17 14 10 7 6 7 8 17 3 14 17 19 20 19 18 20 24 26 29 28 27 29 28 30 33 33 34 26 24 29 36 31 27 25 22 25 29 32 34 34 34 35
10 23 19 21 22 8 3 2 3 8 3 17 19 22 22 19 16 17 20 26 31 32 30 31 30 32 34 37 42 45 40 31 33 33 34 30 28 27 30 33 35 38 38 37
1 9 12 17 31 21 9 4 6 5 4 7 19 21 19 20 15 21 29 33 32 32 29 28 31 31 30 33 39 44 40 37 35 34 35 36 36 33 31 34 36 38 37 36
13 8 14 15 17 23 16 14 11 7 9 10 11 21 22 24 30 39 41 37 34 30 29 27 27 31 35 33 31 34 36 41 38 39 35 35 35 32 29 30 35 37 35 35
20 24 20 22 19 21 23 21 22 19 18 15 15 20 31 31 33 36 33 31 31 24 21 19 16 22 30 35 34 33 30 32 38 38 34 33 33 34 33 32 34 39 37 35
20 24 26 36 29 28 31 27 20 21 24 21 25 27 28 32 32 33 30 26 23 23 20 21 17 12 17 28 33 34 30 30 35 38 34 32 30 31 35 31 30 36 42 40

GFSCGP_700_spd_060.txt.gz
Wind_Speed
31 36 46 45 39 33 23 21 24 21 20 29 25 35 33 22 32 33 29 21 15 16 18 25 24 27 25 23 18 21 26 26 25 25 23 20 15 12 9 7 7 6 6 6
28 44 42 38 34 29 27 25 30 26 20 26 29 33 37 30 28 35 27 19 19 17 22 25 27 27 27 23 20 21 24 26 26 25 22 19 15 13 10 10 9 8 6 5
42 20 38 36 33 30 34 35 35 33 21 16 19 28 33 32 33 33 30 26 24 25 26 26 27 26 26 24 22 23 24 26 27 25 25 23 22 20 16 11 8 8 8 7
40 43 14 37 35 35 36 40 34 34 22 15 23 15 40 34 30 35 31 31 33 26 31 26 23 28 27 24 22 22 24 27 28 28 27 25 19 15 10 9 10 10 10 9
47 32 39 31 43 35 41 34 32 34 30 27 23 11 39 36 35 34 33 30 40 28 31 29 26 20 19 24 25 24 25 27 30 30 29 26 23 17 16 15 14 12 11 9
39 38 25 40 30 34 29 28 33 30 29 21 32 24 20 40 41 37 31 34 32 34 30 34 31 19 19 22 26 28 28 28 30 32 31 28 24 21 20 17 14 13 10 8
36 44 38 36 32 34 35 32 18 9 14 9 31 24 36 25 33 32 30 35 31 39 30 31 34 32 21 21 24 29 32 33 32 33 33 29 26 24 21 18 16 13 9 6
15 33 45 37 44 34 42 42 24 12 5 12 36 20 43 32 25 33 23 33 36 36 32 32 31 31 24 20 22 29 34 35 34 33 33 32 29 26 22 20 17 14 12 9
12 22 19 43 35 43 41 44 45 27 12 9 15 34 35 35 29 25 24 27 47 32 33 32 32 33 25 19 16 24 32 34 34 32 31 31 30 28 24 21 19 16 13 11
12 25 33 34 32 42 46 35 33 30 16 10 7 22 34 42 40 34 27 27 36 38 32 34 32 30 28 19 15 15 27 30 30 30 31 29 30 28 25 23 21 18 15 14
18 11 29 26 36 39 47 44 32 34 26 10 4 22 30 31 35 35 34 29 37 36 37 37 31 26 28 22 19 15 22 30 31 31 31 31 30 29 28 26 23 20 18 15
21 14 20 33 33 33 27 43 41 29 21 32 23 35 23 35 27 27 18 36 34 38 38 41 30 27 31 26 20 17 22 29 31 29 29 30 29 29 30 28 25 23 20 19
21 6 15 22 30 23 28 28 41 40 34 34 20 37 24 35 29 32 35 40 42 41 33 41 32 31 30 29 24 18 23 25 30 32 31 32 32 31 30 28 27 26 23 21
26 21 17 21 20 14 20 26 27 36 35 30 41 49 42 20 18 28 25 43 46 39 33 35 36 32 31 28 23 17 21 26 28 33 33 33 31 30 30 28 27 27 25 25
22 27 19 23 28 24 21 21 25 29 42 36 36 44 41 36 24 21 28 36 38 31 36 37 32 32 32 27 25 22 23 21 23 23 24 24 26 28 28 29 29 28 28 27
17 29 25 21 15 15 12 12 21 22 40 45 29 38 27 26 18 13 28 28 29 30 31 40 36 30 35 24 26 25 24 21 22 23 21 19 19 20 20 20 21 25 28 26
22 19 22 11 6 11 7 9 9 16 33 36 46 32 18 22 21 16 25 29 27 29 32 37 35 29 35 27 22 25 22 18 18 21 20 21 23 24 24 23 23 21 22 24
25 23 16 12 8 7 12 18 12 17 15 23 27 34 39 26 27 27 26 28 28 32 31 38 40 37 37 32 28 26 26 17 11 15 17 17 19 19 21 24 25 26 24 24
21 13 10 6 9 4 11 8 11 14 22 6 14 22 20 31 38 33 33 35 35 35 37 36 35 39 41 41 39 33 30 22 19 23 22 16 15 16 19 24 25 24 26 27
12 13 15 16 5 2 14 7 8 25 30 30 25 29 35 36 42 39 37 38 40 40 40 40 38 34 36 39 38 42 43 38 32 27 22 17 19 18 16 15 20 25 28 29
19 19 16 12 10 2 18 5 8 15 14 10 23 24 28 32 37 40 39 39 39 38 39 37 35 33 32 31 33 35 36 35 35 33 27 23 22 21 19 17 16 19 28 32
6 5 5 3 1 2 7 13 18 12 8 8 16 23 23 25 28 34 39 40 39 38 36 34 33 31 33 33 32 31 32 33 34 32 25 22 26 29 28 24 21 19 20 29
19 16 9 12 11 6 11 12 30 14 13 9 11 14 19 19 26 27 30 33 35 36 36 34 32 31 31 29 27 28 30 32 34 34 31 29 30 32 30 30 29 26 23 22
29 19 11 13 5 5 3 3 20 12 10 7 5 6 10 19 23 28 31 30 32 35 36 35 33 30 31 34 35 30 28 32 32 35 36 36 36 35 32 30 30 34 33 30
29 19 25 19 10 14 9 11 12 14 9 9 8 6 9 11 19 24 28 29 29 33 38 37 33 31 29 31 38 43 40 37 35 34 35 38 40 40 39 38 36 34 35 35
32 26 30 33 24 22 14 12 21 24 24 22 20 16 14 11 12 21 24 25 26 27 26 28 30 30 27 26 29 29 38 41 45 45 44 44 46 47 47 46 46 40 35 33

GFSCGP_700_spd_063.txt.gz
Wind_Speed
37 39 46 42 39 38 19 21 28 26 16 22 31 35 32 29 32 26 24 20 19 20 25 27 27 29 30 29 25 29 30 30 30 28 26 21 18 15 11 7 6 5 6 6
32 45 39 36 35 38 36 22 30 27 19 19 29 35 30 27 32 29 23 23 22 17 26 31 31 30 33 30 29 26 30 32 31 28 24 21 17 14 12 11 9 7 6 5
37 22 38 36 37 39 39 35 30 25 4 13 16 33 33 35 38 36 30 26 24 23 22 28 32 31 32 32 29 30 33 34 32 28 26 23 22 20 17 14 11 9 7 6
34 36 7 37 40 41 42 38 31 29 14 17 16 9 31 35 37 43 35 29 31 26 28 24 27 30 30 28 27 28 30 32 31 29 27 25 22 18 12 10 10 10 9 8
39 30 38 23 41 42 45 34 33 29 23 19 24 15 21 32 45 47 41 34 28 24 27 32 25 25 27 29 29 29 29 30 31 29 27 25 23 19 16 15 14 12 11 10
27 34 24 41 28 38 36 28 32 31 25 19 27 27 22 33 33 40 37 30 28 28 27 28 30 27 25 27 28 29 30 32 33 31 29 27 25 22 21 19 16 13 11 10
28 36 32 28 27 33 24 29 13 8 10 11 25 22 37 20 31 38 35 26 24 24 27 27 29 31 29 27 29 31 32 33 33 33 31 30 27 25 24 21 17 14 11 9
12 19 29 34 33 30 37 33 18 6 4 12 33 14 36 38 24 23 30 32 26 25 23 29 28 30 30 30 30 32 34 34 34 34 33 31 30 28 26 23 20 17 14 11
5 12 16 32 34 28 33 40 38 29 10 6 11 20 42 32 27 30 27 31 36 34 29 28 29 26 28 29 29 31 33 33 33 33 34 33 31 30 28 25 22 20 17 15
6 13 22 23 27 41 36 25 28 29 15 10 4 12 28 38 37 34 29 20 23 26 35 35 33 30 21 22 25 26 29 32 31 32 32 32 32 31 30 28 25 22 20 18
18 8 22 22 12 27 37 40 33 27 26 12 4 15 15 31 35 37 34 27 24 22 30 38 35 33 26 23 23 24 24 30 32 33 32 32 34 33 32 30 27 24 22 21
12 8 15 25 29 12 13 25 39 29 19 28 25 34 29 22 22 24 36 35 30 23 25 30 32 31 32 27 23 22 23 27 30 30 31 32 33 34 34 33 30 27 24 22
11 5 8 12 28 23 21 21 17 35 33 33 20 30 31 32 26 25 29 31 31 22 29 28 33 34 31 29 28 25 25 25 26 30 31 32 33 35 35 33 31 29 26 25
11 8 15 14 11 16 23 20 15 10 18 38 47 33 33 25 30 28 28 26 30 32 32 36 31 34 33 28 30 28 25 26 25 29 31 33 33 33 33 32 32 30 28 28
9 11 19 30 31 30 32 27 23 21 23 20 38 45 41 36 29 26 28 32 37 48 41 41 35 32 32 30 30 31 25 27 26 27 31 32 32 33 32 31 31 30 31 29
15 14 15 30 30 28 28 18 24 22 21 28 33 37 32 27 27 30 35 32 28 35 44 38 36 32 33 29 25 28 27 27 26 29 30 28 29 29 29 28 28 28 28 29
18 16 10 22 24 15 15 15 7 12 16 23 32 37 25 27 26 29 25 24 30 36 39 36 37 33 32 31 25 28 25 25 19 16 16 18 18 19 20 21 24 26 26 26
23 18 15 14 16 5 18 15 21 18 18 18 17 22 25 28 16 20 23 16 27 32 34 33 34 32 32 32 26 29 28 23 21 20 20 19 19 19 19 21 21 21 21 23
25 22 7 2 10 6 25 11 13 16 21 17 18 15 22 22 16 14 20 23 30 30 28 27 30 34 31 34 28 32 30 26 23 20 20 18 16 15 17 19 20 20 24 26
28 24 15 4 7 5 14 12 16 19 21 25 23 24 25 24 21 18 23 25 29 29 29 29 31 36 36 35 35 32 33 30 23 18 16 15 15 14 14 13 15 17 22 24
20 14 15 17 11 6 9 14 25 12 11 21 23 26 28 19 23 28 27 26 27 29 31 34 35 38 38 37 40 37 35 33 30 25 30 23 20 19 18 16 16 18 22 26
9 6 2 6 5 4 4 9 13 18 21 20 20 25 28 31 25 24 27 29 32 32 31 29 31 34 38 40 38 41 38 36 35 34 32 36 29 26 23 23 21 19 19 21
10 5 1 7 7 3 5 9 20 22 20 21 18 19 24 25 29 25 24 29 31 33 34 33 32 33 33 33 35 39 42 41 41 40 35 33 31 30 26 26 26 24 21 19
11 13 12 3 7 6 7 10 13 25 22 18 16 15 17 21 25 28 27 27 29 31 32 33 33 31 31 31 31 31 31 32 36 39 38 34 36 37 34 30 29 27 25 24
26 24 20 12 13 8 8 5 15 24 21 17 14 12 11 12 17 20 23 26 27 29 30 31 32 32 30 29 27 27 30 31 32 35 37 38 39 40 40 39 35 33 30 29
31 25 20 21 21 18 4 5 9 15 26 21 13 9 8 9 11 16 21 21 23 27 29 31 32 33 30 28 29 30 33 33 32 32 31 34 39 42 43 43 41 38 36 34

GFSCGP_700_spd_066.txt.gz
Wind_Speed
35 37 45 40 36 32 25 23 30 26 24 19 21 19 16 19 18 22 20 16 13 15 23 27 30 31 31 30 31 28 27 26 27 26 24 21 17 15 13 10 7 6 6 5
34 43 36 34 33 31 23 24 25 25 20 19 20 26 27 29 29 28 27 24 16 14 25 30 31 34 32 31 29 31 29 29 28 27 23 20 18 17 16 13 9 7 6 5
37 27 36 33 35 35 36 27 28 21 17 20 18 21 29 31 35 35 30 30 21 20 19 29 33 34 34 34 32 31 30 31 30 27 26 24 24 23 19 14 9 7 6 5
27 30 9 34 35 34 37 39 31 25 14 10 18 7 19 24 29 35 27 33 31 24 25 23 31 35 37 35 34 32 28 32 32 30 29 27 24 21 16 12 11 10 8 6
29 20 32 20 33 34 36 28 35 31 23 17 16 14 32 26 29 38 34 31 35 28 27 26 24 26 31 36 36 36 34 33 34 33 31 29 27 23 18 15 14 13 10 8
22 24 20 27 31 19 31 9 20 28 20 19 31 24 22 31 30 28 26 33 30 31 30 28 27 23 24 28 35 37 38 37 37 35 34 31 28 24 21 18 16 13 11 10
25 36 24 27 19 25 22 24 8 7 10 13 23 24 39 9 32 29 27 23 28 24 32 32 28 27 28 25 30 36 37 38 38 37 36 32 29 26 23 20 18 14 12 10
5 10 30 27 25 26 35 33 15 7 4 11 20 17 39 34 32 20 17 23 26 26 29 30 30 25 24 25 27 36 37 36 37 36 35 33 31 28 25 23 20 16 13 12
3 9 15 31 29 25 27 40 33 23 9 5 13 33 45 29 32 25 23 22 24 21 24 27 27 29 28 28 31 34 36 35 36 35 35 33 31 29 26 23 21 18 16 15
3 7 17 19 26 34 25 17 21 25 10 8 5 22 23 36 46 34 22 22 18 17 23 27 29 30 31 27 29 30 35 36 35 35 36 35 33 30 28 27 25 22 19 18
9 8 12 16 19 23 29 29 21 18 28 10 3 17 10 16 30 40 32 25 22 16 19 23 29 32 29 28 31 31 31 36 37 37 36 36 34 33 31 29 27 25 23 22
11 6 11 22 14 16 13 25 20 13 10 30 24 27 21 24 13 21 25 27 27 21 19 18 20 30 33 26 26 29 32 34 38 36 36 35 34 35 33 31 30 28 27 25
5 3 6 8 22 25 22 18 16 14 15 25 15 14 33 33 18 14 16 17 29 28 25 22 23 28 33 32 29 27 29 34 35 36 36 36 36 36 34 33 31 31 29 27
9 9 12 12 8 6 9 15 15 7 11 14 30 24 21 22 28 25 20 17 21 23 24 26 24 25 28 31 30 32 27 30 34 35 35 36 35 34 33 34 33 32 31 29
8 12 12 20 27 31 23 21 21 18 15 14 20 27 32 30 26 25 23 28 30 29 25 27 26 30 26 30 30 31 31 27 30 32 34 35 34 33 34 34 34 33 34 31
10 11 14 25 22 25 29 25 26 18 19 24 19 31 22 25 35 35 32 27 33 34 35 32 31 31 32 28 29 26 33 27 29 28 30 30 31 31 32 33 33 34 33 31
14 14 10 11 8 9 18 27 23 15 11 14 19 25 30 30 23 24 26 27 31 34 34 38 42 37 34 30 31 27 29 31 28 28 23 25 28 28 28 29 31 31 30 30
23 18 14 15 8 5 8 19 15 15 15 19 22 20 22 29 30 28 27 26 27 29 40 46 50 39 36 31 34 32 27 30 27 28 27 26 24 24 25 26 26 26 26 26
27 22 14 6 7 4 17 18 15 12 12 19 24 26 27 26 26 29 28 21 25 22 26 27 39 40 37 35 37 31 26 29 26 23 19 17 18 19 20 20 20 20 21 21
29 23 22 9 6 6 9 15 16 18 13 16 23 29 27 25 21 19 20 21 23 18 32 40 41 39 36 35 37 31 30 30 26 24 22 23 22 21 20 17 16 16 18 19
22 23 26 25 9 5 11 13 23 12 14 18 23 26 27 28 24 20 14 16 20 22 33 38 39 37 41 35 37 34 35 33 27 25 26 25 23 21 18 17 16 19 20 22
14 11 14 21 10 8 7 6 5 20 23 22 22 25 27 29 28 25 21 19 18 23 31 36 35 35 36 37 35 37 37 38 32 32 31 29 25 22 21 20 20 23 25 25
7 6 3 7 6 9 13 11 5 25 26 24 20 23 26 29 31 28 27 25 22 22 25 28 29 31 35 38 36 40 39 38 39 34 30 30 31 29 24 22 24 24 25 20
4 11 11 4 6 7 11 5 10 27 26 24 21 20 22 25 28 28 29 29 27 25 25 26 27 29 30 32 35 35 39 43 39 37 36 33 31 31 30 27 30 27 23 22
21 23 17 17 17 9 4 15 8 27 25 23 20 20 19 23 25 26 28 29 29 28 28 28 26 25 26 27 28 29 31 32 35 38 40 40 38 37 35 32 32 31 28 26
29 21 20 18 15 13 15 10 11 28 25 24 19 18 16 18 23 25 26 27 28 28 28 29 29 28 28 27 26 24 24 25 27 27 29 31 31 31 33 33 33 33 33 34

GFSCGP_700_spd_069.txt.gz
Wind_Speed
32 36 42 36 31 22 18 14 17 24 18 20 21 20 19 19 18 14 18 15 11 18 24 26 30 31 30 29 28 25 24 24 26 24 22 19 15 14 13 13 10 8 6 4
33 41 33 33 33 29 23 16 14 21 19 21 18 22 22 23 17 16 20 17 12 14 23 28 32 32 33 30 29 28 26 26 26 26 22 20 17 16 16 14 12 9 7 5
30 22 32 33 34 32 30 25 20 17 17 16 18 19 26 26 25 25 23 24 20 16 15 27 31 34 33 32 29 30 28 27 27 27 26 24 23 21 19 15 12 10 7 5
25 31 8 15 35 33 29 32 24 23 12 16 17 19 26 28 26 27 27 27 27 25 19 21 31 34 34 32 31 29 31 30 29 28 28 26 23 20 16 14 13 11 9 7
19 16 29 15 19 30 27 24 32 26 19 16 16 13 27 20 27 26 28 26 23 24 26 22 21 31 32 33 33 32 32 33 33 32 30 28 26 23 22 19 16 13 11 9
20 25 12 24 25 17 21 9 13 19 24 24 30 18 26 27 30 28 26 28 26 24 26 25 24 24 33 35 36 35 35 34 34 35 33 30 27 25 24 21 18 14 12 11
23 24 21 21 11 15 21 21 7 10 14 18 25 26 33 18 29 35 26 23 19 22 26 27 28 30 28 34 39 38 37 37 35 36 35 33 29 27 26 23 20 17 14 11
13 12 27 23 22 16 24 26 15 12 12 17 25 18 31 36 11 9 23 19 15 20 20 29 29 29 28 27 32 40 38 40 39 38 37 34 32 30 28 26 23 20 16 14
4 9 19 29 32 23 18 36 30 12 5 13 25 30 31 24 23 33 30 25 19 16 20 27 31 33 29 28 28 30 36 40 40 39 39 37 34 33 31 28 25 22 19 17
5 7 15 19 28 31 25 19 25 26 19 13 10 24 26 32 38 31 24 28 20 16 18 21 28 31 28 28 28 28 30 35 35 35 37 37 35 33 31 31 28 24 21 20
12 9 8 16 15 19 28 23 18 22 31 15 10 14 15 28 23 21 28 35 22 18 16 14 24 29 28 25 28 28 29 34 36 36 36 36 37 35 34 33 30 28 25 22
11 7 11 18 11 17 23 21 27 22 18 32 29 31 7 13 19 17 20 25 27 28 19 12 27 30 30 29 25 28 29 34 36 36 37 37 36 36 35 34 32 30 27 25
5 5 5 12 17 20 14 19 28 31 25 21 19 26 23 25 22 17 11 14 20 28 24 23 20 20 34 33 29 26 27 31 35 37 38 37 37 38 36 34 33 32 30 27
10 12 11 13 5 4 5 15 16 12 22 29 29 19 14 16 29 28 21 17 15 18 25 25 25 23 23 36 33 28 26 29 31 36 39 40 38 36 35 35 35 34 32 30
10 9 13 20 21 21 23 21 19 16 15 21 27 28 27 19 21 29 24 21 17 15 18 21 20 19 16 31 34 35 28 29 32 35 38 40 38 36 36 36 36 35 34 32
16 8 13 21 17 16 24 25 26 25 22 19 22 29 28 33 26 24 27 28 25 22 27 27 22 23 20 20 35 32 34 29 30 31 34 36 38 37 38 36 36 36 34 34
18 10 7 13 11 16 17 23 28 22 19 19 22 28 32 29 29 32 29 29 25 25 29 33 31 29 28 23 27 33 27 34 30 30 28 32 35 37 37 36 36 35 33 33
21 17 9 12 13 7 3 9 15 20 21 24 23 24 33 34 35 33 29 23 26 26 29 33 38 34 34 29 27 29 31 31 32 32 30 29 32 34 33 34 34 33 32 31
32 20 11 7 9 19 10 10 18 17 15 21 27 29 32 34 34 36 40 38 31 25 32 36 40 38 39 38 32 33 33 32 35 34 32 31 31 30 30 30 30 31 30 29
29 26 20 12 8 7 9 14 15 19 9 19 28 30 29 30 27 31 34 38 37 33 28 35 39 44 45 43 38 38 34 31 32 36 31 34 31 28 29 29 28 26 27 26
23 26 28 20 15 12 18 16 9 14 9 19 25 29 29 33 30 28 26 30 31 28 26 26 36 44 49 48 39 41 36 29 30 31 32 28 28 27 24 23 23 24 25 25
14 18 15 16 12 16 15 13 11 16 18 21 22 26 32 30 28 27 21 17 20 25 16 23 30 33 39 47 39 42 37 33 31 35 31 29 26 24 23 23 24 24 24 25
5 16 9 15 13 18 17 17 15 18 26 21 23 26 28 30 26 25 21 18 14 11 14 22 23 27 31 36 37 42 41 36 41 37 32 31 31 31 28 27 26 23 22 22
8 7 5 7 9 15 16 4 11 19 21 22 23 25 24 28 28 26 23 21 19 16 14 19 24 27 31 34 35 39 43 40 42 40 36 34 36 35 33 31 29 25 21 22
25 17 11 3 12 4 5 4 7 25 18 20 23 23 21 23 26 25 24 21 21 23 22 18 19 25 29 33 36 38 39 44 45 42 38 40 42 39 37 35 32 28 25 27
22 28 15 11 13 6 11 8 11 25 27 21 21 24 21 20 22 23 23 21 20 21 23 25 22 23 26 30 32 35 37 41 46 47 44 45 37 32 37 33 29 29 28 28

GFSCGP_700_spd_072.txt.gz
Wind_Speed
25 27 33 25 24 21 14 17 23 22 16 23 23 21 14 17 14 10 11 16 15 23 29 30 29 32 30 27 25 24 23 25 24 22 19 17 14 12 11 10 9 7 4 3
19 31 24 20 21 22 19 16 19 17 24 19 22 23 20 21 19 12 13 17 15 22 29 32 32 32 33 29 26 24 23 25 25 23 20 19 17 15 14 12 10 8 5 4
22 12 24 23 23 22 24 22 18 21 20 20 20 23 23 22 21 19 17 18 19 17 25 31 32 34 34 32 28 25 24 24 26 25 24 22 21 19 16 14 11 10 8 6
26 25 10 26 26 23 24 23 21 18 16 24 26 23 29 27 24 24 22 24 22 20 17 25 31 32 33 33 31 29 27 26 26 27 26 25 22 19 17 15 13 11 9 7
22 20 27 19 20 26 26 16 21 23 22 21 20 24 24 28 28 27 24 28 25 23 22 21 23 28 31 33 34 31 30 30 28 28 28 26 25 22 19 19 16 13 11 9
20 21 18 26 22 17 19 17 18 18 24 25 33 25 27 27 29 27 26 27 25 23 22 23 22 23 32 34 36 35 34 31 32 31 30 29 27 25 23 20 17 15 13 11
18 22 21 16 22 22 19 23 16 13 19 18 34 35 30 20 26 26 26 26 26 23 22 21 27 26 26 32 35 37 36 35 33 34 33 32 30 28 25 23 20 18 16 13
16 19 25 23 25 23 29 26 23 18 14 18 32 26 42 32 12 21 25 23 23 20 21 23 25 29 27 28 32 36 36 36 36 35 34 34 33 31 28 26 23 21 19 16
9 21 15 23 20 27 22 37 30 28 14 16 28 34 24 29 35 19 17 21 25 23 19 22 24 28 29 29 30 32 34 35 37 36 35 36 36 34 32 28 25 24 22 19
7 11 11 14 29 29 28 23 30 32 20 19 18 25 33 32 27 32 29 22 20 20 21 23 24 27 30 29 29 30 30 34 37 37 37 35 37 36 33 31 29 27 24 22
7 10 10 13 20 25 28 29 25 30 30 14 15 18 22 26 24 30 22 25 25 24 22 21 19 23 28 30 32 33 32 32 36 38 39 38 38 37 35 34 31 29 27 26
9 8 18 19 11 19 20 24 37 29 33 34 29 24 8 12 24 16 21 24 25 24 22 19 16 19 28 32 33 33 33 35 33 33 35 36 36 38 39 36 34 32 30 29
6 10 14 19 22 17 17 20 22 30 34 35 24 31 14 9 12 12 12 12 14 27 26 24 25 20 31 31 32 32 32 31 33 34 34 35 37 39 39 36 34 34 32 30
9 14 16 20 9 3 10 14 13 24 31 28 30 19 29 24 18 17 22 20 15 20 31 30 29 23 19 33 32 31 31 31 29 33 35 36 35 36 36 35 35 35 34 33
12 17 16 20 19 16 17 19 19 20 25 33 32 30 23 16 13 20 26 22 18 17 16 18 25 24 22 26 34 34 30 31 31 31 32 36 35 34 34 36 36 36 36 34
16 18 14 19 19 19 22 22 23 25 25 25 23 24 22 25 28 22 25 22 21 20 19 20 22 20 18 25 33 41 36 32 30 32 33 31 34 35 35 36 37 38 37 35
15 12 14 17 14 15 22 29 29 28 28 26 29 27 21 24 22 31 31 25 23 27 25 21 28 28 23 20 23 38 43 37 31 28 32 33 32 35 37 36 36 37 38 36
20 16 15 16 11 16 14 9 12 21 29 28 23 24 22 28 25 30 38 36 30 26 29 24 27 32 29 25 22 30 41 45 38 33 30 26 28 32 35 37 36 36 37 37
23 19 15 18 16 19 10 14 10 7 17 18 18 20 31 31 33 34 40 39 36 29 26 25 26 31 34 31 27 24 35 40 42 40 32 27 27 28 32 36 36 35 37 36
25 24 20 13 16 14 8 13 14 18 12 19 22 26 35 30 29 22 34 36 33 35 32 28 31 32 41 39 33 32 28 41 36 38 35 32 27 26 29 32 33 32 33 32
25 27 27 25 19 18 18 18 19 12 13 22 27 30 31 28 31 31 29 32 33 32 33 32 33 37 42 41 40 37 34 35 32 34 40 40 34 27 28 29 30 31 33 32
15 17 17 22 15 20 24 20 13 13 19 19 25 29 31 31 32 27 30 29 31 33 29 28 29 30 41 46 44 42 39 35 40 36 38 42 37 31 29 31 31 33 32 32
5 12 15 15 18 16 22 19 16 21 21 21 26 26 28 30 32 29 29 29 28 29 33 28 30 27 35 44 46 48 46 43 42 38 36 38 38 37 35 34 33 31 31 31
5 7 22 20 14 22 31 28 25 27 29 22 25 23 22 24 25 26 27 23 21 20 26 28 26 25 28 35 39 48 47 48 41 38 36 40 38 34 34 31 32 34 34 32
15 20 12 8 17 16 14 11 18 22 22 20 27 26 21 20 23 24 26 25 23 21 21 22 24 26 28 31 37 43 44 46 45 40 40 44 37 35 34 34 34 34 33 29
13 22 21 15 11 13 11 13 15 21 19 21 29 24 20 19 22 22 24 25 23 25 24 24 26 28 30 33 35 37 40 47 51 49 48 46 42 40 39 38 37 37 36 35

GFSCGP_700_spd_075.txt.gz
Wind_Speed
21 22 30 26 25 22 14 22 25 21 22 21 26 23 21 21 21 19 20 20 23 29 31 29 29 30 29 26 26 24 25 25 23 20 19 16 14 14 12 9 7 5 4 4
18 30 24 22 20 22 23 18 19 26 23 20 24 26 19 18 20 21 20 21 24 27 32 32 31 32 32 28 26 25 23 23 23 21 20 18 16 13 11 9 8 5 4 4
27 13 25 24 24 22 24 23 19 20 20 25 22 27 26 28 20 21 20 20 22 28 31 33 32 32 33 30 27 24 23 22 24 23 22 21 19 16 15 15 10 7 6 6
27 25 11 26 25 23 24 22 21 18 24 26 27 26 33 24 29 25 23 24 24 26 30 30 31 33 33 33 29 27 25 23 24 25 24 22 20 17 14 11 9 8 7 5
29 28 30 22 27 25 26 17 20 22 21 24 25 31 27 31 29 27 26 28 27 26 26 28 28 27 30 32 31 29 28 25 25 25 26 24 23 18 15 13 15 12 8 7
22 25 25 32 23 24 24 21 20 21 24 24 33 31 31 31 32 30 31 30 29 29 28 29 24 25 30 32 33 33 31 28 27 26 27 26 25 22 19 18 16 14 11 9
19 26 25 24 27 27 20 26 22 18 19 19 33 37 27 26 30 31 34 32 30 30 30 30 31 30 26 30 32 32 32 31 29 29 29 28 27 25 23 20 19 16 13 11
18 22 28 27 28 30 30 31 24 21 16 19 32 37 38 24 15 24 34 34 30 30 30 31 32 31 26 24 28 32 32 31 32 31 30 30 29 28 26 24 22 20 15 13
14 23 3 31 27 28 32 36 32 31 29 26 30 34 29 36 29 18 33 31 29 30 30 30 31 32 31 27 26 26 31 31 33 32 31 32 31 31 30 28 25 23 21 18
11 17 12 17 21 24 33 25 34 35 23 23 25 25 33 33 31 34 20 24 23 28 28 30 30 32 34 31 28 26 26 29 30 31 32 31 33 33 32 31 29 26 24 21
13 14 23 16 17 27 28 32 26 29 38 18 15 19 21 30 32 28 35 24 27 26 28 27 28 31 33 33 33 30 28 29 33 35 32 34 33 34 35 34 32 30 27 24
7 18 24 26 16 23 32 30 37 29 29 37 30 23 2 21 27 22 29 32 27 24 25 25 25 29 32 34 33 30 30 31 31 34 34 33 33 33 36 37 34 32 30 27
10 18 22 24 24 22 25 28 25 40 34 32 26 27 5 11 11 16 21 24 22 23 25 26 24 28 31 33 32 31 30 30 29 32 33 34 36 35 36 38 36 34 31 28
12 15 21 23 11 9 14 33 30 29 34 37 33 30 16 13 17 13 11 13 12 15 21 23 22 25 26 29 29 32 33 32 30 31 34 33 34 36 36 37 36 35 32 30
16 22 22 25 24 17 17 16 17 23 28 27 30 30 29 9 21 17 19 11 10 15 6 18 21 22 24 26 27 30 33 30 31 28 30 33 31 33 34 35 36 36 34 32
14 20 19 24 21 22 24 23 23 24 27 27 29 24 18 11 3 4 7 8 11 6 7 9 24 25 23 25 25 32 32 30 31 31 25 27 31 31 33 34 35 36 35 34
15 12 16 24 21 26 32 30 28 28 31 30 33 26 22 16 15 9 11 19 21 17 16 16 17 26 33 23 24 29 32 36 34 35 32 30 26 30 32 33 34 35 36 35
21 17 13 16 15 17 23 22 21 26 28 33 33 32 28 22 17 14 7 21 26 22 19 15 19 19 24 27 23 25 30 39 41 37 33 33 29 26 28 33 34 35 35 36
21 21 15 14 21 17 14 13 14 16 19 15 31 31 26 20 22 27 15 28 35 33 27 22 19 20 22 26 29 28 28 36 45 42 35 32 28 27 28 30 34 35 34 35
21 23 24 21 17 16 5 11 13 14 20 17 19 22 24 15 9 10 27 38 43 39 36 30 25 31 33 20 28 32 30 28 39 44 41 36 32 28 25 25 29 32 34 32
12 23 27 26 23 22 4 8 8 9 12 24 27 32 35 38 33 30 25 33 38 37 34 31 31 30 33 29 28 33 32 29 26 42 48 42 37 31 26 24 26 28 30 32
8 9 19 26 27 27 15 15 11 14 21 22 26 30 30 35 35 37 31 30 33 35 33 32 32 30 34 33 36 32 34 33 30 34 44 47 44 36 34 27 26 29 30 31
5 6 10 10 19 16 21 19 23 24 28 24 26 25 28 31 35 34 31 36 34 35 32 32 32 30 27 30 33 36 31 37 37 33 43 42 45 44 38 32 27 31 31 33
12 8 14 22 21 23 22 23 27 30 31 30 25 27 28 31 30 30 30 35 36 33 31 31 31 29 28 29 31 40 46 43 41 38 41 44 44 49 43 37 31 30 32 33
12 15 19 18 16 29 25 29 34 34 31 31 26 31 28 30 26 28 29 34 32 31 27 27 30 28 29 28 32 39 47 50 47 40 42 46 44 47 48 42 37 36 36 36
16 13 19 17 13 15 16 19 21 26 26 27 29 27 25 27 25 26 27 33 32 31 28 29 28 27 26 29 33 38 42 45 45 43 43 46 44 44 46 44 42 41 40 37

GFSCGP_700_spd_078.txt.gz
Wind_Speed
18 20 24 22 22 22 21 21 20 20 21 24 20 22 25 26 19 26 29 24 28 31 34 32 30 29 27 26 22 22 22 19 20 18 17 14 14 16 12 9 7 4 4 4
19 28 20 17 20 22 23 22 20 20 21 22 22 26 27 28 21 28 34 25 26 26 30 34 34 31 29 26 23 24 23 19 20 19 17 15 15 15 15 16 8 5 3 4
25 16 19 22 21 23 23 23 20 19 16 20 24 21 31 25 9 23 27 23 25 31 32 32 34 34 31 28 23 24 23 19 21 20 20 18 17 15 13 10 8 7 5 4
24 23 16 21 26 22 25 20 22 20 19 23 23 25 35 28 26 28 21 27 28 30 33 35 32 35 33 29 26 24 23 20 23 23 22 20 18 14 11 11 10 8 5 5
22 25 26 24 23 24 25 19 19 22 23 23 28 26 20 30 33 37 20 32 31 30 33 32 28 32 31 31 27 25 25 23 23 24 24 22 20 17 13 12 9 8 5 4
19 20 26 28 24 19 22 22 21 21 24 23 29 28 28 31 36 33 18 35 34 30 33 34 32 26 29 30 29 28 26 24 25 24 24 24 22 19 16 15 14 10 7 6
14 22 22 24 26 28 22 22 21 19 19 17 27 30 28 21 31 32 23 34 36 34 31 36 35 32 25 27 26 27 28 27 25 24 25 24 24 22 19 17 14 11 9 9
18 15 20 26 28 27 31 27 26 18 13 17 29 30 34 35 18 32 22 33 37 33 35 31 37 33 27 25 24 25 25 28 27 26 25 24 25 26 23 20 16 15 12 10
12 18 20 16 26 27 27 35 29 33 29 27 29 27 30 29 25 22 22 35 40 42 36 36 34 35 28 26 23 20 22 25 29 28 27 27 26 27 26 24 21 19 16 12
10 21 17 14 15 31 31 25 31 33 21 22 26 29 30 30 32 25 26 27 36 46 41 40 36 34 30 25 25 24 21 20 25 28 28 28 26 27 28 27 24 22 20 18
11 16 25 19 15 20 23 33 32 25 34 16 15 23 24 36 33 34 26 21 20 36 40 43 38 33 22 24 27 28 26 21 24 31 30 30 29 29 30 29 28 25 23 21
9 14 20 22 19 17 22 23 30 25 23 27 32 30 19 8 30 31 25 27 21 24 21 29 42 29 28 26 27 27 29 27 22 28 31 30 30 29 30 32 31 29 27 24
9 7 19 20 20 22 22 25 29 30 31 34 22 34 19 8 9 22 25 20 22 16 21 16 24 30 31 29 27 26 27 27 27 25 32 33 32 31 31 31 31 31 30 26
14 19 21 25 18 20 17 27 29 30 34 32 33 27 7 8 8 7 20 20 16 21 20 20 25 22 30 28 29 27 28 27 25 24 27 31 32 32 32 32 32 32 31 30
11 20 23 29 28 23 22 21 19 27 34 33 26 29 18 9 12 16 5 20 19 14 13 19 23 17 29 35 28 28 28 30 27 26 23 25 29 30 32 34 33 33 32 31
11 19 19 26 28 25 26 25 25 25 21 25 28 31 11 22 9 7 7 8 9 10 22 23 26 23 33 30 27 22 23 27 30 27 23 22 24 29 30 33 35 34 34 32
16 14 12 18 20 26 30 29 26 25 26 25 26 22 15 15 14 12 2 1 6 6 25 26 30 26 22 27 26 19 21 23 31 31 27 24 24 26 29 30 32 33 34 34
19 19 16 12 17 11 23 26 23 34 29 28 29 27 26 19 16 20 11 8 14 15 20 23 23 36 35 26 22 24 19 23 30 33 32 28 25 24 26 30 31 31 32 34
17 21 17 11 18 20 21 8 9 4 22 16 18 13 8 7 6 12 10 9 21 21 17 21 23 16 20 33 30 29 29 28 27 34 36 33 25 27 26 28 32 32 32 32
15 20 25 22 16 6 8 7 20 11 18 15 22 21 18 15 24 25 21 22 27 32 25 19 18 20 19 19 23 30 33 33 31 29 37 40 34 28 26 27 27 29 32 31
13 15 21 24 25 23 24 16 7 15 9 13 24 27 25 20 23 27 19 21 25 34 33 25 26 26 25 21 25 19 23 34 30 30 28 36 40 33 29 29 31 31 30 31
7 8 7 12 17 16 9 10 16 18 20 21 24 26 35 27 27 26 31 32 31 35 34 28 27 29 28 26 24 32 23 23 31 34 30 30 38 42 35 31 30 30 31 31
4 8 8 7 9 14 22 19 7 19 30 27 30 28 33 36 35 32 33 38 39 42 38 29 29 31 30 29 26 35 42 30 32 38 33 27 34 41 42 37 32 29 29 32
8 8 13 20 17 22 33 29 26 27 31 27 34 37 33 36 38 40 37 37 37 39 39 34 32 29 31 31 29 25 40 52 36 34 35 31 28 35 42 43 39 36 31 28
9 13 17 24 22 26 18 28 33 34 37 34 34 35 35 34 40 39 38 36 33 34 38 38 38 36 31 30 28 27 31 38 38 38 36 37 34 32 40 42 47 43 37 28
13 15 18 20 19 23 21 21 28 38 44 43 41 39 33 34 36 30 31 26 26 30 34 37 38 37 32 28 27 27 31 34 35 36 39 38 37 37 40 42 45 46 41 34

GFSCGP_700_spd_081.txt.gz
Wind_Speed
14 16 21 21 19 18 22 24 21 18 13 18 27 27 25 19 22 21 23 32 18 35 35 31 29 28 25 23 20 20 20 22 20 18 16 13 11 12 11 9 12 8 8 6
13 21 17 12 12 17 16 21 22 20 11 19 25 31 26 27 29 20 21 29 33 22 36 36 34 31 28 24 21 21 18 21 20 18 15 14 12 12 12 11 11 9 7 5
17 11 7 16 17 21 23 22 19 22 19 17 12 24 31 30 27 22 22 15 37 35 26 38 39 36 32 26 24 22 18 19 21 21 19 18 16 14 10 8 9 8 6 4
17 16 19 21 17 18 22 18 18 21 23 23 15 9 30 29 31 23 14 21 35 38 35 31 42 42 36 27 25 23 20 18 21 23 21 18 15 13 9 9 8 8 5 6
15 16 18 20 19 17 22 17 19 18 22 24 28 16 13 37 32 25 24 26 33 40 36 37 30 34 35 29 26 24 22 21 22 23 22 19 17 14 12 12 10 9 8 6
13 14 16 20 20 16 12 19 21 19 18 14 30 22 11 30 26 31 32 30 12 31 39 38 31 30 32 32 28 28 23 22 23 23 23 21 18 17 15 13 11 12 9 7
11 12 15 16 15 21 19 13 12 9 11 7 19 26 28 19 24 28 26 28 28 43 42 37 34 30 32 31 28 30 27 24 25 23 23 22 20 19 15 13 9 9 8 7
12 12 13 6 18 16 21 21 17 6 4 12 26 16 32 28 26 22 27 26 31 48 43 31 28 24 25 26 26 28 30 27 26 23 22 22 23 21 19 16 12 10 9 7
10 10 14 4 7 14 23 27 28 25 27 21 25 24 27 23 28 26 28 35 37 39 40 31 26 20 22 24 22 24 28 30 28 25 23 23 24 24 21 18 15 11 10 9
3 12 13 12 9 9 8 24 18 28 4 7 16 27 19 24 25 24 23 36 33 40 44 48 42 34 19 21 24 20 22 30 30 29 26 23 23 24 22 21 18 15 12 12
4 4 24 23 4 13 17 16 29 21 20 10 4 17 23 29 28 32 31 29 36 24 49 30 38 45 46 29 27 27 23 25 32 33 31 28 25 25 24 23 21 18 16 17
6 9 17 23 27 13 17 17 21 10 13 20 13 22 22 30 25 15 35 34 28 22 36 40 32 44 52 43 34 26 25 26 28 33 32 31 28 27 27 26 23 21 20 20
8 5 13 21 14 12 16 13 16 23 22 22 11 20 14 14 5 12 20 28 27 22 31 32 36 42 49 45 46 33 23 27 27 29 34 33 32 31 30 28 26 24 23 22
15 6 9 14 23 26 27 24 14 14 19 24 29 30 23 12 19 25 27 14 13 19 7 6 15 14 49 46 49 40 25 22 28 29 31 34 33 32 31 30 29 28 26 25
14 12 12 17 22 23 27 31 27 22 21 21 25 23 20 16 9 5 17 23 26 21 18 10 20 34 42 46 54 47 26 18 22 26 27 28 30 32 32 31 31 30 28 27
10 10 17 22 17 20 27 28 26 23 21 23 25 19 20 23 29 22 13 8 14 22 22 22 27 22 34 39 56 50 43 21 19 22 24 25 24 29 31 31 31 31 29 28
11 15 14 10 11 19 23 26 24 25 22 26 24 14 11 11 14 19 14 14 9 8 14 15 23 18 28 28 46 41 40 36 24 20 21 21 25 22 27 28 30 31 31 29
12 15 17 9 13 5 18 11 20 23 15 18 10 12 8 22 23 24 26 14 11 9 7 4 6 9 19 29 38 39 37 36 31 23 22 22 20 23 22 27 29 29 30 33
14 13 14 13 12 23 28 9 8 9 11 11 7 10 11 16 16 17 24 26 24 18 14 7 5 6 5 9 19 25 31 12 33 32 23 22 23 21 21 23 26 27 28 29
13 15 14 11 4 4 12 15 17 18 7 8 10 10 7 11 19 22 18 21 21 26 27 19 17 9 4 3 8 20 14 21 22 36 34 23 20 24 21 21 20 23 27 27
9 6 7 12 13 9 13 12 9 10 9 12 18 20 13 8 11 23 27 28 31 34 31 23 20 20 13 8 10 13 30 34 33 32 31 32 28 23 25 22 24 25 24 26
5 5 4 5 5 7 21 17 7 11 15 21 21 27 29 22 18 21 22 24 26 30 33 22 18 18 16 15 16 17 21 24 37 37 31 26 26 26 24 29 26 26 27 28
5 4 7 7 9 21 23 25 28 27 21 24 28 28 28 30 31 28 28 27 34 38 36 41 35 32 24 20 18 20 22 25 25 20 20 25 26 25 27 28 32 29 29 30
11 12 13 18 10 25 28 32 34 38 40 35 36 38 33 37 37 37 33 32 37 36 39 42 37 36 29 26 23 23 23 24 31 29 26 22 22 29 26 29 31 35 33 31
14 14 18 19 20 24 25 26 31 32 37 42 43 39 39 39 36 37 37 36 38 39 39 39 35 34 32 29 27 26 27 26 26 31 32 30 32 29 28 28 30 34 38 34
9 11 15 18 18 19 27 27 27 28 31 35 37 42 44 41 40 39 39 33 32 38 36 42 41 40 34 31 31 28 27 31 30 29 35 39 38 28 28 29 29 32 35 39

GFSCGP_700_spd_084.txt.gz
Wind_Speed
25 21 18 18 16 14 16 15 18 14 8 15 20 28 24 19 17 24 13 20 20 33 34 29 29 26 20 19 18 19 21 21 20 18 14 11 12 14 14 10 10 9 9 7
16 17 16 11 13 12 11 11 15 16 9 15 20 30 31 25 20 22 19 14 19 22 35 28 34 34 28 21 19 19 23 23 22 19 14 12 13 13 13 13 12 10 10 9
14 6 8 12 10 12 14 18 15 18 17 18 5 20 28 27 22 22 21 19 17 23 30 36 39 37 32 25 23 21 21 24 25 21 19 19 18 16 13 13 14 10 10 9
8 11 9 10 14 11 18 14 16 17 15 11 3 5 28 34 31 29 29 28 23 30 33 26 34 38 35 23 22 21 21 23 26 24 22 19 15 10 12 13 13 11 9 9
7 9 8 14 17 12 18 11 15 17 16 15 4 4 3 31 36 37 34 24 26 18 34 29 30 30 32 32 23 22 22 22 27 26 23 20 18 15 13 14 14 11 10 9
9 10 8 6 12 15 16 13 17 17 14 9 1 5 6 17 28 36 35 29 25 20 30 33 29 28 34 29 27 26 25 24 26 27 25 23 20 17 17 17 15 12 11 10
4 6 7 9 13 12 11 10 2 4 2 6 15 12 5 12 14 23 31 33 30 26 24 34 29 26 32 28 26 27 28 26 26 27 27 25 23 21 19 16 14 13 13 12
2 1 2 3 3 7 11 8 7 5 3 4 12 5 10 17 19 22 19 20 31 28 28 34 31 21 21 25 26 27 30 28 27 27 25 25 25 24 21 18 16 16 14 12
2 7 9 3 4 2 8 12 12 14 16 5 7 18 18 3 17 26 28 24 24 32 32 28 36 21 17 21 23 25 29 31 29 27 26 26 27 26 22 19 17 16 15 14
2 6 12 8 2 5 9 4 7 11 5 3 4 12 13 23 18 17 27 31 26 28 33 28 37 27 22 24 20 19 26 31 31 29 28 26 26 27 25 22 20 18 17 15
3 7 15 13 5 18 13 16 9 6 6 7 2 3 15 16 21 22 18 28 37 31 32 24 31 30 28 29 26 23 22 23 31 33 31 29 28 28 27 26 22 20 19 16
7 8 16 21 17 12 1 11 18 8 6 5 3 8 15 18 25 19 19 22 36 35 38 32 23 27 35 32 24 25 25 26 23 31 34 34 30 29 28 28 25 23 21 19
10 6 9 11 5 6 4 12 15 9 3 7 2 1 18 15 16 11 7 22 31 40 43 37 40 27 37 38 34 31 27 26 26 24 33 36 35 34 33 30 28 26 24 22
9 6 3 3 9 16 24 22 16 13 6 20 7 26 19 18 18 14 18 15 32 43 46 33 36 43 46 40 42 39 36 32 28 28 27 35 37 36 35 33 31 29 28 27
9 6 7 9 11 17 21 23 22 16 13 10 21 23 10 15 18 16 12 17 24 26 32 32 33 48 46 41 45 42 46 40 32 27 28 30 33 36 37 37 35 32 31 30
5 5 9 13 12 13 20 20 19 18 16 17 11 2 8 8 8 12 12 15 8 22 21 23 31 40 47 54 55 52 55 48 35 25 24 25 30 33 37 38 38 37 34 32
13 9 10 8 15 19 8 10 13 9 9 9 4 4 5 11 14 14 14 14 16 4 12 8 22 33 40 29 38 59 57 47 40 30 30 28 25 29 32 34 38 37 37 34
11 9 10 7 11 3 3 6 12 3 1 2 7 12 11 14 18 18 19 19 20 17 4 9 6 17 21 30 31 40 47 46 45 43 30 29 28 21 26 32 33 36 37 37
9 13 9 7 11 17 22 2 2 8 8 5 16 14 10 12 18 15 18 17 22 23 20 5 7 5 2 20 32 32 38 44 42 41 37 36 29 24 22 29 30 31 34 36
12 15 14 12 5 5 7 7 8 14 19 19 18 22 14 5 15 20 16 12 13 22 19 21 5 5 4 6 14 22 32 37 36 31 36 37 29 27 22 24 28 26 29 31
8 6 8 13 11 10 22 24 17 12 15 19 21 24 13 14 10 11 16 15 18 23 29 26 18 6 10 3 6 10 25 37 28 35 43 60 41 27 24 15 19 26 26 27
4 3 4 5 6 9 13 14 12 15 17 23 24 25 29 25 24 22 15 14 19 24 28 33 25 16 8 7 10 8 12 23 30 22 21 43 31 34 26 25 22 23 28 28
6 5 5 6 8 17 20 19 24 27 28 28 32 31 31 34 29 26 26 24 20 23 25 30 30 29 17 18 21 14 12 16 22 28 34 31 29 25 25 28 28 26 27 29
12 13 14 14 11 17 20 23 26 28 30 32 34 37 40 43 42 35 32 30 29 26 26 32 30 33 33 32 28 23 20 15 21 21 27 31 34 32 29 28 24 28 30 30
14 13 12 16 13 16 17 21 24 29 25 26 27 30 35 42 47 47 38 30 33 33 30 31 33 37 43 46 37 26 25 23 20 24 25 28 29 26 23 22 21 24 26 31
10 13 16 18 17 17 18 20 23 26 27 25 27 28 28 34 38 43 47 42 31 35 33 31 35 37 38 33 38 36 28 28 26 24 28 23 28 33 26 26 18 23 23 24

GFSCGP_700_spd_087.txt.gz
Wind_Speed
29 25 25 22 17 15 14 12 10 6 2 11 8 13 21 20 12 16 19 21 22 24 22 19 15 17 14 9 10 17 20 18 16 13 15 16 14 12 9 9 8 6 6 5
25 24 21 19 20 13 13 14 10 5 3 15 11 15 17 27 19 14 19 19 21 25 25 24 21 18 17 12 12 15 18 19 16 14 13 12 13 13 12 9 8 7 7 6
20 13 19 15 12 14 13 14 9 7 12 10 9 6 23 30 23 19 22 19 23 25 24 25 26 18 18 16 17 15 18 19 19 16 16 16 16 15 14 11 9 7 7 7
13 11 13 13 14 12 13 12 7 7 8 6 3 1 10 36 28 26 29 25 28 29 29 24 26 25 20 15 19 16 16 18 20 21 19 18 15 14 12 10 10 8 8 7
8 9 9 9 11 8 11 3 8 11 9 4 6 5 3 26 34 29 29 29 31 32 28 27 29 26 21 19 17 17 16 18 21 22 21 19 18 16 14 13 15 11 9 7
9 5 5 5 8 9 10 11 11 9 7 2 6 4 2 6 11 26 31 34 33 35 28 28 30 25 23 26 23 20 18 18 22 23 22 21 20 18 17 15 16 12 10 10
8 7 8 10 12 9 9 9 1 2 3 5 4 2 4 7 10 12 10 27 33 31 29 29 30 34 28 26 22 22 21 21 22 24 22 22 20 19 18 18 17 13 12 10
5 5 7 5 9 10 10 9 6 5 4 4 6 8 3 6 7 10 15 19 32 32 29 31 27 29 29 24 22 21 21 21 23 24 24 23 23 22 19 19 19 15 14 12
3 5 6 10 5 9 8 6 5 3 4 3 1 2 8 8 9 10 10 17 19 20 33 30 23 23 29 24 24 20 21 20 23 23 25 24 25 24 22 20 18 17 18 16
0 1 3 7 5 8 7 4 4 5 4 3 3 6 14 11 11 15 15 11 21 20 26 39 29 19 22 22 21 20 19 20 20 24 26 25 24 25 24 23 21 20 20 19
1 3 4 6 11 12 4 5 4 5 2 5 3 5 11 17 23 23 16 16 15 22 24 34 33 27 24 20 19 18 19 20 22 27 28 27 26 26 27 26 24 22 22 21
3 4 6 9 7 5 5 13 9 3 2 4 3 6 13 17 20 27 24 18 19 24 24 28 39 31 38 34 24 19 20 21 21 25 29 30 28 27 27 28 26 25 24 23
7 5 2 8 13 9 4 9 9 6 6 8 2 2 8 10 15 19 20 15 15 18 22 25 34 34 34 37 32 29 28 25 25 23 24 30 32 31 29 28 27 28 28 26
11 4 3 6 1 7 10 12 7 5 4 1 7 9 6 6 9 11 15 12 9 15 21 26 33 37 35 33 32 36 33 30 30 28 28 28 31 33 31 30 29 29 29 29
5 6 5 5 5 6 7 8 6 3 2 4 2 5 7 6 5 9 8 7 9 15 23 30 36 41 46 34 35 37 40 37 31 33 30 29 29 32 33 34 33 31 31 30
8 2 3 5 4 9 9 11 5 4 6 11 5 7 7 2 2 4 4 6 9 7 20 23 24 35 45 44 44 40 43 42 35 31 31 28 29 31 35 35 34 35 34 33
1 3 5 2 8 6 5 9 6 1 5 11 12 10 8 7 9 11 13 11 11 11 10 13 26 25 29 36 39 45 43 41 37 31 32 31 31 34 33 34 35 35 36 37
5 3 2 3 7 1 4 4 1 1 3 10 14 12 10 12 11 9 13 16 19 18 17 11 9 11 15 24 33 45 50 46 43 44 42 37 31 37 35 34 34 34 35 38
6 7 6 3 4 6 13 14 10 9 10 13 16 13 9 11 17 11 11 16 18 15 23 23 20 9 7 8 11 14 33 38 50 55 53 45 40 37 34 35 31 30 32 34
9 9 9 8 4 4 6 10 11 10 18 18 20 21 26 14 16 20 16 13 14 19 15 19 24 20 11 5 6 9 7 30 34 38 40 48 43 40 36 35 32 30 29 28
9 10 11 13 8 7 14 16 16 15 12 18 22 21 22 25 19 25 26 14 15 18 20 19 19 26 24 5 5 7 11 11 27 31 41 42 44 39 35 35 31 30 30 29
5 4 5 7 5 8 11 12 13 15 17 20 24 25 25 28 29 27 29 22 19 18 21 20 20 20 37 22 3 3 7 14 17 26 32 34 49 46 35 37 31 33 32 33
6 8 4 7 5 7 12 17 16 19 20 24 29 33 36 37 36 30 34 34 27 25 25 25 18 21 21 42 29 15 9 8 9 16 30 29 26 30 43 45 31 35 32 32
11 12 14 13 8 11 16 19 19 19 20 24 26 28 34 37 39 42 41 36 34 36 29 29 26 21 24 27 43 29 22 13 10 11 16 31 36 34 27 34 42 44 35 33
11 11 12 15 14 16 17 18 19 23 23 24 26 27 29 32 34 38 41 42 44 40 39 35 33 29 25 26 34 41 28 29 19 14 16 18 23 26 28 38 34 30 28 28
8 11 15 18 16 20 20 21 21 24 25 27 27 25 25 27 29 34 38 38 43 46 44 41 37 35 32 27 27 42 50 49 39 26 19 18 20 24 20 30 25 22 26 29

GFSCGP_700_spd_090.txt.gz
Wind_Speed
30 29 29 21 10 11 13 10 9 8 2 4 8 8 12 15 10 11 13 14 15 23 25 25 23 20 17 12 10 13 15 15 11 9 12 14 12 10 7 9 8 8 6 5
29 29 22 16 12 12 15 13 10 4 5 7 6 8 10 18 17 13 12 8 12 19 28 25 24 23 20 14 11 12 14 15 13 12 13 13 12 11 9 8 7 7 8 6
27 21 18 17 17 17 13 14 13 6 3 2 3 5 8 17 17 18 17 14 16 17 23 24 25 25 21 18 14 10 11 14 16 15 16 16 15 14 10 6 5 5 6 6
14 11 22 19 18 15 18 14 12 5 2 2 2 4 6 15 19 23 22 21 19 21 20 22 23 24 21 19 15 9 9 13 16 16 15 15 13 12 8 7 7 6 6 5
10 22 11 20 17 14 10 10 6 5 5 2 2 2 4 3 18 21 22 22 19 19 21 19 18 21 18 19 17 13 10 12 16 17 16 15 13 13 14 10 9 7 5 6
11 11 12 12 11 12 8 6 5 5 7 2 5 3 5 4 6 21 30 26 25 23 22 19 18 20 23 21 19 18 14 13 15 16 16 14 14 14 14 13 12 10 8 7
9 8 9 12 11 11 11 11 4 2 3 5 12 5 4 8 3 7 8 23 33 30 29 28 21 18 22 24 27 23 19 17 15 16 15 15 15 16 15 14 13 13 10 8
8 7 9 9 14 12 12 15 6 6 5 6 10 9 7 6 4 6 9 8 14 23 34 31 28 21 21 23 21 24 22 20 18 17 16 15 18 18 17 16 15 13 12 11
6 7 11 10 10 15 11 11 10 7 5 5 6 5 13 3 4 8 7 7 7 14 19 27 32 25 21 24 25 21 22 21 19 17 17 16 17 20 19 18 17 16 16 15
6 9 5 3 6 6 14 12 8 6 4 3 5 6 6 3 5 8 8 8 7 6 15 20 30 35 25 20 24 23 23 20 19 18 19 18 17 19 21 21 20 18 17 19
5 4 4 1 7 7 6 9 6 9 4 6 4 2 6 11 13 10 8 9 10 10 14 18 23 31 36 28 27 27 25 24 21 21 19 19 20 19 21 23 22 21 19 21
2 4 5 9 7 7 6 7 9 8 6 5 7 5 3 5 9 11 12 12 11 8 10 20 22 25 29 26 24 25 28 25 23 24 22 22 22 22 22 23 24 23 22 22
1 3 7 7 4 4 6 6 5 8 12 6 5 7 8 4 3 7 10 9 11 11 9 15 19 24 29 29 25 32 29 27 28 30 25 25 26 26 25 24 24 26 26 25
1 5 7 10 6 7 7 5 6 7 6 11 8 14 11 9 6 3 6 10 7 8 6 8 15 21 30 33 30 35 34 30 30 31 31 30 29 29 27 26 26 26 27 28
3 8 8 8 4 1 3 6 6 8 6 5 10 12 9 10 8 5 2 3 5 6 8 12 16 17 25 32 33 32 36 32 33 32 32 30 32 31 30 31 30 29 28 28
1 9 8 6 4 2 2 4 6 7 10 7 7 11 12 9 7 5 2 1 2 2 6 10 2 17 27 28 34 33 32 33 30 32 33 33 34 33 35 34 34 35 33 32
4 8 6 7 3 9 5 6 5 5 6 10 14 14 16 12 14 10 9 7 7 5 5 7 13 8 10 24 33 36 38 36 33 32 35 33 32 33 34 34 36 37 38 36
8 6 5 5 3 3 6 7 5 3 5 8 9 13 14 16 19 19 15 12 10 11 12 11 14 13 12 9 23 29 34 36 37 38 36 36 32 34 33 34 34 35 37 39
8 8 5 4 4 3 12 11 10 8 11 12 10 8 8 10 13 18 20 23 19 14 14 14 18 19 18 14 8 15 26 28 30 35 41 37 34 35 31 33 37 34 34 37
9 8 9 13 4 6 4 14 14 10 17 15 16 17 17 16 18 18 21 22 25 25 20 18 18 19 26 22 17 8 7 16 22 24 31 40 44 41 40 35 30 38 37 38
11 10 13 13 9 7 12 12 12 11 8 13 15 16 19 21 23 22 26 26 28 30 23 26 23 24 24 24 23 21 12 8 13 23 30 33 36 36 43 40 40 38 37 39
9 9 10 14 11 11 15 20 17 16 18 18 21 23 24 27 28 27 26 30 33 34 31 24 31 26 25 28 30 33 27 11 12 20 24 31 39 36 40 39 39 40 34 39
9 12 7 10 7 8 9 11 14 17 20 21 22 25 27 29 34 35 36 36 35 39 40 35 32 30 26 26 31 34 33 21 11 13 25 18 24 26 32 38 41 34 29 37
12 12 12 11 13 15 17 17 16 18 20 22 22 27 28 28 28 31 38 40 40 41 43 44 42 33 28 26 28 33 32 27 23 19 10 16 35 16 24 28 46 41 38 36
12 12 13 14 11 15 15 16 17 18 19 23 25 26 28 31 32 32 33 34 39 44 47 48 48 44 34 29 28 28 32 34 33 25 19 5 18 17 22 28 30 46 48 41
16 13 13 11 11 14 15 17 20 19 18 21 25 25 28 32 34 35 36 36 36 39 45 49 51 53 45 39 32 32 27 35 40 31 28 16 23 21 24 28 36 33 33 46

GFSCGP_700_spd_096.txt.gz
Wind_Speed
21 17 22 20 20 10 17 14 12 10 11 11 9 6 6 7 9 11 16 15 18 24 25 23 21 19 19 20 19 16 13 11 7 8 7 7 7 5 4 5 5 5 7 6
19 20 18 19 18 14 17 16 14 10 12 9 6 6 6 7 9 10 10 16 20 21 26 27 23 21 18 20 21 18 16 12 7 8 8 11 8 4 3 4 4 4 6 6
18 15 19 19 17 18 18 17 14 10 9 7 8 7 5 8 9 10 8 9 16 20 24 27 25 23 20 20 22 20 16 12 9 7 9 9 7 4 3 2 3 3 4 6
15 12 20 18 18 19 19 15 13 10 12 13 16 4 7 6 8 9 11 11 14 20 21 24 24 24 22 19 20 21 18 15 12 9 9 9 8 6 6 3 2 2 4 5
13 17 20 18 17 18 11 16 13 12 13 7 17 16 5 11 10 5 5 11 11 15 21 21 24 24 21 21 21 19 18 16 14 11 10 10 8 7 6 4 4 1 2 2
10 15 17 17 16 16 10 14 14 13 14 15 15 16 8 5 4 6 5 8 10 13 15 21 22 23 24 23 22 21 18 15 14 13 12 10 9 9 8 8 6 4 2 2
11 16 13 15 16 16 15 20 17 14 12 11 15 11 9 6 6 6 10 16 17 16 17 18 22 25 26 27 24 23 20 16 13 12 13 12 12 10 9 9 9 6 6 4
17 15 14 16 16 18 23 24 17 12 13 15 10 9 8 7 8 10 9 13 20 20 20 21 20 22 24 26 23 23 19 17 14 11 10 12 14 13 12 11 10 9 7 6
15 7 12 18 22 16 24 23 13 8 11 14 19 11 11 7 6 11 10 8 9 16 22 24 23 23 24 25 25 24 19 17 16 12 10 9 11 14 14 13 12 11 8 8
9 10 8 11 19 19 14 19 16 15 13 14 15 17 12 7 4 8 9 8 7 7 17 20 20 27 25 25 27 27 25 23 20 19 16 12 10 11 14 16 14 13 12 12
8 8 8 13 7 10 16 15 17 14 10 15 10 10 9 9 10 10 11 7 7 7 14 18 14 24 27 27 27 25 25 25 22 22 24 21 16 12 12 14 16 15 15 14
11 5 9 8 8 15 18 11 16 19 16 16 9 9 11 12 11 11 7 8 7 6 11 22 24 24 23 32 31 29 28 27 26 26 26 25 23 21 17 14 15 18 17 17
9 6 11 8 6 6 7 7 11 15 12 23 16 11 18 14 11 10 9 6 4 5 6 12 20 20 28 25 24 31 31 29 27 27 29 29 27 25 23 18 16 17 20 20
11 5 7 4 3 7 7 5 8 13 21 19 19 16 21 19 15 13 11 8 6 5 6 9 8 13 19 25 23 26 32 35 33 30 32 33 31 28 27 25 23 21 20 22
7 6 5 2 5 6 5 6 6 8 12 15 13 19 24 21 17 14 13 9 6 4 4 4 7 7 8 13 19 24 29 35 34 31 35 36 35 33 33 31 30 28 27 25
10 7 7 6 10 10 9 10 10 9 8 8 18 20 24 23 20 17 14 13 11 9 7 5 4 8 12 10 11 15 23 30 29 29 35 38 39 36 33 33 35 34 32 31
5 9 10 12 6 6 11 17 14 14 13 15 15 18 27 25 21 20 18 15 13 11 9 8 7 6 4 4 7 13 17 18 20 29 31 36 39 37 36 38 37 38 37 36
5 9 9 6 8 10 5 11 13 13 12 13 16 18 23 23 22 21 18 17 14 13 12 10 9 7 6 7 6 5 7 9 15 20 24 30 37 35 34 35 39 41 42 41
9 9 7 8 16 3 6 11 15 14 12 14 15 16 18 19 19 22 23 22 20 19 17 16 14 13 12 12 13 12 10 11 12 13 18 28 36 36 31 28 34 39 40 40
10 11 10 9 9 7 3 12 14 13 14 19 15 15 16 17 11 16 21 22 21 21 22 23 22 22 20 19 18 17 16 14 13 12 11 16 26 40 32 41 29 36 40 40
11 12 16 15 12 6 6 10 15 12 7 18 19 17 18 12 19 20 20 20 22 24 25 27 28 26 26 26 24 22 22 22 20 19 15 16 19 21 29 32 43 36 37 40
10 9 11 14 12 16 11 15 13 12 10 12 18 18 16 17 17 21 22 23 24 25 27 28 28 30 30 30 30 30 29 26 26 26 25 22 20 21 25 28 30 34 38 41
10 12 10 10 7 13 9 15 24 18 15 14 16 17 17 17 18 19 21 22 23 24 26 29 31 31 32 34 34 33 32 35 34 32 31 31 31 31 32 28 28 36 36 41
15 19 16 11 12 18 13 12 16 18 18 16 15 17 17 16 17 18 20 23 25 25 26 28 28 30 31 35 39 41 37 36 34 35 35 37 37 36 34 33 30 30 35 40
12 14 18 19 16 15 15 15 14 16 17 18 17 17 17 17 18 19 20 22 23 25 27 30 31 31 33 35 36 41 44 44 40 36 37 37 35 39 39 37 34 35 29 34
19 18 18 14 10 15 11 15 17 18 17 18 18 19 19 17 17 19 22 25 26 26 28 31 33 35 36 36 38 38 41 46 48 44 39 41 41 37 41 41 40 35 33 38

GFSCGP_700_spd_099.txt.gz
Wind_Speed
17 17 22 20 23 20 17 16 13 10 16 11 8 20 20 17 14 15 24 25 23 22 20 18 16 17 18 17 16 14 12 10 8 10 12 10 11 4 4 6 4 5 5 5
16 22 18 17 20 17 16 20 15 10 14 8 10 19 4 12 15 18 16 14 25 26 22 20 19 16 17 19 17 16 13 12 11 9 11 10 10 5 6 5 3 4 4 5
18 16 16 18 20 19 15 20 17 15 15 9 15 16 11 17 12 17 19 17 19 30 27 22 21 17 16 18 19 17 15 13 10 9 13 14 11 7 4 3 3 4 4 5
18 12 19 20 19 22 20 20 16 16 18 18 17 4 16 18 14 16 18 20 20 23 28 23 21 18 16 15 19 19 18 14 11 12 9 12 9 6 2 3 3 3 5 4
19 18 19 21 19 20 16 20 13 17 18 17 21 9 1 12 9 7 9 14 17 21 23 26 23 19 17 15 17 22 21 18 14 12 13 12 12 2 3 3 4 2 4 4
15 16 18 18 18 20 5 15 20 16 19 18 27 14 10 14 15 10 8 12 13 13 18 26 28 24 21 17 15 18 20 19 17 15 13 13 16 13 9 11 6 3 3 3
12 18 19 15 21 18 14 19 17 14 16 13 30 19 11 5 15 19 21 18 13 16 15 20 21 27 23 21 20 18 19 18 16 16 15 13 13 12 17 12 9 7 1 6
19 22 17 21 20 17 22 26 22 12 14 17 25 13 15 12 11 23 26 26 23 21 15 19 22 23 24 25 23 22 19 17 15 13 13 14 14 13 13 12 11 10 1 9
22 14 18 14 18 12 23 30 28 16 20 21 17 16 15 13 7 11 12 14 18 22 15 21 21 27 31 21 25 24 20 17 15 13 12 11 12 14 13 13 13 12 15 5
4 14 14 16 14 17 12 23 28 18 16 15 22 23 22 19 11 14 13 12 13 18 22 21 18 26 26 29 25 25 23 19 18 16 13 11 10 10 12 13 12 13 13 14
4 6 12 11 19 21 19 14 20 21 24 13 11 14 17 21 20 16 14 12 12 12 16 28 33 28 32 37 34 28 25 26 23 20 19 17 15 12 11 12 14 14 13 13
8 9 13 16 11 15 10 17 21 22 22 23 18 7 13 14 18 16 14 12 11 11 12 18 25 35 29 32 25 34 32 30 30 28 26 24 23 22 17 13 12 15 15 14
8 11 11 8 9 17 18 17 15 22 23 17 21 12 17 14 17 19 14 11 12 9 10 15 20 25 24 17 32 28 34 22 28 25 30 26 28 26 24 19 16 15 16 17
7 12 14 7 4 14 21 19 19 17 21 17 20 23 26 19 18 17 15 12 11 10 9 9 13 21 22 17 17 31 26 30 31 23 30 31 31 29 28 27 25 21 19 19
7 12 12 5 2 1 8 12 14 20 22 21 12 17 23 22 19 17 17 14 11 10 9 8 8 12 20 22 29 25 23 28 29 34 32 33 33 33 32 31 30 28 24 23
9 11 10 14 11 8 11 13 13 12 15 12 8 14 21 21 18 15 14 12 13 12 10 9 9 10 11 14 21 32 21 23 24 31 36 34 32 34 33 33 31 29 29 30
10 13 12 18 17 14 20 20 18 17 15 14 16 15 16 20 19 17 17 15 13 12 11 10 10 9 8 8 11 14 16 19 17 24 36 38 36 38 37 36 35 32 34 32
7 12 14 17 11 13 11 11 17 20 18 14 4 17 12 18 21 21 19 21 17 15 14 12 11 9 8 7 7 5 6 7 10 11 13 23 31 34 38 36 34 33 36 38
9 9 11 17 16 8 7 7 11 15 16 15 13 16 20 20 16 20 23 22 20 18 17 15 14 12 11 10 9 9 8 8 9 12 12 13 19 26 32 34 40 41 37 37
9 11 11 8 15 12 14 7 8 12 16 19 16 17 16 16 14 15 22 25 24 22 21 21 20 19 19 18 17 16 16 15 14 13 12 12 13 18 26 31 30 32 31 32
11 12 16 15 11 5 6 10 5 11 2 19 18 19 18 16 17 24 25 23 22 23 25 24 25 26 28 28 27 26 24 23 22 19 18 16 16 15 15 22 35 39 36 37
8 9 11 15 18 16 9 7 7 8 10 14 15 18 17 19 27 25 20 22 24 24 24 24 25 26 25 28 29 31 32 31 29 28 26 24 22 21 21 21 21 22 30 33
9 11 10 8 5 6 7 8 16 8 9 12 14 14 13 11 16 25 24 26 26 24 25 25 25 26 26 26 27 27 29 30 34 36 35 32 31 31 30 29 28 26 23 26
10 10 10 9 12 10 8 15 13 14 12 12 11 12 15 11 15 18 20 22 23 22 23 24 25 25 26 27 27 28 28 31 32 32 32 37 40 38 37 35 35 32 31 28
11 11 10 13 14 11 10 14 13 14 15 15 18 18 18 19 18 19 19 20 21 20 19 20 22 23 24 26 25 27 29 31 32 33 35 35 34 36 42 41 42 39 36 32
14 15 13 13 7 13 11 15 15 16 17 16 16 16 18 18 18 19 19 20 21 21 22 25 26 25 25 26 25 27 30 32 33 34 35 36 37 38 38 42 44 43 41 39

GFSCGP_700_spd_102.txt.gz
Wind_Speed
14 15 20 21 22 21 22 16 16 9 23 17 8 9 21 27 17 28 30 28 26 25 24 20 20 17 17 16 14 11 9 9 10 12 12 13 10 7 5 9 9 8 8 5
13 21 17 18 18 25 23 15 13 11 23 11 9 18 26 26 25 33 32 31 28 27 27 21 21 19 18 17 16 14 11 11 10 12 14 13 10 8 7 9 8 8 7 5
20 13 18 18 20 24 23 23 17 24 16 13 13 20 15 23 30 36 31 28 33 31 25 22 24 21 21 18 18 16 13 12 10 12 11 9 10 4 5 7 7 7 7 8
20 15 18 18 20 22 21 16 22 29 15 13 14 9 17 23 34 27 31 32 28 33 30 23 22 21 17 17 18 18 16 15 10 9 12 16 13 12 7 4 9 7 7 8
22 18 19 20 21 19 25 14 14 22 14 28 19 8 14 20 18 17 23 23 26 31 32 30 20 24 20 15 17 20 19 16 14 13 13 15 12 13 11 7 6 7 5 8
19 17 15 20 19 15 21 14 14 10 15 17 27 19 14 20 5 12 11 14 22 27 32 30 27 21 26 20 15 19 21 19 16 15 16 18 16 11 12 8 8 10 6 5
19 21 18 19 20 19 22 14 14 12 12 13 27 14 9 25 10 3 23 24 22 22 24 30 25 22 32 21 19 14 21 22 20 18 17 17 14 15 12 9 8 6 6 11
21 20 22 21 20 17 21 24 18 14 12 15 21 13 13 21 27 9 17 23 22 19 24 29 30 32 25 25 22 18 15 19 20 19 17 16 15 14 12 10 11 12 6 8
22 20 22 15 20 10 24 26 24 21 24 19 14 19 16 12 14 27 27 23 21 22 18 11 32 21 26 29 27 21 16 18 17 17 17 17 16 14 13 15 13 8 2 6
10 14 23 18 16 15 15 17 27 30 14 14 15 20 19 21 16 27 30 27 26 23 21 23 29 33 31 33 30 30 27 21 19 17 16 15 15 15 14 13 11 10 11 9
9 12 14 17 20 20 16 15 21 26 27 10 11 7 23 19 16 17 21 21 24 28 24 28 32 35 35 35 37 29 32 24 25 21 19 17 15 14 13 13 13 12 13 15
8 5 16 18 14 20 23 21 21 24 24 20 7 3 13 16 16 16 16 18 17 18 25 26 29 30 29 32 16 21 26 29 35 26 24 21 17 16 14 12 13 14 13 12
4 11 6 10 10 15 14 18 18 20 25 25 8 9 19 23 21 21 19 13 14 15 17 20 26 28 26 21 19 34 24 20 31 28 29 25 21 20 19 16 15 15 15 15
8 11 9 6 10 8 23 21 16 17 18 20 7 25 26 23 20 17 19 18 16 13 11 13 17 24 24 23 22 16 15 18 20 31 31 35 24 23 23 21 21 19 17 16
4 10 9 5 9 7 7 27 21 15 19 17 17 22 22 17 18 17 16 15 15 14 12 11 14 19 23 26 23 15 7 11 16 22 26 20 20 23 26 25 24 23 22 20
6 11 9 10 7 8 5 2 7 12 16 7 12 20 18 15 15 14 16 16 15 13 11 9 8 10 14 22 25 24 19 24 20 22 22 28 25 24 24 27 28 26 24 25
9 9 13 15 14 14 14 13 12 12 11 7 13 15 24 21 15 15 16 15 16 15 14 12 11 10 9 7 9 15 19 26 25 21 23 25 27 26 25 25 29 30 27 27
8 10 14 16 12 15 15 11 13 18 15 13 6 16 19 19 19 16 12 14 14 15 15 15 14 12 12 10 9 8 9 12 16 17 16 24 26 22 28 29 28 31 28 30
9 8 10 17 18 17 14 14 10 8 14 5 10 16 20 21 22 21 20 18 18 16 17 16 13 14 14 14 13 11 9 10 9 8 9 11 17 29 29 24 29 32 33 33
7 8 9 9 15 13 18 7 7 10 11 15 10 18 23 27 18 19 23 22 20 19 18 16 16 18 16 15 14 14 15 14 12 11 10 10 11 13 18 25 27 34 30 37
6 8 11 12 10 3 7 6 6 6 7 16 15 18 19 21 18 26 24 24 20 20 20 22 22 23 23 22 21 21 20 21 21 20 20 18 17 16 14 13 17 25 30 31
4 7 8 11 14 9 6 3 3 7 15 12 11 18 29 25 21 22 23 24 21 22 23 24 26 27 28 30 30 31 30 29 27 26 26 25 23 23 22 20 19 19 21 26
9 4 8 3 2 5 5 5 7 8 12 17 20 17 13 19 21 23 17 23 23 24 26 27 27 26 26 27 28 29 31 31 31 31 32 33 33 31 30 29 29 27 27 25
11 10 5 5 3 5 7 9 8 8 12 24 28 30 28 18 22 20 18 20 24 27 28 27 26 26 26 25 25 25 26 27 28 29 29 30 29 31 35 38 37 36 36 34
12 5 9 13 13 7 11 8 9 12 12 12 12 15 20 17 14 18 19 22 23 25 24 23 22 22 21 20 20 22 22 23 24 26 26 27 28 29 31 33 33 36 38 41
9 12 14 12 5 12 12 13 15 13 15 15 14 14 14 15 16 17 21 21 23 26 20 20 20 20 21 21 22 22 23 24 23 23 24 25 25 26 28 31 34 37 38 38

GFSCGP_700_spd_105.txt.gz
Wind_Speed
16 16 21 26 20 19 17 19 16 7 23 23 14 13 17 34 33 34 34 30 28 28 25 23 23 17 16 15 13 11 14 13 11 10 13 15 15 13 13 9 11 9 10 11
13 18 15 12 14 20 21 18 13 11 23 11 15 15 20 25 30 31 33 30 31 30 26 23 21 18 16 15 14 12 13 14 12 12 13 14 11 13 14 11 9 8 11 10
19 11 12 19 19 24 22 21 18 22 15 17 19 16 27 32 24 37 31 34 32 28 28 24 20 18 14 16 16 13 13 13 13 11 13 12 12 12 9 11 9 8 8 9
20 17 20 17 24 20 23 20 26 25 14 14 14 9 21 27 30 28 30 39 35 30 30 27 22 20 16 12 16 15 14 13 11 9 14 13 12 10 11 10 10 8 8 10
21 18 16 24 19 20 21 16 10 14 17 17 28 7 20 26 23 27 38 40 33 35 33 28 24 21 18 8 13 15 15 14 11 12 13 13 12 10 9 11 11 11 8 9
21 17 17 18 18 21 15 18 9 13 10 8 25 12 17 30 26 36 31 31 33 32 35 29 28 14 15 7 6 11 16 14 12 11 14 14 11 11 9 10 11 10 11 10
20 21 21 18 20 23 17 15 8 3 7 14 28 20 5 29 21 6 33 31 34 35 31 32 27 23 18 20 10 5 14 17 15 12 12 14 12 12 10 8 9 8 8 12
19 19 24 19 22 20 20 19 11 4 6 8 20 11 15 23 21 24 16 25 37 28 35 40 32 32 27 21 16 7 4 18 16 14 12 12 12 11 8 11 9 11 8 13
11 25 18 24 21 22 19 19 26 20 24 8 9 15 16 26 28 18 22 13 27 32 39 41 36 31 29 24 21 13 6 6 15 15 16 15 12 12 12 12 11 9 9 9
14 10 15 13 23 17 19 10 9 13 2 2 8 12 11 21 30 30 19 22 13 22 28 33 38 32 31 32 26 22 20 13 6 11 14 16 15 14 14 11 9 12 10 5
9 6 6 18 13 14 19 18 8 9 8 4 5 5 12 22 21 24 29 26 27 24 23 23 27 35 35 32 33 26 25 23 20 19 19 16 16 15 15 13 13 14 11 11
5 9 9 14 15 12 16 15 12 12 12 6 9 7 15 20 12 11 17 24 28 28 26 23 23 22 25 33 36 33 24 24 20 22 20 20 19 17 15 15 15 16 12 11
7 7 14 14 12 10 12 23 18 15 15 18 6 11 17 15 13 15 14 15 19 28 30 25 22 24 26 27 28 31 26 17 31 25 26 25 23 19 17 14 13 13 14 12
5 4 7 12 3 7 10 16 16 13 11 13 12 19 24 27 24 17 17 12 14 17 19 20 19 21 21 24 21 21 17 12 12 16 33 24 26 24 22 20 18 15 14 13
2 20 10 11 10 7 6 11 21 14 11 6 9 10 20 20 18 15 14 11 9 8 10 10 9 9 15 21 20 16 11 7 7 17 24 24 24 27 25 25 23 21 20 17
1 11 29 17 5 5 9 8 17 13 1 2 12 15 12 13 11 16 12 10 11 11 10 10 7 7 10 13 16 18 16 12 8 8 14 14 25 20 28 25 26 24 23 22
0 5 8 9 10 13 7 7 6 5 2 4 16 11 14 14 16 15 17 15 13 12 13 11 10 7 7 9 13 17 18 20 18 17 14 14 18 16 16 24 21 24 25 25
6 6 4 6 4 2 6 9 4 6 3 7 9 11 15 14 12 14 15 16 16 14 13 13 11 9 12 10 10 12 13 13 18 20 15 17 21 20 20 23 22 20 21 25
4 6 4 3 7 10 11 5 4 1 5 8 11 14 21 17 15 14 13 16 14 16 15 12 12 12 12 12 12 11 10 10 12 15 17 18 19 21 24 27 25 24 24 22
4 3 11 6 5 1 5 6 8 10 11 8 9 17 21 24 21 23 21 21 22 19 13 13 13 11 12 13 14 13 13 11 9 9 9 9 11 13 14 18 26 28 25 19
4 6 5 10 4 10 3 8 10 5 2 17 11 13 18 19 18 23 24 25 22 13 14 16 16 16 16 15 16 18 16 15 15 14 13 13 13 14 14 13 14 17 22 27
6 6 6 9 4 5 10 7 7 7 10 16 20 20 22 25 27 28 28 24 20 18 18 19 18 19 20 20 21 22 23 23 23 24 25 25 24 22 21 21 20 19 17 18
9 5 6 3 4 7 8 8 13 10 12 14 13 17 21 24 26 26 24 27 23 23 24 23 21 21 21 24 26 27 28 29 30 31 32 32 31 31 31 29 28 27 26 24
6 8 9 1 7 7 10 10 16 17 14 13 16 17 19 23 28 24 26 26 23 27 31 31 29 28 25 23 23 24 25 27 27 27 28 29 30 30 30 29 32 34 35 34
9 12 12 14 10 10 7 8 9 17 22 20 19 17 18 16 19 21 22 24 28 26 24 23 24 24 23 21 21 21 21 22 23 23 24 24 26 26 26 27 29 30 31 31
12 14 13 8 9 16 13 9 13 13 15 20 20 23 24 24 23 23 26 28 29 30 25 23 22 20 21 20 20 19 19 19 18 18 19 19 20 21 22 22 23 25 28 31

GFSCGP_700_spd_108.txt.gz
Wind_Speed
22 18 24 29 26 22 11 5 4 13 16 19 14 14 24 29 27 36 34 34 29 25 18 22 19 15 11 12 12 11 11 15 11 9 9 12 13 12 11 9 11 11 11 11
15 20 12 19 26 20 13 11 9 6 11 13 14 16 27 32 26 29 34 33 27 27 28 23 21 16 11 15 11 12 10 11 13 11 11 13 13 11 12 11 10 10 13 14
19 6 5 12 24 19 13 17 17 18 17 9 7 11 19 26 24 30 37 36 37 32 31 28 21 13 12 17 12 12 13 11 11 11 11 13 11 11 8 11 11 9 10 12
13 14 11 10 17 13 19 11 19 21 20 10 9 5 20 30 27 34 38 37 38 36 31 28 22 15 11 15 15 14 13 12 11 12 14 9 9 8 9 11 11 10 11 12
13 11 13 16 16 12 19 16 13 22 17 16 19 6 7 29 30 40 34 35 38 41 36 30 25 18 8 10 16 15 15 13 10 12 15 12 11 9 9 9 10 10 10 12
21 17 18 13 11 14 16 11 15 17 14 8 14 16 11 30 39 33 38 39 33 43 38 33 26 16 7 13 12 14 15 13 12 13 15 15 13 11 9 9 8 9 9 9
13 19 17 17 19 16 16 23 6 2 2 7 9 18 13 26 30 29 26 36 34 43 40 37 33 23 12 15 14 6 12 14 13 12 14 15 12 11 10 9 9 9 8 10
12 10 16 11 15 17 16 14 8 4 4 8 6 11 15 21 24 18 26 35 40 34 39 39 33 28 18 17 15 7 3 15 15 12 13 15 12 10 12 10 10 9 9 8
11 11 16 16 14 15 19 9 9 12 10 5 10 6 8 28 33 22 22 33 36 39 35 40 41 35 28 25 18 12 7 13 17 13 12 14 14 12 10 13 11 8 8 10
8 13 12 20 14 20 19 11 6 7 4 4 7 15 12 22 24 24 26 14 16 8 39 36 42 40 31 29 29 23 17 16 21 20 19 18 17 17 16 14 12 10 12 11
6 10 10 13 6 12 12 13 6 3 3 5 4 2 12 27 29 26 23 18 14 13 18 42 37 35 31 34 26 27 26 22 23 22 19 19 20 20 17 15 14 13 15 10
1 6 9 6 11 2 5 7 12 2 2 3 8 4 8 18 26 21 21 19 19 17 20 20 30 19 23 23 30 34 31 29 19 17 18 18 18 18 18 17 16 14 14 13
1 3 7 3 2 10 2 10 13 8 7 2 7 8 14 12 8 7 6 16 23 22 19 23 26 22 26 16 19 28 31 29 18 14 20 20 20 20 19 17 15 14 13 14
2 5 6 6 9 12 14 4 8 8 3 9 8 20 17 16 8 15 12 11 12 16 19 22 18 21 24 26 24 27 26 22 17 2 22 23 25 22 22 21 19 16 15 15
9 5 2 5 6 18 8 9 10 13 6 6 15 9 20 20 17 13 13 12 12 10 10 13 19 20 24 23 24 22 22 22 19 19 25 32 37 31 27 25 24 21 18 16
4 12 11 5 9 17 10 8 13 10 10 13 20 19 15 16 13 17 16 16 14 14 12 11 11 12 15 21 23 21 19 19 17 10 15 25 25 27 25 26 30 27 25 22
4 8 19 16 10 16 3 15 8 8 8 14 20 15 22 18 16 17 20 16 16 16 16 16 14 13 14 15 17 18 20 20 14 9 15 18 22 20 16 26 32 27 27 28
5 4 5 8 9 7 6 7 6 4 7 11 12 14 15 17 17 18 17 17 16 15 15 17 16 13 13 13 12 14 16 18 17 19 21 19 17 17 14 9 25 31 28 29
6 6 6 5 15 12 5 14 7 1 8 7 15 21 22 21 22 20 16 15 12 13 13 13 11 12 13 13 11 10 8 9 10 13 16 18 18 17 17 18 15 11 13 19
6 3 7 5 1 3 8 11 9 12 6 10 10 19 22 24 23 23 21 17 13 13 13 11 12 13 13 13 12 11 11 11 11 10 11 12 11 11 12 15 19 23 26 26
8 5 3 3 1 3 4 8 11 13 11 16 16 17 22 19 17 14 13 15 15 12 10 11 13 13 14 15 15 14 13 12 12 12 12 11 10 9 10 10 11 12 16 22
7 5 5 3 2 2 6 4 10 14 19 15 19 18 21 24 22 19 22 22 18 13 11 11 13 15 16 16 17 18 19 19 19 18 19 18 18 19 19 19 19 19 18 17
7 6 5 4 7 2 3 4 6 11 8 14 15 18 17 20 22 22 21 21 17 16 10 12 13 16 17 18 19 21 23 25 25 25 26 27 28 28 28 27 26 27 27 26
9 7 7 8 8 6 1 4 7 9 10 9 11 14 16 18 20 20 22 22 21 19 17 16 18 19 21 24 25 23 23 25 26 28 30 33 35 34 34 33 34 36 37 37
9 10 8 7 6 10 11 9 12 13 13 13 10 10 10 12 14 17 19 22 26 25 22 20 18 16 17 20 20 20 21 21 22 23 24 26 29 31 30 29 29 31 32 33
11 11 13 18 14 12 11 11 13 14 15 15 16 18 20 22 23 23 24 26 25 23 23 20 20 23 22 20 19 19 20 20 20 21 22 22 22 23 24 24 22 23 24 26

GFSCGP_700_spd_111.txt.gz
Wind_Speed
26 26 28 22 15 14 12 2 2 13 19 20 18 13 18 27 31 40 35 33 28 22 18 13 11 5 6 9 9 13 12 10 9 8 9 12 11 12 11 9 10 13 12 12
29 27 28 20 15 16 13 6 1 5 7 13 16 15 16 26 25 37 41 36 28 25 22 19 17 10 8 10 10 12 13 12 11 11 10 11 10 11 9 10 11 12 12 14
27 16 21 16 15 20 16 12 8 9 8 11 7 12 13 24 24 29 31 29 32 27 21 21 18 10 9 11 11 11 13 13 12 11 11 10 9 10 9 9 9 11 13 13
18 16 12 9 10 15 17 14 10 15 17 11 6 2 18 23 29 29 32 34 31 29 28 25 17 14 9 11 12 13 13 12 11 13 12 12 10 7 8 9 9 10 14 14
9 9 7 9 12 12 16 11 14 20 23 14 11 3 14 27 34 35 44 34 30 31 31 26 20 14 7 9 14 15 13 11 11 12 14 9 10 9 8 7 7 10 12 15
14 13 12 13 12 9 11 10 8 12 21 5 16 15 7 25 35 30 36 40 35 34 36 31 27 18 11 11 15 18 15 11 10 11 13 12 10 9 8 8 8 8 11 14
15 15 13 15 14 10 11 16 5 3 2 6 11 16 10 6 18 29 39 23 31 27 40 39 32 27 17 16 15 17 16 13 11 10 13 14 12 9 9 9 7 6 8 12
5 4 13 15 13 6 11 21 9 6 5 4 8 7 6 9 12 29 32 25 21 30 43 43 38 32 27 17 17 12 10 14 13 11 12 14 13 13 12 8 8 6 7 9
4 6 7 9 9 10 11 28 19 7 4 4 8 5 6 13 20 24 25 40 24 31 34 39 42 37 30 22 17 10 8 12 18 16 15 15 16 14 15 11 11 8 8 8
5 11 10 7 12 13 16 16 11 9 5 3 3 5 7 21 25 31 22 26 36 33 36 37 35 37 33 28 24 21 18 12 20 21 18 17 17 15 15 14 12 9 9 11
1 8 8 4 5 6 11 18 9 11 4 6 3 5 12 25 30 30 20 16 22 24 28 27 30 38 42 33 30 26 24 22 21 26 23 20 18 18 16 13 12 13 13 11
2 6 8 10 4 5 5 7 15 14 5 6 5 3 11 20 34 29 27 22 18 14 11 16 27 30 39 36 35 34 36 26 22 27 25 22 22 21 19 16 15 15 15 15
2 5 5 6 6 5 8 8 3 5 9 9 7 4 8 13 18 21 19 19 23 21 13 5 23 29 41 37 31 34 32 31 26 23 21 21 22 22 22 20 19 17 16 16
6 5 6 9 9 11 5 5 5 7 6 15 11 16 22 19 18 19 16 10 10 18 18 12 7 10 17 17 12 31 32 38 39 30 14 26 25 22 21 21 20 20 20 19
8 8 4 12 10 14 11 6 6 10 10 16 21 18 20 22 18 10 16 13 12 12 21 21 20 23 23 23 24 15 17 22 14 17 11 23 26 24 23 22 22 20 19 18
3 8 9 14 4 9 16 9 1 13 17 13 17 19 19 22 20 16 12 12 13 13 11 12 22 21 24 24 23 28 25 21 20 20 21 21 25 32 28 25 25 24 23 21
5 5 13 5 11 6 5 16 10 2 17 17 22 17 24 25 22 20 19 15 16 14 16 14 18 23 23 24 25 23 25 23 20 18 15 12 13 17 30 29 28 27 27 28
7 6 7 7 8 4 12 5 16 2 9 17 12 17 22 19 17 16 17 18 18 17 12 13 15 18 20 19 19 18 19 20 19 19 16 13 17 16 16 11 22 35 29 28
6 7 3 3 11 4 18 9 11 7 6 6 7 15 21 22 21 23 20 15 13 11 12 14 13 13 14 15 16 17 20 21 22 23 23 20 16 19 17 20 15 15 15 22
6 6 7 7 4 7 15 26 19 15 14 10 10 13 17 22 24 24 21 15 13 16 13 13 12 12 13 12 12 12 11 12 11 13 18 20 22 22 21 23 25 21 20 13
8 6 6 9 4 3 9 16 16 16 18 19 15 14 15 17 13 13 17 12 11 11 10 9 10 10 9 10 10 10 11 12 11 11 12 14 16 16 16 16 15 16 21 25
7 5 6 6 4 3 5 6 14 11 9 17 18 17 20 18 14 10 8 9 8 7 6 5 8 9 9 11 12 13 14 15 15 14 14 15 14 13 13 13 14 15 15 15
5 5 4 6 8 5 3 4 7 6 9 13 20 20 18 19 18 13 10 8 6 4 6 6 11 11 12 15 17 18 20 21 22 22 22 21 22 22 22 22 22 22 23 23
10 10 7 8 8 7 7 7 8 5 2 7 14 13 18 16 17 18 10 8 11 10 13 8 7 9 11 15 21 23 24 25 25 27 28 28 29 29 29 29 29 30 31 31
13 12 11 13 15 10 8 8 10 11 6 5 7 8 9 11 12 12 13 14 17 18 17 16 20 18 17 16 16 19 22 25 27 29 29 29 29 30 31 31 30 30 31 33
11 15 13 14 15 18 14 12 11 12 13 12 11 10 8 7 9 11 16 16 16 18 18 20 20 21 21 23 23 20 20 21 22 23 24 25 27 28 28 28 29 27 26 28

GFSCGP_700_spd_117.txt.gz
Wind_Speed
31 28 28 23 18 12 14 9 7 9 8 11 8 8 7 18 24 32 22 31 29 21 16 14 12 10 9 7 7 9 8 6 10 12 9 9 9 10 10 11 12 14 12 11
28 24 25 17 15 15 11 8 7 7 12 11 10 8 10 11 19 26 28 29 26 25 21 16 14 10 8 7 6 8 9 9 7 12 11 10 9 10 11 11 12 9 13 13
21 16 20 16 18 17 18 10 7 6 9 7 11 8 12 14 17 27 30 30 32 26 21 18 17 11 7 5 6 7 10 10 9 7 8 9 8 8 8 11 12 11 11 12
15 7 18 15 15 18 16 14 7 5 7 5 11 6 14 9 20 24 27 30 31 28 23 22 18 11 9 6 7 6 8 10 9 7 8 9 10 8 8 8 10 11 11 11
10 18 15 18 20 18 13 18 12 8 8 5 13 4 8 20 24 28 25 34 38 31 27 21 20 17 12 8 8 8 7 10 10 8 9 9 10 7 7 6 7 9 12 11
12 12 11 11 12 14 15 15 11 10 7 5 8 11 7 19 21 26 29 31 36 29 32 25 26 23 17 13 10 10 8 9 11 10 10 9 7 6 6 6 7 8 11 13
18 12 11 9 11 12 15 16 7 4 5 4 8 10 10 6 6 14 26 28 39 39 29 31 28 26 22 16 10 11 11 10 10 11 11 11 7 7 7 7 7 7 9 12
13 11 19 12 15 14 20 17 14 13 6 8 7 9 10 10 18 14 19 28 33 39 27 33 29 28 25 20 14 11 13 13 12 11 12 13 12 10 9 8 8 9 10 11
8 7 10 11 15 16 18 20 13 5 7 7 6 10 12 11 10 15 17 28 31 33 28 33 30 27 26 23 18 13 14 15 15 13 13 15 15 14 12 11 9 9 9 10
6 4 9 7 11 17 17 15 15 8 8 7 4 6 10 10 11 14 21 22 29 29 21 29 33 28 30 26 22 18 18 15 15 16 15 16 16 16 14 13 10 10 9 9
8 5 5 7 6 11 14 11 12 14 10 10 4 6 9 14 10 17 22 20 30 21 20 18 23 31 31 26 29 24 23 20 17 14 18 17 16 17 16 14 14 12 11 11
7 4 3 2 4 8 14 15 16 13 9 11 9 11 8 12 9 16 22 20 32 27 23 18 14 28 31 34 30 27 29 25 22 20 18 21 19 17 18 15 14 16 14 14
7 5 3 3 6 6 8 13 16 18 14 14 14 9 11 9 13 16 21 24 22 28 29 28 21 20 22 27 37 39 37 31 31 26 21 22 22 21 19 19 17 16 14 14
9 10 9 9 6 8 7 7 11 16 13 13 17 15 12 4 12 16 23 25 23 25 25 25 23 25 26 36 37 42 43 40 34 30 26 24 26 25 23 22 21 20 19 18
10 9 8 9 10 9 9 10 8 15 14 15 15 19 17 14 8 15 18 26 27 26 26 26 27 22 18 22 25 36 39 38 40 33 32 29 26 28 26 25 24 23 22 21
6 6 12 12 11 8 3 9 9 9 14 14 15 16 14 14 18 20 21 24 25 26 24 26 27 26 17 14 20 25 35 41 40 41 35 30 28 27 26 27 27 25 23 22
6 4 8 6 9 5 6 2 5 10 13 15 13 18 19 19 22 25 27 26 25 23 23 26 28 29 17 11 13 25 16 19 14 32 29 28 36 23 14 21 28 26 23 22
8 8 9 4 6 9 8 9 2 5 8 12 15 15 19 23 26 26 24 19 19 21 21 17 23 33 24 19 18 15 20 23 15 23 24 22 30 22 23 20 27 30 25 23
8 7 4 5 7 9 12 13 12 11 4 4 3 14 16 20 26 26 20 18 15 15 12 11 12 15 24 26 15 19 16 12 19 20 16 16 18 18 17 17 14 23 29 23
10 11 10 7 3 5 7 12 14 15 12 7 6 7 12 21 26 27 22 16 14 14 13 12 12 17 17 18 15 14 16 17 16 17 17 18 18 19 13 14 11 13 19 20
11 10 7 8 6 7 12 9 8 8 8 7 8 1 4 9 15 15 20 17 19 13 16 12 16 15 17 22 18 16 18 23 20 22 19 16 18 18 15 13 15 13 14 17
13 10 9 8 5 6 8 8 9 10 15 15 14 6 11 10 8 12 20 19 16 13 17 17 15 18 20 19 20 17 18 19 19 18 17 14 12 15 17 14 15 15 16 17
10 10 10 7 5 5 4 3 4 6 12 12 10 7 9 9 7 8 17 17 15 18 18 19 19 14 13 13 12 13 12 13 13 10 14 11 15 12 11 13 13 13 16 15
10 10 11 10 10 6 6 4 2 4 5 3 11 13 13 11 12 8 19 21 21 18 14 13 13 13 12 11 11 11 11 13 14 15 16 16 16 17 17 18 19 19 19 20
10 9 11 12 11 8 8 7 5 2 0 1 5 11 15 13 14 16 19 26 22 16 11 10 10 10 10 9 9 10 11 12 14 16 19 20 21 21 22 23 24 25 26 27
15 13 12 12 11 9 8 7 6 5 2 2 3 5 8 10 11 12 22 32 23 18 14 11 9 10 13 15 14 14 15 14 13 14 15 17 19 22 24 25 26 27 28 29

GFSCGP_700_spd_120.txt.gz
Wind_Speed
21 19 24 20 17 9 9 9 10 9 12 12 11 8 16 30 25 34 29 25 20 18 16 14 13 13 13 10 11 12 9 10 12 10 11 10 10 10 11 11 12 10 10 10
19 21 20 15 15 10 11 10 10 8 11 9 8 9 17 22 25 21 35 27 23 21 18 18 14 11 12 12 10 10 9 10 15 13 11 11 11 11 9 11 10 9 8 10
20 19 17 14 13 14 11 9 9 5 10 7 9 9 14 15 21 22 27 33 30 26 20 19 16 13 9 11 10 10 10 10 12 12 11 9 9 8 9 8 10 8 10 10
17 13 17 17 15 14 15 9 8 11 11 7 14 6 14 17 18 25 29 35 33 29 23 18 18 14 11 10 11 11 11 10 10 12 11 11 10 9 8 9 10 9 9 9
13 15 16 17 15 14 7 9 9 8 7 5 10 10 11 18 22 24 28 33 34 31 25 23 21 16 15 12 12 11 11 11 11 10 12 11 10 9 10 9 9 10 10 10
9 16 11 14 15 13 10 8 9 8 8 12 10 13 15 20 16 14 24 28 35 34 32 27 21 20 18 15 14 13 11 12 13 12 12 11 10 7 8 8 9 9 10 10
11 12 13 10 9 12 14 16 14 10 9 11 7 10 6 12 10 18 23 24 34 41 37 31 26 25 22 17 14 14 13 13 13 13 12 12 11 9 8 9 8 9 10 11
17 19 17 13 15 11 19 22 18 11 10 14 10 8 6 11 16 13 16 21 30 44 36 33 27 29 24 21 16 13 14 14 13 13 12 11 10 10 10 10 9 9 9 11
13 10 11 14 15 17 15 23 21 19 15 12 14 12 10 12 13 13 20 23 32 38 40 33 34 30 28 23 18 14 14 15 14 14 13 14 13 12 10 11 11 10 10 10
8 10 9 16 13 16 14 12 21 19 13 14 10 10 9 10 15 12 17 22 30 26 37 35 36 32 28 25 22 18 15 16 16 16 16 15 16 16 14 12 12 11 10 10
8 8 13 11 17 18 20 17 15 18 26 14 13 11 12 9 9 9 14 20 27 25 40 33 30 33 29 28 24 20 18 19 19 18 19 17 16 17 17 15 13 12 12 11
9 10 12 13 8 15 15 19 20 21 19 19 22 4 7 7 9 8 15 20 24 29 31 29 27 28 28 28 30 28 25 23 21 20 19 19 18 18 17 15 15 14 13 12
7 8 11 9 9 9 15 16 18 17 19 16 22 22 11 10 11 12 17 23 25 30 25 26 28 31 29 31 34 31 32 29 27 25 21 20 21 19 18 18 16 16 16 14
9 7 11 9 4 6 13 11 14 19 22 22 20 15 7 8 11 13 17 24 25 32 29 30 26 21 27 26 27 34 36 34 33 32 29 24 21 23 22 20 20 16 16 16
8 10 10 11 7 4 5 9 10 17 22 21 16 17 17 16 14 7 13 24 24 30 29 33 31 26 24 25 26 26 35 38 42 39 35 30 26 23 25 24 22 22 21 19
5 10 10 12 9 9 10 9 10 10 13 15 17 13 13 19 13 13 13 20 29 28 31 29 31 27 25 23 21 25 26 34 39 44 40 36 31 29 23 27 25 23 22 21
5 6 9 15 10 10 13 11 5 8 7 8 11 9 16 17 15 15 21 22 27 28 28 28 27 29 29 26 24 22 23 28 32 49 46 43 38 33 30 27 27 26 25 24
7 8 9 13 8 13 6 6 3 0 3 6 9 9 17 18 21 22 26 24 23 23 26 30 32 31 31 30 22 18 21 12 8 25 47 44 43 35 27 26 19 24 27 25
11 10 10 13 15 14 7 5 4 5 5 4 4 12 19 18 20 22 23 21 25 25 23 23 25 23 23 25 22 16 14 14 10 15 15 20 26 27 37 33 25 18 25 28
9 11 12 8 13 7 5 2 13 15 14 11 11 11 18 19 17 22 25 23 22 21 21 19 18 17 18 28 26 24 21 17 12 16 15 14 11 11 25 31 20 17 19 27
14 14 17 16 13 9 8 8 4 10 5 10 4 6 9 9 14 21 22 21 22 19 15 16 15 19 16 20 21 21 18 20 18 19 16 14 19 17 14 14 21 18 14 17
14 14 14 15 12 14 10 8 6 10 9 9 9 7 7 13 8 11 17 20 17 21 19 15 19 15 22 23 22 22 24 27 22 17 16 16 13 12 19 16 14 14 15 13
11 15 11 12 3 5 7 6 4 4 5 11 10 12 5 9 15 7 16 21 23 19 17 15 19 19 20 19 28 18 21 24 25 23 19 13 12 9 14 14 15 16 16 15
12 12 11 9 11 9 7 5 4 4 5 4 11 12 11 10 9 13 14 19 17 19 18 22 19 15 18 20 15 18 15 15 12 13 12 11 11 11 12 11 12 13 14 15
12 12 10 10 11 10 9 6 5 4 4 4 3 9 12 14 13 13 11 18 23 21 20 18 17 16 15 13 13 12 12 12 13 14 13 15 15 15 16 17 17 18 19 20
15 11 10 10 11 11 11 9 6 6 5 4 4 6 8 9 11 11 14 17 18 21 20 16 13 13 12 11 11 10 11 10 11 12 13 15 17 18 20 21 21 22 23 24

GFSCGP_700_spd_123.txt.gz
Wind_Speed
18 20 24 18 20 9 12 10 17 13 17 16 14 6 17 28 34 29 36 23 21 18 19 15 13 12 11 11 14 11 9 12 10 11 13 11 9 5 11 10 9 8 7 6
16 24 21 17 17 14 9 9 14 16 14 12 13 8 14 27 23 17 25 29 21 19 17 19 13 12 11 10 14 12 8 14 12 11 15 14 7 8 11 6 9 8 7 8
19 17 18 17 14 14 15 16 12 7 14 8 16 10 14 24 31 15 29 28 28 22 25 16 18 16 11 13 15 12 10 12 13 12 14 14 15 9 10 9 6 6 7 10
18 11 18 18 16 15 14 12 6 23 16 12 15 8 17 24 28 31 23 30 27 36 27 24 16 17 15 12 13 14 12 11 12 11 11 12 12 9 9 4 6 3 6 8
17 18 16 18 19 15 7 9 10 3 12 4 11 10 9 23 29 31 30 31 35 22 21 23 18 17 16 13 12 14 13 13 12 12 13 13 12 8 8 8 12 10 8 8
11 15 15 16 17 15 10 10 10 8 10 16 19 16 21 28 28 28 29 30 34 29 31 33 28 20 28 17 15 13 14 13 13 11 11 11 12 12 6 7 8 8 8 8
10 13 15 15 17 15 15 14 13 9 8 13 6 8 9 13 17 23 23 31 28 31 33 29 26 19 19 19 17 15 14 14 14 13 12 12 11 9 9 9 8 7 5 6
15 18 21 15 18 14 20 21 19 14 12 17 16 7 13 13 16 18 22 21 29 34 36 30 24 25 25 16 18 17 14 14 14 14 15 13 11 9 9 9 10 8 8 7
20 16 20 17 18 15 15 25 24 25 21 17 7 6 8 15 14 12 16 23 28 35 36 33 33 25 27 21 19 18 16 15 15 14 14 14 13 10 10 10 13 8 10 15
6 12 13 16 15 18 19 11 22 22 16 17 15 18 11 14 14 13 17 22 24 34 33 36 32 26 18 22 21 17 15 15 16 15 14 14 14 14 12 11 11 10 8 9
6 16 11 18 19 18 19 18 16 19 23 16 12 6 14 18 15 12 13 19 25 25 31 39 35 26 26 24 24 21 16 14 16 17 16 15 14 14 14 12 11 11 10 9
12 11 19 16 17 18 13 22 21 19 16 23 29 5 9 3 6 10 11 15 24 24 30 33 41 29 39 26 27 24 22 18 15 18 18 17 16 14 16 16 13 13 12 11
8 12 7 6 14 14 16 16 21 24 22 24 18 6 13 10 7 5 9 13 23 22 21 28 37 30 31 38 26 27 27 23 21 19 19 19 19 17 17 17 16 15 15 13
5 13 16 10 6 10 20 22 18 19 20 19 21 15 6 10 11 4 9 16 23 29 31 31 34 32 30 31 30 30 33 31 29 25 24 23 20 21 20 19 20 17 16 16
8 13 11 3 6 10 6 12 19 19 22 22 19 9 5 19 17 10 5 23 24 29 31 26 24 30 30 31 30 28 31 30 29 31 32 30 25 23 23 22 21 21 18 16
9 13 13 14 12 11 11 11 10 13 18 23 24 9 17 13 17 9 7 7 20 22 28 29 24 25 25 23 23 23 24 23 28 35 37 37 32 29 27 24 25 24 23 21
8 11 9 17 15 12 17 18 14 16 12 16 13 1 10 4 5 7 6 7 18 22 21 27 28 29 30 27 25 24 22 21 24 25 33 41 39 39 32 27 26 28 26 24
8 9 12 15 2 13 12 3 12 9 6 8 21 11 2 5 11 11 10 12 16 22 27 25 27 25 25 24 24 24 24 21 20 15 25 36 40 40 41 29 29 28 29 29
11 12 15 16 16 13 10 6 5 10 7 7 6 9 8 15 15 16 17 14 14 22 23 26 26 25 26 27 26 26 25 17 13 17 22 22 35 43 44 40 30 32 27 30
13 13 16 16 14 9 3 3 2 6 15 5 7 6 12 17 15 20 18 23 24 22 26 26 25 26 27 28 29 29 24 14 11 15 18 20 23 27 27 34 29 31 24 18
12 16 20 22 18 6 9 4 2 8 3 3 4 7 15 10 15 21 16 18 19 22 20 20 21 22 25 25 24 26 25 17 13 10 6 6 8 11 20 24 25 43 27 20
17 15 17 21 7 12 3 5 5 3 5 6 4 5 10 11 15 13 19 22 20 20 19 17 17 19 20 19 22 25 22 23 23 21 16 11 9 10 8 7 7 16 22 22
16 17 12 7 2 5 5 3 8 10 6 8 15 11 11 8 11 10 7 17 22 21 18 20 19 19 19 23 25 26 23 22 27 28 20 14 13 8 12 14 19 20 19 19
14 14 20 15 15 8 3 2 6 5 5 5 4 13 11 17 11 8 11 12 19 19 19 18 15 12 17 17 18 26 26 23 27 25 19 19 17 14 14 13 17 12 11 13
12 16 12 16 19 6 7 6 3 6 8 8 6 4 10 16 13 11 12 10 15 18 20 21 19 18 18 20 19 23 25 21 23 22 16 14 14 11 11 10 11 12 14 16
12 14 13 13 13 10 14 8 6 2 5 10 7 4 7 15 12 12 10 10 12 11 18 24 20 16 17 15 14 10 12 18 18 17 13 13 13 14 14 14 15 15 17 19

GFSCGP_700_spd_126.txt.gz
Wind_Speed
15 17 21 18 17 16 16 10 15 21 15 20 14 14 15 28 28 20 22 25 25 19 14 13 19 26 9 15 16 15 9 10 10 11 11 10 12 15 10 10 10 6 4 1
13 22 20 19 16 14 18 20 9 7 11 18 17 12 26 30 27 28 33 27 26 25 18 18 13 12 13 12 16 13 11 12 12 15 16 13 10 9 7 8 9 7 8 9
20 18 20 21 17 15 18 18 8 3 20 31 19 14 17 21 29 30 35 30 31 27 26 22 17 11 8 14 15 13 11 14 12 14 13 14 10 12 7 6 7 6 8 11
18 16 19 19 19 14 15 4 4 4 17 6 18 10 17 17 29 27 21 40 30 29 30 18 17 15 9 8 16 15 14 16 12 11 14 15 13 10 8 5 7 7 6 11
19 17 17 21 22 14 14 12 8 6 8 5 20 9 13 16 23 38 29 23 33 29 30 27 23 14 17 14 13 18 16 16 14 13 12 14 13 13 11 7 6 6 6 7
16 12 17 15 14 16 8 7 10 4 2 12 26 14 17 16 15 23 34 29 38 37 23 28 33 27 23 15 13 16 17 16 14 14 13 12 12 15 13 8 8 8 7 7
18 12 14 15 16 16 14 9 10 7 12 13 13 14 4 19 15 21 25 30 37 36 27 28 24 27 24 19 18 15 18 17 16 15 15 15 12 8 8 5 8 8 8 7
19 13 14 15 18 18 13 18 17 10 2 13 19 12 18 17 18 14 17 20 31 32 34 30 27 36 26 29 36 19 18 18 18 16 15 15 14 9 8 9 8 9 7 9
20 19 17 19 17 16 15 19 23 31 20 17 4 2 9 11 18 15 23 26 30 34 37 29 36 28 22 32 24 24 19 19 18 17 16 14 13 11 10 8 6 8 13 10
9 16 21 16 15 18 19 12 15 22 8 11 7 12 9 16 5 15 22 24 25 30 28 37 36 31 20 26 29 24 17 18 17 16 15 16 14 11 10 10 10 8 9 10
9 7 8 13 19 17 19 19 13 16 19 12 4 9 3 10 18 17 24 24 27 22 28 32 34 31 31 26 34 23 18 18 17 15 14 13 14 14 13 12 11 9 8 8
11 14 18 17 16 16 18 18 21 16 14 18 21 14 14 5 12 21 18 17 23 21 18 30 33 34 28 29 34 40 21 16 15 14 13 13 12 11 12 14 13 10 10 10
3 10 12 5 12 16 17 17 17 23 20 21 16 10 5 3 10 13 16 19 21 23 20 18 25 29 33 30 26 26 20 17 15 12 13 15 14 13 12 12 14 14 13 12
3 8 7 9 10 6 10 16 18 20 24 20 18 12 9 9 9 10 15 23 16 22 19 18 24 32 38 37 20 25 18 26 18 17 14 13 13 14 15 14 14 15 14 15
5 10 3 5 4 18 14 15 22 20 18 14 16 7 13 10 16 17 19 26 23 21 20 20 27 29 34 30 32 14 18 20 20 22 9 17 18 16 17 17 16 17 18 16
6 12 10 11 5 10 16 9 9 11 19 18 19 13 12 12 13 28 22 17 17 21 20 22 27 17 24 25 21 21 24 22 23 24 28 26 24 22 23 22 19 21 19 19
9 10 10 15 10 13 14 12 11 11 9 6 14 9 8 14 14 12 6 10 9 11 14 20 23 19 18 19 16 20 22 22 23 23 23 25 29 31 32 30 27 23 25 23
7 6 11 16 11 12 3 5 5 20 2 6 9 14 12 12 2 11 12 10 10 12 8 13 20 20 18 15 19 22 24 24 24 21 21 23 27 32 35 35 34 32 28 28
9 8 12 14 19 14 12 4 3 14 5 1 5 13 22 7 6 5 4 8 9 9 10 11 16 16 20 19 21 22 21 21 21 20 21 21 19 23 27 35 46 37 36 31
10 8 12 16 17 10 10 9 12 10 3 6 3 4 14 14 3 12 13 14 14 10 7 13 19 25 24 19 19 21 19 20 22 21 19 18 16 18 20 26 33 35 30 30
7 9 16 18 20 6 7 7 4 9 2 6 6 5 11 14 12 13 15 15 7 9 16 19 19 19 19 18 18 20 21 21 19 18 17 14 12 23 27 21 30 26 33 34
14 15 17 14 18 9 2 7 5 8 5 4 5 6 13 13 15 16 14 11 12 14 16 16 14 15 15 16 16 20 20 15 21 16 14 8 5 6 8 15 16 16 29 32
12 12 18 9 9 6 8 13 18 4 5 12 12 4 9 16 13 9 11 13 12 19 17 17 16 16 17 18 18 22 22 22 22 25 22 18 12 11 11 8 6 3 8 24
11 16 12 9 11 10 16 10 8 7 5 2 2 10 16 17 15 15 14 15 13 15 17 17 18 18 20 19 18 25 25 26 23 22 28 25 17 15 15 12 15 8 17 7
14 15 12 17 13 15 21 13 3 1 0 2 1 5 8 11 12 13 13 12 9 10 9 12 15 17 16 16 14 19 23 25 24 24 24 21 22 19 16 13 13 16 14 13
10 12 10 8 11 9 10 11 3 5 3 2 2 8 8 12 7 10 11 9 7 8 8 9 12 17 19 25 20 24 23 19 21 27 27 27 23 18 15 14 14 13 14 13

GFSCGP_700_spd_132.txt.gz
Wind_Speed
17 18 22 22 19 9 4 11 14 10 9 5 11 22 31 32 26 26 26 25 20 15 13 11 7 7 8 6 8 10 12 12 8 14 16 19 18 20 17 13 13 11 8 10
12 18 23 20 19 11 13 12 8 3 6 7 5 16 27 28 30 32 25 28 26 24 19 15 11 6 5 10 10 10 10 13 13 14 22 14 16 19 17 17 12 9 9 19
17 16 11 14 19 5 8 8 7 6 6 10 10 9 24 33 33 35 24 30 28 26 22 18 12 7 5 7 10 11 12 13 12 13 14 15 15 17 15 13 15 15 13 14
12 15 10 11 15 10 8 5 4 6 15 6 12 5 10 30 31 32 23 32 31 30 25 23 16 13 5 5 7 11 15 13 11 10 11 11 13 12 15 12 13 14 16 16
13 11 10 10 12 8 9 4 5 6 8 8 12 3 8 25 37 42 35 36 34 33 29 25 20 13 8 6 6 10 11 13 12 11 12 12 16 17 14 12 9 10 14 14
19 16 12 11 11 14 18 6 3 5 6 4 17 5 5 25 19 40 36 40 37 34 29 27 23 16 17 12 9 7 11 11 13 12 13 14 12 10 12 10 10 13 14 17
15 15 13 10 13 22 10 7 2 1 1 2 10 4 6 10 24 27 41 39 37 36 35 32 26 22 22 15 12 8 12 11 14 12 12 13 13 12 12 11 11 10 11 12
7 5 5 10 21 17 12 12 9 5 4 4 10 7 5 15 11 18 23 38 39 40 36 31 28 28 22 18 18 13 12 13 14 14 13 12 11 9 13 15 12 11 11 13
5 8 7 8 12 17 15 20 14 10 8 1 8 5 4 3 4 7 16 16 34 39 37 43 39 31 26 24 19 14 16 15 14 12 13 13 13 10 9 10 11 12 12 13
10 9 6 12 13 15 16 16 5 9 3 4 6 14 6 11 12 17 10 14 21 29 37 38 41 33 29 21 21 17 18 16 14 15 13 13 14 12 10 10 9 9 11 8
10 5 4 8 17 19 18 13 5 5 5 5 3 4 10 10 8 4 11 18 19 17 30 34 40 30 32 31 28 18 21 19 16 17 17 16 15 14 11 11 10 8 6 7
9 1 9 3 4 10 7 1 5 9 10 6 3 5 16 15 15 18 13 9 20 15 16 22 31 36 31 27 29 24 24 21 20 18 20 18 18 18 15 13 12 11 12 9
4 10 5 3 6 8 9 7 5 6 10 20 2 5 16 14 12 14 11 12 19 18 15 17 25 33 34 29 27 27 20 25 20 21 23 20 20 21 18 17 16 15 13 13
9 6 8 7 5 8 6 13 13 17 8 1 4 14 16 9 4 3 5 10 12 20 25 24 25 29 31 36 32 27 25 27 35 28 24 21 21 19 17 17 17 17 16 15
9 9 3 7 7 4 2 17 19 17 7 4 11 23 12 6 1 6 7 7 6 14 20 20 26 25 28 34 33 29 26 28 26 26 24 21 25 22 20 19 18 16 16 17
5 7 5 4 3 4 4 18 16 14 14 20 18 19 15 10 8 1 4 7 10 16 20 25 23 27 27 31 28 28 25 28 26 40 30 27 24 19 20 20 19 18 18 18
9 6 2 1 7 5 8 20 12 19 17 7 12 15 11 10 6 4 6 10 13 7 26 29 23 25 31 29 29 22 25 19 22 33 38 27 29 20 17 18 20 19 19 20
2 1 5 4 2 5 10 10 10 12 13 12 12 10 5 1 2 3 4 5 4 5 3 11 20 27 30 28 23 23 25 20 20 14 32 36 29 22 22 22 26 25 24 25
3 1 4 2 4 6 4 8 10 9 5 10 6 12 13 10 8 3 5 6 1 2 1 5 4 10 3 11 10 11 6 9 10 10 12 13 11 19 20 20 23 26 27 29
4 8 5 4 1 2 3 5 5 7 9 1 4 5 13 8 5 4 4 3 3 2 4 5 9 7 4 3 2 4 4 9 14 15 18 18 18 19 21 25 26 26 28 29
4 3 4 4 2 3 5 4 3 10 6 4 4 3 4 5 4 6 8 12 13 12 8 9 12 10 7 9 12 14 15 17 18 19 19 19 21 23 24 22 24 25 24 19
6 3 2 0 1 4 5 5 7 10 8 5 8 9 5 5 3 1 2 4 8 11 15 12 13 17 14 12 11 13 16 18 21 21 21 21 21 20 18 18 18 16 16 17
2 3 3 3 5 7 7 6 6 10 11 13 11 8 6 5 3 5 6 3 4 6 10 12 14 14 14 12 10 9 11 14 17 17 14 13 14 15 14 14 13 13 14 16
7 8 7 9 11 9 8 9 11 15 14 17 12 7 5 5 9 11 11 11 10 9 8 10 12 12 14 14 14 14 14 14 15 15 15 16 18 19 20 19 19 16 16 17
10 13 15 17 15 12 12 14 15 16 19 20 17 7 7 7 7 8 10 12 9 8 8 8 9 10 10 11 11 11 10 10 9 13 17 18 26 19 28 23 20 21 21 17
15 14 15 16 15 12 12 10 21 22 18 20 13 9 8 8 8 6 5 8 8 9 8 7 4 5 5 6 9 10 11 9 11 11 14 17 20 27 20 26 22 28 27 23